LiveATC.Net - Listen to live air traffic control over the Internet!
Airport/ARTCC Code
Frequency Search
(e.g., 124.400, 128.75)
Site-wide search
 


Browse Feeds
Top 50 Feeds
HF Oceanic Feeds
Coverage Map
Bad Weather Areas

LiveATC FAQ
Offer LiveATC feed
Contact LiveATC.net
Press Inquiries

LiveATC on iPhone
LiveATC on Android

LiveATC Mobile
(Mobile browser)

ATC Audio Archives
Interesting Recordings

LiveATC Forums

Home Page
About LiveATC.net


Terms of Use
Privacy Policy

AIRMETs/SIGMETs

FAA Airport Status
NAS Status
Arrival Demand


Server Software By:
Icecast.org
Liquidsoap

Select an area of interest:
U.S. Feeds: Class B Airports | Class C Airports | Class D/Other Airports | ARTCC (Centers)
International Feeds: Canada | Europe | Oceania | Asia | South America | North/Central America | Africa
Misc Feeds: HF Feeds
Search by ICAO/IATA airport code:   (e.g., kbos, kjfk, lax, eham, etc.)


Currently Available Live Feeds: 3039
Status Updated: Sun May 22 2022 19:36:38 UTC


NOTICE

Unauthorized use prohibited. See LiveATC.net Terms of Service

U.S. Class C Airport Feeds

 

KABE App/Dep (Archives)
Allentown, Pennsylvania, United States

Feed Status: UP
Listen in your browser - HTML5 player(in browser, HTML5)
Click here to listen with your own player(launches your MP3 player)

KABE 221851Z 23009KT 10SM FEW065 30/19 A2995 RMK AO2 SLP139 T03000189

KABE Airport Info (Airnav.com)

KABE Flight Activity (Flightaware)

Listeners: 0 out of 1904 total

Allentown Approach/Departure (Above 3000'): 124.450
Allentown Approach/Departure (Below 3000'): 119.650

KABE App/Dep (Above 3000') (Archives)
Allentown, Pennsylvania, United States

Feed Status: UP
Listen in your browser - HTML5 player(in browser, HTML5)
Click here to listen with your own player(launches your MP3 player)

KABE 221851Z 23009KT 10SM FEW065 30/19 A2995 RMK AO2 SLP139 T03000189

KABE Airport Info (Airnav.com)

KABE Flight Activity (Flightaware)

Listeners: 0 out of 1904 total

Allentown Approach/Departure (Above 3000'): 124.450

KABE App/Dep (Below 3000') (Archives)
Allentown, Pennsylvania, United States

Feed Status: UP
Listen in your browser - HTML5 player(in browser, HTML5)
Click here to listen with your own player(launches your MP3 player)

KABE 221851Z 23009KT 10SM FEW065 30/19 A2995 RMK AO2 SLP139 T03000189

KABE Airport Info (Airnav.com)

KABE Flight Activity (Flightaware)

Listeners: 0 out of 1904 total

Allentown Approach/Departure (Below 3000'): 119.650

KABE ATIS (Archives)
Allentown, Pennsylvania, United States

Feed Status: UP
Listen in your browser - HTML5 player(in browser, HTML5)
Click here to listen with your own player(launches your MP3 player)

KABE 221851Z 23009KT 10SM FEW065 30/19 A2995 RMK AO2 SLP139 T03000189

KABE Airport Info (Airnav.com)

KABE Flight Activity (Flightaware)

Listeners: 0 out of 1904 total

Allentown ATIS: 126.975

KABE Clearance Delivery (Archives)
Allentown, Pennsylvania, United States

Feed Status: UP
Listen in your browser - HTML5 player(in browser, HTML5)
Click here to listen with your own player(launches your MP3 player)

KABE 221851Z 23009KT 10SM FEW065 30/19 A2995 RMK AO2 SLP139 T03000189

KABE Airport Info (Airnav.com)

KABE Flight Activity (Flightaware)

Listeners: 0 out of 1904 total

Allentown Clearance Delivery: 124.050

KABE Del/Gnd/Twr (Archives)
Allentown, Pennsylvania, United States

Feed Status: UP
Listen in your browser - HTML5 player(in browser, HTML5)
Click here to listen with your own player(launches your MP3 player)

KABE 221851Z 23009KT 10SM FEW065 30/19 A2995 RMK AO2 SLP139 T03000189

KABE Airport Info (Airnav.com)

KABE Flight Activity (Flightaware)

Listeners: 0 out of 1904 total

Allentown Clearance Delivery: 124.050
Allentown Ground: 121.900
Allentown Tower: 120.500

KABE Del/Gnd/Twr/App (Archives)
Allentown, Pennsylvania, United States

Feed Status: UP
Listen in your browser - HTML5 player(in browser, HTML5)
Click here to listen with your own player(launches your MP3 player)

KABE 221851Z 23009KT 10SM FEW065 30/19 A2995 RMK AO2 SLP139 T03000189

KABE Airport Info (Airnav.com)

KABE Flight Activity (Flightaware)

Listeners: 0 out of 1904 total

Allentown Approach/Departure (Above 3000'): 124.450
Allentown Approach/Departure (Below 3000'): 119.650
Allentown Clearance Delivery: 124.050
Allentown Ground: 121.900
Allentown Tower: 120.500

KABE Ground (Archives)
Allentown, Pennsylvania, United States

Feed Status: UP
Listen in your browser - HTML5 player(in browser, HTML5)
Click here to listen with your own player(launches your MP3 player)

KABE 221851Z 23009KT 10SM FEW065 30/19 A2995 RMK AO2 SLP139 T03000189

KABE Airport Info (Airnav.com)

KABE Flight Activity (Flightaware)

Listeners: 0 out of 1904 total

Allentown Ground: 121.900

KABE Tower (Archives)
Allentown, Pennsylvania, United States

Feed Status: UP
Listen in your browser - HTML5 player(in browser, HTML5)
Click here to listen with your own player(launches your MP3 player)

KABE 221851Z 23009KT 10SM FEW065 30/19 A2995 RMK AO2 SLP139 T03000189

KABE Airport Info (Airnav.com)

KABE Flight Activity (Flightaware)

Listeners: 0 out of 1904 total

Allentown Tower: 120.500

KABE Twr/App/Dep (Archives)
Allentown, Pennsylvania, United States

Feed Status: UP
Listen in your browser - HTML5 player(in browser, HTML5)
Click here to listen with your own player(launches your MP3 player)

KABE 221851Z 23009KT 10SM FEW065 30/19 A2995 RMK AO2 SLP139 T03000189

KABE Airport Info (Airnav.com)

KABE Flight Activity (Flightaware)

Listeners: 0 out of 1904 total

Allentown Approach/Departure (Above 3000'): 124.450
Allentown Approach/Departure (Below 3000'): 119.650
Allentown Tower: 120.500

KABQ App/Dep (Main) (Archives)
Albuquerque, New Mexico, United States

Feed Status: UP
Listen in your browser - HTML5 player(in browser, HTML5)
Click here to listen with your own player(launches your MP3 player)

KABQ 221852Z 12008G18KT 10SM SCT150 17/M01 A3023 RMK AO2 SLP189 T01721006 $

KABQ Airport Info (Airnav.com)

KABQ Flight Activity (Flightaware)

Listeners: 1 out of 1904 total

Albuquerque Approach/Departure (S of V12): 123.900

KABQ App/Dep (Other) (Archives)
Albuquerque, New Mexico, United States

Feed Status: UP
Listen in your browser - HTML5 player(in browser, HTML5)
Click here to listen with your own player(launches your MP3 player)

KABQ 221852Z 12008G18KT 10SM SCT150 17/M01 A3023 RMK AO2 SLP189 T01721006 $

KABQ Airport Info (Airnav.com)

KABQ Flight Activity (Flightaware)

Listeners: 0 out of 1904 total

Albuquerque Approach/Departure (N of V12): 127.400

KABQ Del/Gnd (Archives)
Albuquerque, New Mexico, United States

Feed Status: UP
Listen in your browser - HTML5 player(in browser, HTML5)
Click here to listen with your own player(launches your MP3 player)

KABQ 221852Z 12008G18KT 10SM SCT150 17/M01 A3023 RMK AO2 SLP189 T01721006 $

KABQ Airport Info (Airnav.com)

KABQ Flight Activity (Flightaware)

Listeners: 0 out of 1904 total

Albuquerque Clearance Delivery: 119.200
Albuquerque Ground: 121.900

KABQ Tower (Archives)
Albuquerque, New Mexico, United States

Feed Status: UP
Listen in your browser - HTML5 player(in browser, HTML5)
Click here to listen with your own player(launches your MP3 player)

KABQ 221852Z 12008G18KT 10SM SCT150 17/M01 A3023 RMK AO2 SLP189 T01721006 $

KABQ Airport Info (Airnav.com)

KABQ Flight Activity (Flightaware)

Listeners: 1 out of 1904 total

Albuquerque Tower: 120.300

KABQ Tower #2 (Archives)
Albuquerque, New Mexico, United States

Feed Status: UP
Listen in your browser - HTML5 player(in browser, HTML5)
Click here to listen with your own player(launches your MP3 player)

KABQ 221852Z 12008G18KT 10SM SCT150 17/M01 A3023 RMK AO2 SLP189 T01721006 $

KABQ Airport Info (Airnav.com)

KABQ Flight Activity (Flightaware)

Listeners: 0 out of 1904 total

Albuquerque Tower: 120.300

KABQ Twr/App/ZAB (Archives)
Albuquerque, New Mexico, United States

Feed Status: UP
Listen in your browser - HTML5 player(in browser, HTML5)
Click here to listen with your own player(launches your MP3 player)

KABQ 221852Z 12008G18KT 10SM SCT150 17/M01 A3023 RMK AO2 SLP189 T01721006 $

KABQ Airport Info (Airnav.com)

KABQ Flight Activity (Flightaware)

Listeners: 4 out of 1904 total

Albuquerque Approach (South): 126.300
Albuquerque Approach/Departure (N of V12): 127.400
Albuquerque Approach/Departure (S of V12): 123.900
Albuquerque Clearance Delivery: 119.200
Albuquerque Tower: 120.300
Albuquerque Tower (South): 123.775
Albuquerque UNICOM: 122.950
ZAB Albuquerque Center Sector 16 SAN-L: 132.800
ZAB Albuquerque Center Sector 17 LAVA-L: 124.325
ZAB Albuquerque Center Sector 94 CNX-LH: 133.650

KACY App/Dep (Archives)
Atlantic City, New Jersey, United States

Feed Status: UP
Listen in your browser - HTML5 player(in browser, HTML5)
Click here to listen with your own player(launches your MP3 player)

KACY 221854Z 18010KT 10SM CLR 29/21 A2999 RMK AO2 SLP155 T02890206

KACY Airport Info (Airnav.com)

KACY Flight Activity (Flightaware)

Listeners: 0 out of 1904 total

Atlantic City Approach/Departure: 124.600
Atlantic City Approach/Departure: 134.250
Atlantic City Approach/Departure: 385.500
Atlantic City Approach/Departure: 327.125

KACY ATIS (Archives)
Atlantic City, New Jersey, United States

Feed Status: UP
Listen in your browser - HTML5 player(in browser, HTML5)
Click here to listen with your own player(launches your MP3 player)

KACY 221854Z 18010KT 10SM CLR 29/21 A2999 RMK AO2 SLP155 T02890206

KACY Airport Info (Airnav.com)

KACY Flight Activity (Flightaware)

Listeners: 0 out of 1904 total

Atlantic City ATIS: 125.725

KACY Clearance Delivery (Archives)
Atlantic City, New Jersey, United States

Feed Status: UP
Listen in your browser - HTML5 player(in browser, HTML5)
Click here to listen with your own player(launches your MP3 player)

KACY 221854Z 18010KT 10SM CLR 29/21 A2999 RMK AO2 SLP155 T02890206

KACY Airport Info (Airnav.com)

KACY Flight Activity (Flightaware)

Listeners: 0 out of 1904 total

Atlantic City Clearance: 127.850

KACY GIANT KILLER (Archives)
Atlantic City, New Jersey, United States

Feed Status: UP
Listen in your browser - HTML5 player(in browser, HTML5)
Click here to listen with your own player(launches your MP3 player)

KACY 221854Z 18010KT 10SM CLR 29/21 A2999 RMK AO2 SLP155 T02890206

KACY Airport Info (Airnav.com)

KACY Flight Activity (Flightaware)

Listeners: 0 out of 1904 total

GIANT KILLER Common Area (Air-Air): 337.225
GIANT KILLER W-105/W-106 Check In/Out: 135.225
GIANT KILLER W-105/W-106 Check In/Out: 338.100
GIANT KILLER W-105/W-106 Common Area: 305.250
GIANT KILLER W-107 Check In/Out: 135.725
GIANT KILLER W-107 Check In/Out: 255.000
GIANT KILLER W-107 Common Area: 339.725
GIANT KILLER W-386 Common Area (A through F): 312.200
GIANT KILLER W-386 Common Area (G through J): 350.050
GIANT KILLER W-386 Common Area (K) and W-387 Common Area (All): 346.600
GIANT KILLER W-386/W-387 Check In/Out: 118.125
GIANT KILLER W-386/W-387 Check In/Out (Primary): 238.100
GIANT KILLER W-386/W-387 Check In/Out (Secondary): 249.800

KACY Ground (Archives)
Atlantic City, New Jersey, United States

Feed Status: UP
Listen in your browser - HTML5 player(in browser, HTML5)
Click here to listen with your own player(launches your MP3 player)

KACY 221854Z 18010KT 10SM CLR 29/21 A2999 RMK AO2 SLP155 T02890206

KACY Airport Info (Airnav.com)

KACY Flight Activity (Flightaware)

Listeners: 1 out of 1904 total

Atlantic City Ground: 121.900

KACY Tower (Archives)
Atlantic City, New Jersey, United States

Feed Status: UP
Listen in your browser - HTML5 player(in browser, HTML5)
Click here to listen with your own player(launches your MP3 player)

KACY 221854Z 18010KT 10SM CLR 29/21 A2999 RMK AO2 SLP155 T02890206

KACY Airport Info (Airnav.com)

KACY Flight Activity (Flightaware)

Listeners: 0 out of 1904 total

Atlantic City Tower: 120.300

KALB Approach/Departure (Archives)
Albany, New York, United States

Feed Status: UP
Listen in your browser - HTML5 player(in browser, HTML5)
Click here to listen with your own player(launches your MP3 player)

KALB 221851Z 19005KT 10SM SCT049 SCT070 SCT120 SCT200 32/18 A2989 RMK AO2 SLP120 T03220183

KALB Airport Info (Airnav.com)

KALB Flight Activity (Flightaware)

Listeners: 0 out of 1904 total

Albany Approach/Departure: 132.825
Albany Approach/Departure: 118.050
Albany Approach/Departure: 127.150

KALB ATIS (Archives)
Albany, New York, United States

Feed Status: UP
Listen in your browser - HTML5 player(in browser, HTML5)
Click here to listen with your own player(launches your MP3 player)

KALB 221851Z 19005KT 10SM SCT049 SCT070 SCT120 SCT200 32/18 A2989 RMK AO2 SLP120 T03220183

KALB Airport Info (Airnav.com)

KALB Flight Activity (Flightaware)

Listeners: 0 out of 1904 total

Albany ATIS: 120.450

KALB Ground (Archives)
Albany, New York, United States

Feed Status: UP
Listen in your browser - HTML5 player(in browser, HTML5)
Click here to listen with your own player(launches your MP3 player)

KALB 221851Z 19005KT 10SM SCT049 SCT070 SCT120 SCT200 32/18 A2989 RMK AO2 SLP120 T03220183

KALB Airport Info (Airnav.com)

KALB Flight Activity (Flightaware)

Listeners: 0 out of 1904 total

Albany Ground: 121.700

KALB Ground/Tower (Archives)
Albany, New York, United States

Feed Status: UP
Listen in your browser - HTML5 player(in browser, HTML5)
Click here to listen with your own player(launches your MP3 player)

KALB 221851Z 19005KT 10SM SCT049 SCT070 SCT120 SCT200 32/18 A2989 RMK AO2 SLP120 T03220183

KALB Airport Info (Airnav.com)

KALB Flight Activity (Flightaware)

Listeners: 0 out of 1904 total

Albany Ground: 121.700
Albany Tower: 119.500

KALB Tower (Archives)
Albany, New York, United States

Feed Status: UP
Listen in your browser - HTML5 player(in browser, HTML5)
Click here to listen with your own player(launches your MP3 player)

KALB 221851Z 19005KT 10SM SCT049 SCT070 SCT120 SCT200 32/18 A2989 RMK AO2 SLP120 T03220183

KALB Airport Info (Airnav.com)

KALB Flight Activity (Flightaware)

Listeners: 0 out of 1904 total

Albany Tower: 119.500

KAUG App/Center (Archives)
Augusta, Maine, United States

Feed Status: UP
Listen in your browser - HTML5 player(in browser, HTML5)
Click here to listen with your own player(launches your MP3 player)

KAUG 221853Z AUTO VRB04KT 10SM CLR 29/20 A2988 RMK AO2 SLP116 T02940200

KAUG Airport Info (Airnav.com)

KAUG Flight Activity (Flightaware)

Listeners: 0 out of 1904 total

Boston Center (Sector 02 Augusta High): 134.950
Emergency/Guard: 121.500
Portland Approach (Augusta): 128.350

KAUS App/Dep #1 (Archives)
Austin, Texas, United States

Feed Status: UP
Listen in your browser - HTML5 player(in browser, HTML5)
Click here to listen with your own player(launches your MP3 player)

KAUS 221853Z 06008G15KT 10SM FEW065 BKN200 24/16 A3015 RMK AO2 SLP201 T02440156

KAUS Airport Info (Airnav.com)

KAUS Flight Activity (Flightaware)

Listeners: 3 out of 1904 total

Austin Approach (Final): 125.325
Austin Approach (West): 119.000
Austin Approach/Departure (East): 127.225
Austin Approach/Departure (SE): 118.150
Austin Approach/Departure (South): 120.875

KAUS App/Dep #2 (Archives)
Austin, Texas, United States

Feed Status: UP
Listen in your browser - HTML5 player(in browser, HTML5)
Click here to listen with your own player(launches your MP3 player)

KAUS 221853Z 06008G15KT 10SM FEW065 BKN200 24/16 A3015 RMK AO2 SLP201 T02440156

KAUS Airport Info (Airnav.com)

KAUS Flight Activity (Flightaware)

Listeners: 0 out of 1904 total

Austin Approach (Final): 125.325
Austin Approach (West): 119.000
Austin Approach/Departure (East): 127.225
Austin Approach/Departure (South): 120.875

KAUS App/Dep #3
Austin, Texas, United States

Feed Status: DOWN
Offline since: 2022-05-16 13:37:22 UTC

KAUS 221853Z 06008G15KT 10SM FEW065 BKN200 24/16 A3015 RMK AO2 SLP201 T02440156

KAUS Airport Info (Airnav.com)

Austin Approach (Final): 125.325
Austin Approach/Departure (East): 127.225
Austin Approach/Departure (South): 120.875
Austin Approach/Depature (West): 119.000

KAUS App/Dep (East) #1 (Archives)
Austin, Texas, United States

Feed Status: UP
Listen in your browser - HTML5 player(in browser, HTML5)
Click here to listen with your own player(launches your MP3 player)

KAUS 221853Z 06008G15KT 10SM FEW065 BKN200 24/16 A3015 RMK AO2 SLP201 T02440156

KAUS Airport Info (Airnav.com)

KAUS Flight Activity (Flightaware)

Listeners: 0 out of 1904 total

Austin Approach/Departure (East): 127.225

KAUS App/Dep (East) #2 (Archives)
Austin, Texas, United States

Feed Status: UP
Listen in your browser - HTML5 player(in browser, HTML5)
Click here to listen with your own player(launches your MP3 player)

KAUS 221853Z 06008G15KT 10SM FEW065 BKN200 24/16 A3015 RMK AO2 SLP201 T02440156

KAUS Airport Info (Airnav.com)

KAUS Flight Activity (Flightaware)

Listeners: 0 out of 1904 total

Austin Approach/Departure (East): 127.225

KAUS App/Dep (SE) (Archives)
Austin, Texas, United States

Feed Status: UP
Listen in your browser - HTML5 player(in browser, HTML5)
Click here to listen with your own player(launches your MP3 player)

KAUS 221853Z 06008G15KT 10SM FEW065 BKN200 24/16 A3015 RMK AO2 SLP201 T02440156

KAUS Airport Info (Airnav.com)

KAUS Flight Activity (Flightaware)

Listeners: 0 out of 1904 total

Austin Approach/Departure (SE): 118.150

KAUS App/Dep (South) #1 (Archives)
Austin, Texas, United States

Feed Status: UP
Listen in your browser - HTML5 player(in browser, HTML5)
Click here to listen with your own player(launches your MP3 player)

KAUS 221853Z 06008G15KT 10SM FEW065 BKN200 24/16 A3015 RMK AO2 SLP201 T02440156

KAUS Airport Info (Airnav.com)

KAUS Flight Activity (Flightaware)

Listeners: 0 out of 1904 total

Austin Approach/Departure (South): 120.875

KAUS App/Dep (South) #2 (Archives)
Austin, Texas, United States

Feed Status: UP
Listen in your browser - HTML5 player(in browser, HTML5)
Click here to listen with your own player(launches your MP3 player)

KAUS 221853Z 06008G15KT 10SM FEW065 BKN200 24/16 A3015 RMK AO2 SLP201 T02440156

KAUS Airport Info (Airnav.com)

KAUS Flight Activity (Flightaware)

Listeners: 0 out of 1904 total

Austin Approach/Departure (South): 120.875

KAUS App/Dep (West) #1 (Archives)
Austin, Texas, United States

Feed Status: UP
Listen in your browser - HTML5 player(in browser, HTML5)
Click here to listen with your own player(launches your MP3 player)

KAUS 221853Z 06008G15KT 10SM FEW065 BKN200 24/16 A3015 RMK AO2 SLP201 T02440156

KAUS Airport Info (Airnav.com)

KAUS Flight Activity (Flightaware)

Listeners: 0 out of 1904 total

Austin Approach (West): 119.000

KAUS App/Dep (West) #2 (Archives)
Austin, Texas, United States

Feed Status: UP
Listen in your browser - HTML5 player(in browser, HTML5)
Click here to listen with your own player(launches your MP3 player)

KAUS 221853Z 06008G15KT 10SM FEW065 BKN200 24/16 A3015 RMK AO2 SLP201 T02440156

KAUS Airport Info (Airnav.com)

KAUS Flight Activity (Flightaware)

Listeners: 0 out of 1904 total

Austin Approach (West): 119.000

KAUS Approach (Final) #2 (Archives)
Austin, Texas, United States

Feed Status: UP
Listen in your browser - HTML5 player(in browser, HTML5)
Click here to listen with your own player(launches your MP3 player)

KAUS 221853Z 06008G15KT 10SM FEW065 BKN200 24/16 A3015 RMK AO2 SLP201 T02440156

KAUS Airport Info (Airnav.com)

KAUS Flight Activity (Flightaware)

Listeners: 0 out of 1904 total

Austin Approach (Final): 125.325

KAUS ATIS (Archives)
Austin, Texas, United States

Feed Status: UP
Listen in your browser - HTML5 player(in browser, HTML5)
Click here to listen with your own player(launches your MP3 player)

KAUS 221853Z 06008G15KT 10SM FEW065 BKN200 24/16 A3015 RMK AO2 SLP201 T02440156

KAUS Airport Info (Airnav.com)

KAUS Flight Activity (Flightaware)

Listeners: 0 out of 1904 total

Austin ATIS: 124.400

KAUS Clearance Delivery #1 (Archives)
Austin, Texas, United States

Feed Status: UP
Listen in your browser - HTML5 player(in browser, HTML5)
Click here to listen with your own player(launches your MP3 player)

KAUS 221853Z 06008G15KT 10SM FEW065 BKN200 24/16 A3015 RMK AO2 SLP201 T02440156

KAUS Airport Info (Airnav.com)

KAUS Flight Activity (Flightaware)

Listeners: 0 out of 1904 total

Austin Clearance Delivery: 125.500

KAUS Clearance Delivery #2 (Archives)
Austin, Texas, United States

Feed Status: UP
Listen in your browser - HTML5 player(in browser, HTML5)
Click here to listen with your own player(launches your MP3 player)

KAUS 221853Z 06008G15KT 10SM FEW065 BKN200 24/16 A3015 RMK AO2 SLP201 T02440156

KAUS Airport Info (Airnav.com)

KAUS Flight Activity (Flightaware)

Listeners: 0 out of 1904 total

Austin Clearance Delivery: 125.500

KAUS FBO (Atlantic Aviation) (Archives)
Austin, Texas, United States

Feed Status: UP
Listen in your browser - HTML5 player(in browser, HTML5)
Click here to listen with your own player(launches your MP3 player)

KAUS 221853Z 06008G15KT 10SM FEW065 BKN200 24/16 A3015 RMK AO2 SLP201 T02440156

KAUS Airport Info (Airnav.com)

KAUS Flight Activity (Flightaware)

Listeners: 0 out of 1904 total

Atlantic Aviation FBO: 130.225

KAUS FBO (Millionair) (Archives)
Austin, Texas, United States

Feed Status: UP
Listen in your browser - HTML5 player(in browser, HTML5)
Click here to listen with your own player(launches your MP3 player)

KAUS 221853Z 06008G15KT 10SM FEW065 BKN200 24/16 A3015 RMK AO2 SLP201 T02440156

KAUS Airport Info (Airnav.com)

KAUS Flight Activity (Flightaware)

Listeners: 0 out of 1904 total

Millionair FBO: 130.600

KAUS FBO (Signature) (Archives)
Austin, Texas, United States

Feed Status: UP
Listen in your browser - HTML5 player(in browser, HTML5)
Click here to listen with your own player(launches your MP3 player)

KAUS 221853Z 06008G15KT 10SM FEW065 BKN200 24/16 A3015 RMK AO2 SLP201 T02440156

KAUS Airport Info (Airnav.com)

KAUS Flight Activity (Flightaware)

Listeners: 0 out of 1904 total

Signature Aviation FBO: 130.375

KAUS Ground #1 (Archives)
Austin, Texas, United States

Feed Status: UP
Listen in your browser - HTML5 player(in browser, HTML5)
Click here to listen with your own player(launches your MP3 player)

KAUS 221853Z 06008G15KT 10SM FEW065 BKN200 24/16 A3015 RMK AO2 SLP201 T02440156

KAUS Airport Info (Airnav.com)

KAUS Flight Activity (Flightaware)

Listeners: 0 out of 1904 total

Austin Ground: 121.900

KAUS Ground #2 (Archives)
Austin, Texas, United States

Feed Status: UP
Listen in your browser - HTML5 player(in browser, HTML5)
Click here to listen with your own player(launches your MP3 player)

KAUS 221853Z 06008G15KT 10SM FEW065 BKN200 24/16 A3015 RMK AO2 SLP201 T02440156

KAUS Airport Info (Airnav.com)

KAUS Flight Activity (Flightaware)

Listeners: 0 out of 1904 total

Austin Ground: 121.900
Austin Ground (Backup): 121.700

KAUS Ground (Primary) #2 (Archives)
Austin, Texas, United States

Feed Status: UP
Listen in your browser - HTML5 player(in browser, HTML5)
Click here to listen with your own player(launches your MP3 player)

KAUS 221853Z 06008G15KT 10SM FEW065 BKN200 24/16 A3015 RMK AO2 SLP201 T02440156

KAUS Airport Info (Airnav.com)

KAUS Flight Activity (Flightaware)

Listeners: 0 out of 1904 total

Austin Ground: 121.900

KAUS Ground (Secondary) #1 (Archives)
Austin, Texas, United States

Feed Status: UP
Listen in your browser - HTML5 player(in browser, HTML5)
Click here to listen with your own player(launches your MP3 player)

KAUS 221853Z 06008G15KT 10SM FEW065 BKN200 24/16 A3015 RMK AO2 SLP201 T02440156

KAUS Airport Info (Airnav.com)

KAUS Flight Activity (Flightaware)

Listeners: 0 out of 1904 total

KAUS Ground (Secondary) #1: 121.700

KAUS Ground (Secondary) #2 (Archives)
Austin, Texas, United States

Feed Status: UP
Listen in your browser - HTML5 player(in browser, HTML5)
Click here to listen with your own player(launches your MP3 player)

KAUS 221853Z 06008G15KT 10SM FEW065 BKN200 24/16 A3015 RMK AO2 SLP201 T02440156

KAUS Airport Info (Airnav.com)

KAUS Flight Activity (Flightaware)

Listeners: 0 out of 1904 total

Austin Ground (Backup): 121.700

KAUS Tower #1 (Archives)
Austin, Texas, United States

Feed Status: UP
Listen in your browser - HTML5 player(in browser, HTML5)
Click here to listen with your own player(launches your MP3 player)

KAUS 221853Z 06008G15KT 10SM FEW065 BKN200 24/16 A3015 RMK AO2 SLP201 T02440156

KAUS Airport Info (Airnav.com)

KAUS Flight Activity (Flightaware)

Listeners: 3 out of 1904 total

Austin Tower: 121.000

KAUS Tower #2 (Archives)
Austin, Texas, United States

Feed Status: UP
Listen in your browser - HTML5 player(in browser, HTML5)
Click here to listen with your own player(launches your MP3 player)

KAUS 221853Z 06008G15KT 10SM FEW065 BKN200 24/16 A3015 RMK AO2 SLP201 T02440156

KAUS Airport Info (Airnav.com)

KAUS Flight Activity (Flightaware)

Listeners: 0 out of 1904 total

Austin Tower: 121.000
Austin Tower: 118.225

KAUS Tower #3
Austin, Texas, United States

Feed Status: DOWN
Offline since: 2022-05-16 13:37:22 UTC

KAUS 221853Z 06008G15KT 10SM FEW065 BKN200 24/16 A3015 RMK AO2 SLP201 T02440156

KAUS Airport Info (Airnav.com)

Austin Tower: 121.000

KAUS Tower (Main) #2 (Archives)
Austin, Texas, United States

Feed Status: UP
Listen in your browser - HTML5 player(in browser, HTML5)
Click here to listen with your own player(launches your MP3 player)

KAUS 221853Z 06008G15KT 10SM FEW065 BKN200 24/16 A3015 RMK AO2 SLP201 T02440156

KAUS Airport Info (Airnav.com)

KAUS Flight Activity (Flightaware)

Listeners: 0 out of 1904 total

Austin Tower: 121.000

KAUS Tower (Secondary) #1 (Archives)
Austin, Texas, United States

Feed Status: UP
Listen in your browser - HTML5 player(in browser, HTML5)
Click here to listen with your own player(launches your MP3 player)

KAUS 221853Z 06008G15KT 10SM FEW065 BKN200 24/16 A3015 RMK AO2 SLP201 T02440156

KAUS Airport Info (Airnav.com)

KAUS Flight Activity (Flightaware)

Listeners: 0 out of 1904 total

KAUS Tower (Secondary) #1: 118.225

KAUS Tower (Secondary) #2 (Archives)
Austin, Texas, United States

Feed Status: UP
Listen in your browser - HTML5 player(in browser, HTML5)
Click here to listen with your own player(launches your MP3 player)

KAUS 221853Z 06008G15KT 10SM FEW065 BKN200 24/16 A3015 RMK AO2 SLP201 T02440156

KAUS Airport Info (Airnav.com)

KAUS Flight Activity (Flightaware)

Listeners: 0 out of 1904 total

Austin Tower: 118.225

KAVL ATIS (Archives)
Asheville, North Carolina, United States

Feed Status: UP
Listen in your browser - HTML5 player(in browser, HTML5)
Click here to listen with your own player(launches your MP3 player)

KAVL 221854Z 21011KT 10SM CLR 27/17 A3019 RMK AO2 SLP195 T02720172

KAVL Airport Info (Airnav.com)

KAVL Flight Activity (Flightaware)

Listeners: 0 out of 1904 total

KAVL ATIS: 120.100

KAVL Gnd/Twr (Archives)
Asheville, North Carolina, United States

Feed Status: UP
Listen in your browser - HTML5 player(in browser, HTML5)
Click here to listen with your own player(launches your MP3 player)

KAVL 221854Z 21011KT 10SM CLR 27/17 A3019 RMK AO2 SLP195 T02720172

KAVL Airport Info (Airnav.com)

KAVL Flight Activity (Flightaware)

Listeners: 0 out of 1904 total

Asheville Ground: 121.900
Asheville Tower: 121.100

KAVL Gnd/Twr/App (Archives)
Asheville, North Carolina, United States

Feed Status: UP
Listen in your browser - HTML5 player(in browser, HTML5)
Click here to listen with your own player(launches your MP3 player)

KAVL 221854Z 21011KT 10SM CLR 27/17 A3019 RMK AO2 SLP195 T02720172

KAVL Airport Info (Airnav.com)

KAVL Flight Activity (Flightaware)

Listeners: 0 out of 1904 total

Asheville Approach/Departure: 124.650
Asheville Ground: 121.900
Asheville Tower/CTAF: 121.100
Signature Aviation (FBO): 130.275

KAVL Ground (Archives)
Asheville, North Carolina, United States

Feed Status: UP
Listen in your browser - HTML5 player(in browser, HTML5)
Click here to listen with your own player(launches your MP3 player)

KAVL 221854Z 21011KT 10SM CLR 27/17 A3019 RMK AO2 SLP195 T02720172

KAVL Airport Info (Airnav.com)

KAVL Flight Activity (Flightaware)

Listeners: 0 out of 1904 total

Asheville Ground: 121.900

KAVL Tower (Archives)
Asheville, North Carolina, United States

Feed Status: UP
Listen in your browser - HTML5 player(in browser, HTML5)
Click here to listen with your own player(launches your MP3 player)

KAVL 221854Z 21011KT 10SM CLR 27/17 A3019 RMK AO2 SLP195 T02720172

KAVL Airport Info (Airnav.com)

KAVL Flight Activity (Flightaware)

Listeners: 0 out of 1904 total

Asheville Tower: 121.100

KBTL/KAZO Gnd/Twr/App (Archives)
Kalamazoo, Michigan, United States

Feed Status: UP
Listen in your browser - HTML5 player(in browser, HTML5)
Click here to listen with your own player(launches your MP3 player)

KBTL Airport Info (Airnav.com)

KBTL Flight Activity (Flightaware)

Listeners: 0 out of 1904 total

Battle Creek Ground: 121.700
Battle Creek Tower: 126.825
Kalamazoo Approach/Departure: 119.200
Kalamazoo Ground: 121.900
Kalamazoo Tower: 118.300

KBDL Approach/ANG (Archives)
Windsor Locks, Connecticut, United States

Feed Status: UP
Listen in your browser - HTML5 player(in browser, HTML5)
Click here to listen with your own player(launches your MP3 player)

KBDL 221851Z 20006KT 10SM FEW055 SCT150 32/19 A2991 RMK AO2 SLP128 T03220194

KBDL Airport Info (Airnav.com)

KBDL Flight Activity (Flightaware)

Listeners: 3 out of 1904 total

Bradley Approach (South): 127.800
Bradley Approach (South): 269.325
Bradley Approach (Spare): 127.225
Bradley Approach/Departure (North): 125.350
Bradley Approach/Departure (North): 281.500
Bradley Approach/Departure (West): 123.950
Bradley Approach/Departure (West): 290.550
Bradley Departure (South): 327.100
Bradley Departure (South): 323.200
CT ANG FURY Ops: 41.900
CT ANG FURY Ops: 139.200
CT ANG FURY Ops: 139.400
CT ANG FURY Ops: 243.900
CT ANG FURY Ops: 265.600
CT ANG SHARK Ops: 138.550
CT ANG SHARK Ops: 349.700
Emergency/Guard: 121.500
Emergency/Guard: 243.000

KBDL ATIS (Archives)
Windsor Locks, Connecticut, United States

Feed Status: UP
Listen in your browser - HTML5 player(in browser, HTML5)
Click here to listen with your own player(launches your MP3 player)

KBDL 221851Z 20006KT 10SM FEW055 SCT150 32/19 A2991 RMK AO2 SLP128 T03220194

KBDL Airport Info (Airnav.com)

KBDL Flight Activity (Flightaware)

Listeners: 0 out of 1904 total

Bradley ATIS: 118.150

KBDL Del/Gnd (Archives)
Windsor Locks, Connecticut, United States

Feed Status: UP
Listen in your browser - HTML5 player(in browser, HTML5)
Click here to listen with your own player(launches your MP3 player)

KBDL 221851Z 20006KT 10SM FEW055 SCT150 32/19 A2991 RMK AO2 SLP128 T03220194

KBDL Airport Info (Airnav.com)

KBDL Flight Activity (Flightaware)

Listeners: 0 out of 1904 total

Bradley Clearance Delivery: 121.750
Bradley Ground: 121.900
Emergency/Guard: 121.500

KBDL Tower (Archives)
Windsor Locks, Connecticut, United States

Feed Status: UP
Listen in your browser - HTML5 player(in browser, HTML5)
Click here to listen with your own player(launches your MP3 player)

KBDL 221851Z 20006KT 10SM FEW055 SCT150 32/19 A2991 RMK AO2 SLP128 T03220194

KBDL Airport Info (Airnav.com)

KBDL Flight Activity (Flightaware)

Listeners: 0 out of 1904 total

Bradley Tower: 120.300

KBDL Twr/App (Archives)
Windsor Locks, Connecticut, United States

Feed Status: UP
Listen in your browser - HTML5 player(in browser, HTML5)
Click here to listen with your own player(launches your MP3 player)

KBDL 221851Z 20006KT 10SM FEW055 SCT150 32/19 A2991 RMK AO2 SLP128 T03220194

KBDL Airport Info (Airnav.com)

KBDL Flight Activity (Flightaware)

Listeners: 1 out of 1904 total

Bradley Approach (South): 127.800
Bradley Approach (South): 269.325
Bradley Approach (Spare): 127.225
Bradley Approach/Departure (North): 125.350
Bradley Approach/Departure (North): 281.500
Bradley Approach/Departure (West): 290.550
Bradley Approach/Departure (West): 123.950
Bradley Tower: 120.300
CT ANG FURY Ops: 41.900
CT ANG FURY Ops: 265.600
CT ANG FURY Ops: 243.900
CT ANG FURY Ops: 139.400
CT ANG FURY Ops: 139.200
CT ANG SHARK Ops: 349.700
CT ANG SHARK Ops: 138.550
Emergency/Guard: 243.000
Emergency/Guard: 121.500

KBFM ATIS (Archives)
Mobile, Alabama, United States

Feed Status: UP
Listen in your browser - HTML5 player(in browser, HTML5)
Click here to listen with your own player(launches your MP3 player)

KBFM 221853Z 13008KT 10SM FEW120 27/21 A3010 RMK AO2 SLP190 T02720206 $

KBFM Airport Info (Airnav.com)

KBFM Flight Activity (Flightaware)

Listeners: 0 out of 1904 total

Mobile Downtown ATIS: 135.575

KBGR App/Dep (Archives)
Bangor, Maine, United States

Feed Status: UP
Listen in your browser - HTML5 player(in browser, HTML5)
Click here to listen with your own player(launches your MP3 player)

KBGR 221853Z 18010KT 10SM FEW050 BKN250 26/19 A2987 RMK AO2 SLP112 CB DSNT N-NE HAZY T02560189

KBGR Airport Info (Airnav.com)

KBGR Flight Activity (Flightaware)

Listeners: 0 out of 1904 total

Bangor Approach: 118.925
Bangor Approach: 124.500
Bangor Approach: 133.600
Bangor Approach: 239.300

KBGR ATIS (Archives)
Bangor, Maine, United States

Feed Status: UP
Listen in your browser - HTML5 player(in browser, HTML5)
Click here to listen with your own player(launches your MP3 player)

KBGR 221853Z 18010KT 10SM FEW050 BKN250 26/19 A2987 RMK AO2 SLP112 CB DSNT N-NE HAZY T02560189

KBGR Airport Info (Airnav.com)

KBGR Flight Activity (Flightaware)

Listeners: 0 out of 1904 total

Bangor ATIS: 127.750

KBGR Del/Gnd/Twr (Archives)
Bangor, Maine, United States

Feed Status: UP
Listen in your browser - HTML5 player(in browser, HTML5)
Click here to listen with your own player(launches your MP3 player)

KBGR 221853Z 18010KT 10SM FEW050 BKN250 26/19 A2987 RMK AO2 SLP112 CB DSNT N-NE HAZY T02560189

KBGR Airport Info (Airnav.com)

KBGR Flight Activity (Flightaware)

Listeners: 0 out of 1904 total

Bangor Clearance Delivery: 135.900
Bangor Ground: 121.900
Bangor Tower: 120.700

KBHM Del/Gnd/Twr/App (Archives)
Birmingham, Alabama, United States

Feed Status: UP
Listen in your browser - HTML5 player(in browser, HTML5)
Click here to listen with your own player(launches your MP3 player)

KBHM 221853Z 18008KT 10SM BKN060 32/18 A3016 RMK AO2 SLP203 T03170178

KBHM Airport Info (Airnav.com)

KBHM Flight Activity (Flightaware)

Listeners: 2 out of 1904 total

Birmingham Approach/Departure: 127.675
Birmingham Approach/Departure: 123.800
Birmingham Clearance Delivery: 125.675
Birmingham Ground: 121.700
Birmingham Tower: 118.250
Birmingham Tower: 119.900

KBIL Approach (West) (Archives)
Billings, Montana, United States

Feed Status: UP
Listen in your browser - HTML5 player(in browser, HTML5)
Click here to listen with your own player(launches your MP3 player)

KBIL 221853Z 13009KT 10SM SCT050 SCT200 13/M01 A3016 RMK AO2 SLP221 T01281006 $

KBIL Airport Info (Airnav.com)

KBIL Flight Activity (Flightaware)

Listeners: 0 out of 1904 total

Billing Approach (West): 120.500

KBIL Ground (Archives)
Billings, Montana, United States

Feed Status: UP
Listen in your browser - HTML5 player(in browser, HTML5)
Click here to listen with your own player(launches your MP3 player)

KBIL 221853Z 13009KT 10SM SCT050 SCT200 13/M01 A3016 RMK AO2 SLP221 T01281006 $

KBIL Airport Info (Airnav.com)

KBIL Flight Activity (Flightaware)

Listeners: 0 out of 1904 total

Billings Ground: 121.900

KBIL Tower (Archives)
Billings, Montana, United States

Feed Status: UP
Listen in your browser - HTML5 player(in browser, HTML5)
Click here to listen with your own player(launches your MP3 player)

KBIL 221853Z 13009KT 10SM SCT050 SCT200 13/M01 A3016 RMK AO2 SLP221 T01281006 $

KBIL Airport Info (Airnav.com)

KBIL Flight Activity (Flightaware)

Listeners: 1 out of 1904 total

Billings Tower: 127.200

KBNA App/Dep (Archives)
Nashville, Tennessee, United States

Feed Status: UP
Listen in your browser - HTML5 player(in browser, HTML5)
Click here to listen with your own player(launches your MP3 player)

KBNA 221902Z 01007KT 10SM FEW020 BKN048 OVC070 24/17 A3022 RMK AO2 T02440167 $

KBNA Airport Info (Airnav.com)

KBNA Flight Activity (Flightaware)

Listeners: 3 out of 1904 total

Nashville App/Dep (East): 118.400
Nashville App/Dep (West): 119.350
Nashville Approach (Final): 124.750

KBNA App/Dep (East) (Archives)
Nashville, Tennessee, United States

Feed Status: UP
Listen in your browser - HTML5 player(in browser, HTML5)
Click here to listen with your own player(launches your MP3 player)

KBNA 221902Z 01007KT 10SM FEW020 BKN048 OVC070 24/17 A3022 RMK AO2 T02440167 $

KBNA Airport Info (Airnav.com)

KBNA Flight Activity (Flightaware)

Listeners: 0 out of 1904 total

Nashville App/Dep (East): 118.400

KBNA Gnd/Twr (Archives)
Nashville, Tennessee, United States

Feed Status: UP
Listen in your browser - HTML5 player(in browser, HTML5)
Click here to listen with your own player(launches your MP3 player)

KBNA 221902Z 01007KT 10SM FEW020 BKN048 OVC070 24/17 A3022 RMK AO2 T02440167 $

KBNA Airport Info (Airnav.com)

KBNA Flight Activity (Flightaware)

Listeners: 0 out of 1904 total

Nashville Ground: 121.900
Nashville Tower: 118.600

KBOI Del/Gnd (Archives)
Boise, Idaho, United States

Feed Status: UP
Listen in your browser - HTML5 player(in browser, HTML5)
Click here to listen with your own player(launches your MP3 player)

KBOI 221853Z 30013G21KT 10SM CLR 17/M02 A3015 RMK AO2 SLP200 T01721017 $

KBOI Airport Info (Airnav.com)

KBOI Flight Activity (Flightaware)

Listeners: 1 out of 1904 total

Boise Clearance Delivery: 125.900
Boise Ground: 121.700

KBOI Twr/App (Archives)
Boise, Idaho, United States

Feed Status: UP
Listen in your browser - HTML5 player(in browser, HTML5)
Click here to listen with your own player(launches your MP3 player)

KBOI 221853Z 30013G21KT 10SM CLR 17/M02 A3015 RMK AO2 SLP200 T01721017 $

KBOI Airport Info (Airnav.com)

KBOI Flight Activity (Flightaware)

Listeners: 5 out of 1904 total

Boise Approach/Departure (North): 126.900
Boise Approach/Departure (South): 119.600
Boise Tower: 118.100

KBTL/KAZO Gnd/Twr/App (Archives)
Battle Creek, Michigan, United States

Feed Status: UP
Listen in your browser - HTML5 player(in browser, HTML5)
Click here to listen with your own player(launches your MP3 player)

KBTL Airport Info (Airnav.com)

KBTL Flight Activity (Flightaware)

Listeners: 0 out of 1904 total

Battle Creek Ground: 121.700
Battle Creek Tower: 126.825
Kalamazoo Approach/Departure: 119.200
Kalamazoo Ground: 121.900
Kalamazoo Tower: 118.300

KBTR/KHZR/L38 Del/Gnd/Twr/App/CTAF (Archives)
Baton Rouge, Louisiana, United States

Feed Status: UP
Listen in your browser - HTML5 player(in browser, HTML5)
Click here to listen with your own player(launches your MP3 player)

KBTR 221853Z 32007KT 10SM FEW030 BKN035 OVC048 28/22 A3005 RMK AO2 SLP176 T02830222

KBTR Airport Info (Airnav.com)

KBTR Flight Activity (Flightaware)

Listeners: 0 out of 1904 total

Baton Rouge Approach/Departure (East): 126.500
Baton Rouge Approach/Departure (Military): 278.300
Baton Rouge Approach/Departure (West): 120.300
Baton Rouge Clearance Delivery: 119.400
Baton Rouge Ground: 121.900
Baton Rouge Tower (Military): 257.800
Baton Rouge Tower/CTAF: 118.450
Baton Rouge UNICOM: 122.950
Houston Center (App/Dep when Approach closed): 338.250
Houston Center (App/Dep when Approach closed): 126.350
Louisiana Regional L38 CTAF: 123.000
United Airlines: 129.925

KBTV App/Dep (Archives)
Burlington, Vermont, United States

Feed Status: UP
Listen in your browser - HTML5 player(in browser, HTML5)
Click here to listen with your own player(launches your MP3 player)

KBTV 221854Z 23006KT 10SM FEW050 BKN080 29/18 A2986 RMK AO2 SLP108 T02890183 $

KBTV Airport Info (Airnav.com)

KBTV Flight Activity (Flightaware)

Listeners: 0 out of 1904 total

Burlington Approach/Departure: 278.800
Burlington Approach/Departure: 121.100

KBTV ATIS (Archives)
Burlington, Vermont, United States

Feed Status: UP
Listen in your browser - HTML5 player(in browser, HTML5)
Click here to listen with your own player(launches your MP3 player)

KBTV 221854Z 23006KT 10SM FEW050 BKN080 29/18 A2986 RMK AO2 SLP108 T02890183 $

KBTV Airport Info (Airnav.com)

KBTV Flight Activity (Flightaware)

Listeners: 0 out of 1904 total

Burlington ATIS: 123.800

KBTV Del/Gnd/Twr (Archives)
Burlington, Vermont, United States

Feed Status: UP
Listen in your browser - HTML5 player(in browser, HTML5)
Click here to listen with your own player(launches your MP3 player)

KBTV 221854Z 23006KT 10SM FEW050 BKN080 29/18 A2986 RMK AO2 SLP108 T02890183 $

KBTV Airport Info (Airnav.com)

KBTV Flight Activity (Flightaware)

Listeners: 0 out of 1904 total

Burlington Clearance Delivery: 119.150
Burlington Ground: 126.300
Burlington Ground: 348.600
Burlington Tower: 118.300
Burlington Tower: 257.800

KBTV Del/Gnd/Twr/App (Archives)
Burlington, Vermont, United States

Feed Status: UP
Listen in your browser - HTML5 player(in browser, HTML5)
Click here to listen with your own player(launches your MP3 player)

KBTV 221854Z 23006KT 10SM FEW050 BKN080 29/18 A2986 RMK AO2 SLP108 T02890183 $

KBTV Airport Info (Airnav.com)

KBTV Flight Activity (Flightaware)

Listeners: 1 out of 1904 total

Burlington Approach/Departure: 278.800
Burlington Approach/Departure: 121.100
Burlington Clearance Delivery: 119.150
Burlington Ground: 126.300
Burlington Ground: 348.600
Burlington Tower: 257.800
Burlington Tower: 118.300

KBTV Twr/App (Archives)
Burlington, Vermont, United States

Feed Status: UP
Listen in your browser - HTML5 player(in browser, HTML5)
Click here to listen with your own player(launches your MP3 player)

KBTV 221854Z 23006KT 10SM FEW050 BKN080 29/18 A2986 RMK AO2 SLP108 T02890183 $

KBTV Airport Info (Airnav.com)

KBTV Flight Activity (Flightaware)

Listeners: 0 out of 1904 total

Burlington Approach/Departure: 121.100
Burlington Tower: 118.300

KBUF Gnd/Twr/App (Archives)
Buffalo, New York, United States

Feed Status: UP
Listen in your browser - HTML5 player(in browser, HTML5)
Click here to listen with your own player(launches your MP3 player)

KBUF 221854Z 27003KT 3SM -RA BR BKN006 BKN012 OVC024 12/11 A3012 RMK AO2 SLP200 P0004 T01170106 $

KBUF Airport Info (Airnav.com)

KBUF Flight Activity (Flightaware)

Listeners: 1 out of 1904 total

Buffalo Approach: 126.150
Buffalo Approach: 126.500
Buffalo Ground: 133.200
Buffalo Tower: 120.500

KBUR Gnd/Twr/App (Archives)
Burbank, California, United States

Feed Status: UP
Listen in your browser - HTML5 player(in browser, HTML5)
Click here to listen with your own player(launches your MP3 player)

KBUR 221853Z 17003KT 10SM CLR 22/11 A2999 RMK AO2 SLP145 T02220106

KBUR Airport Info (Airnav.com)

KBUR Flight Activity (Flightaware)

Listeners: 0 out of 1904 total

KBUR Ground: 123.900
KBUR Tower: 118.700
SOCAL Approach (Moorpark Sector): 128.750
SOCAL Approach (Valley Sector): 124.600
SOCAL Approach (Woodland Sector): 134.200

KBUR Ground/Tower
Burbank, California, United States

Feed Status: DOWN
Offline since: 2021-11-15 22:47:05 UTC

KBUR 221853Z 17003KT 10SM CLR 22/11 A2999 RMK AO2 SLP145 T02220106

KBUR Airport Info (Airnav.com)

KBUR Ground: 123.900
KBUR Tower: 118.700

KCAE Gnd/Twr/App (Archives)
Columbia, South Carolina, United States

Feed Status: UP
Listen in your browser - HTML5 player(in browser, HTML5)
Click here to listen with your own player(launches your MP3 player)

KCAE 221856Z 21009KT 10SM SCT043 SCT080 BKN150 31/19 A3015 RMK AO2 SLP208 T03060194 $

KCAE Airport Info (Airnav.com)

KCAE Flight Activity (Flightaware)

Listeners: 0 out of 1904 total

Columbia Approach/Departure: 338.200
Columbia Approach/Departure: 285.600
Columbia Approach/Departure: 124.150
Columbia Approach/Departure: 133.400
Columbia Clearance Delivery: 119.750
Columbia Ground: 348.600
Columbia Ground: 121.900
Columbia Tower: 257.800
Columbia Tower: 119.500
Emergency/Guard: 121.500
Emergency/Guard: 243.000

KCAK App/Dep (Archives)
Akron, Ohio, United States

Feed Status: UP
Listen in your browser - HTML5 player(in browser, HTML5)
Click here to listen with your own player(launches your MP3 player)

KCAK 221924Z 36007KT 10SM BKN012 BKN065 15/12 A3018 RMK AO2 T01500117 $

KCAK Airport Info (Airnav.com)

KCAK Flight Activity (Flightaware)

Listeners: 0 out of 1904 total

Akron-Canton Approach (Final): 126.400
Akron-Canton Approach/Departure: 118.600
Akron-Canton Approach/Departure: 125.500
Akron-Canton Approach/Departure (backup): 127.050

KCAK Del/Gnd/Twr (Archives)
Akron, Ohio, United States

Feed Status: UP
Listen in your browser - HTML5 player(in browser, HTML5)
Click here to listen with your own player(launches your MP3 player)

KCAK 221924Z 36007KT 10SM BKN012 BKN065 15/12 A3018 RMK AO2 T01500117 $

KCAK Airport Info (Airnav.com)

KCAK Flight Activity (Flightaware)

Listeners: 0 out of 1904 total

Akron-Canton Clearance: 132.050
Akron-Canton Ground: 121.700
Akron-Canton Tower: 134.750
Emergency/Guard: 121.500

KCAK Del/Gnd/Twr/App (Archives)
Akron, Ohio, United States

Feed Status: UP
Listen in your browser - HTML5 player(in browser, HTML5)
Click here to listen with your own player(launches your MP3 player)

KCAK 221924Z 36007KT 10SM BKN012 BKN065 15/12 A3018 RMK AO2 T01500117 $

KCAK Airport Info (Airnav.com)

KCAK Flight Activity (Flightaware)

Listeners: 1 out of 1904 total

Akron-Canton Approach: 118.600
Akron-Canton Approach: 125.500
Akron-Canton Clearance: 132.050
Akron-Canton Departure: 126.400
Akron-Canton Ground: 121.700
Akron-Canton Tower: 134.750
Emergency/Guard: 121.500

KCHA Twr/App (Archives)
Chattanooga, Tennessee, United States

Feed Status: UP
Listen in your browser - HTML5 player(in browser, HTML5)
Click here to listen with your own player(launches your MP3 player)

KCHA 221853Z 35005KT 10SM SCT038 SCT049 SCT150 BKN250 32/18 A3014 RMK AO2 SLP195 T03170178 $

KCHA Airport Info (Airnav.com)

KCHA Flight Activity (Flightaware)

Listeners: 0 out of 1904 total

Chattanooga Approach/Departure: 119.200
Chattanooga Approach/Departure: 125.100
Chattanooga Tower: 118.300

KCHS Gnd/Twr/App (Archives)
Charleston, South Carolina, United States

Feed Status: UP
Listen in your browser - HTML5 player(in browser, HTML5)
Click here to listen with your own player(launches your MP3 player)

KCHS 221856Z 15005KT 10SM FEW005 FEW048 SCT130 OVC200 23/21 A3023 RMK AO2 LTG DSNT SE RAE27 SLP235 CB DSNT SE P0005 T02280206

KCHS Airport Info (Airnav.com)

KCHS Flight Activity (Flightaware)

Listeners: 2 out of 1904 total

Charleston Approach/Departure: 306.925
Charleston Approach/Departure: 120.700
Charleston Approach/Departure: 379.925
Charleston Approach/Departure: 119.300
Charleston Ground: 121.900
Charleston Ground: 348.600
Charleston Tower: 239.000
Charleston Tower: 126.000
Emergency/Guard: 121.500
Emergency/Guard: 243.000

KCID Del/Gnd/Twr/App
Cedar Rapids, Iowa, United States

Feed Status: DOWN
Offline since: 2021-07-12 14:52:05 UTC

KCID 221852Z 34015G28KT 10SM FEW070 17/00 A3032 RMK AO2 PK WND 31028/1848 SLP269 T01720000

KCID Airport Info (Airnav.com)

Cedar Rapids Approach (North): 134.050
Cedar Rapids Approach (South): 119.700
Cedar Rapids Clearance Delivery: 125.450
Cedar Rapids Ground: 121.600
Cedar Rapids Tower: 118.700

KCID Gnd/Twr/App/KIOW (Archives)
Cedar Rapids, Iowa, United States

Feed Status: UP
Listen in your browser - HTML5 player(in browser, HTML5)
Click here to listen with your own player(launches your MP3 player)

KCID 221852Z 34015G28KT 10SM FEW070 17/00 A3032 RMK AO2 PK WND 31028/1848 SLP269 T01720000

KCID Airport Info (Airnav.com)

KCID Flight Activity (Flightaware)

Listeners: 0 out of 1904 total

Cedar Rapids Approach (091-269): 119.700
Cedar Rapids Approach (270-090): 134.050
Cedar Rapids Clearance Delivery: 125.450
Cedar Rapids Ground (0500-2330): 121.600
Cedar Rapids Tower (0500-2330): 118.700
UNICOM C17 (Marion) and surrounding area: 122.700
UNICOM IA24 Green Castle: 122.900
UNICOM KIOW (Iowa City) and surrounding area: 122.800

KCMH App/Dep
Columbus, Ohio, United States

Feed Status: DOWN
Offline since: 2022-05-18 16:52:05 UTC

KCMH 221851Z 34010KT 10SM FEW032 BKN065 BKN095 19/13 A3020 RMK AO2 SLP222 T01940133

KCMH Airport Info (Airnav.com)

Columbus Approach: 125.950
Columbus Approach (Backup): 119.650
Columbus Approach (Backup): 118.200
Columbus Approach (Backup): 118.000
Columbus Approach (South Satellite): 132.300
Columbus Approach (South): 134.000
Columbus Approach/Departure (North): 125.950

KCMH App/Dep (118.0) (Archives)
Columbus, Ohio, United States

Feed Status: UP
Listen in your browser - HTML5 player(in browser, HTML5)
Click here to listen with your own player(launches your MP3 player)

KCMH 221851Z 34010KT 10SM FEW032 BKN065 BKN095 19/13 A3020 RMK AO2 SLP222 T01940133

KCMH Airport Info (Airnav.com)

KCMH Flight Activity (Flightaware)

Listeners: 0 out of 1904 total

Columbus Approach (Backup): 118.000

KCMH App/Dep (118.2) (Archives)
Columbus, Ohio, United States

Feed Status: UP
Listen in your browser - HTML5 player(in browser, HTML5)
Click here to listen with your own player(launches your MP3 player)

KCMH 221851Z 34010KT 10SM FEW032 BKN065 BKN095 19/13 A3020 RMK AO2 SLP222 T01940133

KCMH Airport Info (Airnav.com)

KCMH Flight Activity (Flightaware)

Listeners: 0 out of 1904 total

Columbus Approach (Backup): 118.200

KCMH App/Dep (119.65) (Archives)
Columbus, Ohio, United States

Feed Status: UP
Listen in your browser - HTML5 player(in browser, HTML5)
Click here to listen with your own player(launches your MP3 player)

KCMH 221851Z 34010KT 10SM FEW032 BKN065 BKN095 19/13 A3020 RMK AO2 SLP222 T01940133

KCMH Airport Info (Airnav.com)

KCMH Flight Activity (Flightaware)

Listeners: 0 out of 1904 total

Columbus Approach (Backup): 119.650

KCMH App/Dep (120.2) (Archives)
Columbus, Ohio, United States

Feed Status: UP
Listen in your browser - HTML5 player(in browser, HTML5)
Click here to listen with your own player(launches your MP3 player)

KCMH 221851Z 34010KT 10SM FEW032 BKN065 BKN095 19/13 A3020 RMK AO2 SLP222 T01940133

KCMH Airport Info (Airnav.com)

KCMH Flight Activity (Flightaware)

Listeners: 0 out of 1904 total

Columbus Approach (North Satellite): 120.200

KCMH App/Dep (125.95) (Archives)
Columbus, Ohio, United States

Feed Status: UP
Listen in your browser - HTML5 player(in browser, HTML5)
Click here to listen with your own player(launches your MP3 player)

KCMH 221851Z 34010KT 10SM FEW032 BKN065 BKN095 19/13 A3020 RMK AO2 SLP222 T01940133

KCMH Airport Info (Airnav.com)

KCMH Flight Activity (Flightaware)

Listeners: 0 out of 1904 total

Columbus Approach/Departure (North): 125.950

KCMH App/Dep (132.3) (Archives)
Columbus, Ohio, United States

Feed Status: UP
Listen in your browser - HTML5 player(in browser, HTML5)
Click here to listen with your own player(launches your MP3 player)

KCMH 221851Z 34010KT 10SM FEW032 BKN065 BKN095 19/13 A3020 RMK AO2 SLP222 T01940133

KCMH Airport Info (Airnav.com)

KCMH Flight Activity (Flightaware)

Listeners: 0 out of 1904 total


KCMH App/Dep (134.0) (Archives)
Columbus, Ohio, United States

Feed Status: UP
Listen in your browser - HTML5 player(in browser, HTML5)
Click here to listen with your own player(launches your MP3 player)

KCMH 221851Z 34010KT 10SM FEW032 BKN065 BKN095 19/13 A3020 RMK AO2 SLP222 T01940133

KCMH Airport Info (Airnav.com)

KCMH Flight Activity (Flightaware)

Listeners: 0 out of 1904 total

Columbus Approach (South): 134.000

KCMH App/Dep (South/UHF) (Archives)
Columbus, Ohio, United States

Feed Status: UP
Listen in your browser - HTML5 player(in browser, HTML5)
Click here to listen with your own player(launches your MP3 player)

KCMH 221851Z 34010KT 10SM FEW032 BKN065 BKN095 19/13 A3020 RMK AO2 SLP222 T01940133

KCMH Airport Info (Airnav.com)

KCMH Flight Activity (Flightaware)

Listeners: 0 out of 1904 total

Columbus Approach/Departure (South/Mil): 279.600

KCMH ATIS #1 (Archives)
Columbus, Ohio, United States

Feed Status: UP
Listen in your browser - HTML5 player(in browser, HTML5)
Click here to listen with your own player(launches your MP3 player)

KCMH 221851Z 34010KT 10SM FEW032 BKN065 BKN095 19/13 A3020 RMK AO2 SLP222 T01940133

KCMH Airport Info (Airnav.com)

KCMH Flight Activity (Flightaware)

Listeners: 0 out of 1904 total

Columbus ATIS: 124.600

KCMH ATIS #2
Columbus, Ohio, United States

Feed Status: DOWN
Offline since: 2022-05-18 10:06:22 UTC

KCMH 221851Z 34010KT 10SM FEW032 BKN065 BKN095 19/13 A3020 RMK AO2 SLP222 T01940133

KCMH Airport Info (Airnav.com)

Columbus ATIS: 124.600

KCMH Clearance Delivery #1 (Archives)
Columbus, Ohio, United States

Feed Status: UP
Listen in your browser - HTML5 player(in browser, HTML5)
Click here to listen with your own player(launches your MP3 player)

KCMH 221851Z 34010KT 10SM FEW032 BKN065 BKN095 19/13 A3020 RMK AO2 SLP222 T01940133

KCMH Airport Info (Airnav.com)

KCMH Flight Activity (Flightaware)

Listeners: 0 out of 1904 total

Columbus Clearance Delivery: 126.300

KCMH Clearance Delivery #2
Columbus, Ohio, United States

Feed Status: DOWN
Offline since: 2022-05-18 10:30:21 UTC

KCMH 221851Z 34010KT 10SM FEW032 BKN065 BKN095 19/13 A3020 RMK AO2 SLP222 T01940133

KCMH Airport Info (Airnav.com)

Columbus Clearance Delivery: 126.300

KCMH De-Ice (Archives)
Columbus, Ohio, United States

Feed Status: UP
Listen in your browser - HTML5 player(in browser, HTML5)
Click here to listen with your own player(launches your MP3 player)

KCMH 221851Z 34010KT 10SM FEW032 BKN065 BKN095 19/13 A3020 RMK AO2 SLP222 T01940133

KCMH Airport Info (Airnav.com)

KCMH Flight Activity (Flightaware)

Listeners: 0 out of 1904 total

Columbus De-Ice: 122.775

KCMH Del/Gnd/Twr
Columbus, Ohio, United States

Feed Status: DOWN
Offline since: 2022-05-18 16:34:21 UTC

KCMH 221851Z 34010KT 10SM FEW032 BKN065 BKN095 19/13 A3020 RMK AO2 SLP222 T01940133

KCMH Airport Info (Airnav.com)

Columbus Clearance Delivery: 126.300
Columbus Ground: 121.900
Columbus Tower: 132.700
Columbus Tower: 257.800

KCMH Emergency/Guard #1 (Archives)
Columbus, Ohio, United States

Feed Status: UP
Listen in your browser - HTML5 player(in browser, HTML5)
Click here to listen with your own player(launches your MP3 player)

KCMH 221851Z 34010KT 10SM FEW032 BKN065 BKN095 19/13 A3020 RMK AO2 SLP222 T01940133

KCMH Airport Info (Airnav.com)

KCMH Flight Activity (Flightaware)

Listeners: 0 out of 1904 total

Emergency/Guard: 121.500

KCMH Emergency/Guard #2
Columbus, Ohio, United States

Feed Status: DOWN
Offline since: 2022-05-18 16:56:05 UTC

KCMH 221851Z 34010KT 10SM FEW032 BKN065 BKN095 19/13 A3020 RMK AO2 SLP222 T01940133

KCMH Airport Info (Airnav.com)

Emergency/Guard: 121.500

KCMH Ground #1 (Archives)
Columbus, Ohio, United States

Feed Status: UP
Listen in your browser - HTML5 player(in browser, HTML5)
Click here to listen with your own player(launches your MP3 player)

KCMH 221851Z 34010KT 10SM FEW032 BKN065 BKN095 19/13 A3020 RMK AO2 SLP222 T01940133

KCMH Airport Info (Airnav.com)

KCMH Flight Activity (Flightaware)

Listeners: 0 out of 1904 total

Columbus Ground: 121.900

KCMH Ground #2
Columbus, Ohio, United States

Feed Status: DOWN
Offline since: 2022-05-18 16:52:39 UTC

KCMH 221851Z 34010KT 10SM FEW032 BKN065 BKN095 19/13 A3020 RMK AO2 SLP222 T01940133

KCMH Airport Info (Airnav.com)

Columbus Ground: 121.900

KCMH Tower #1 (Archives)
Columbus, Ohio, United States

Feed Status: UP
Listen in your browser - HTML5 player(in browser, HTML5)
Click here to listen with your own player(launches your MP3 player)

KCMH 221851Z 34010KT 10SM FEW032 BKN065 BKN095 19/13 A3020 RMK AO2 SLP222 T01940133

KCMH Airport Info (Airnav.com)

KCMH Flight Activity (Flightaware)

Listeners: 0 out of 1904 total

Columbus Tower: 132.700

KCMH Tower #2 (Archives)
Columbus, Ohio, United States

Feed Status: UP
Listen in your browser - HTML5 player(in browser, HTML5)
Click here to listen with your own player(launches your MP3 player)

KCMH 221851Z 34010KT 10SM FEW032 BKN065 BKN095 19/13 A3020 RMK AO2 SLP222 T01940133

KCMH Airport Info (Airnav.com)

KCMH Flight Activity (Flightaware)

Listeners: 0 out of 1904 total

Columbus Tower: 132.700
Columbus Tower: 257.800

KCMH Twr/App/Dep
Columbus, Ohio, United States

Feed Status: DOWN
Offline since: 2022-05-18 16:34:22 UTC

KCMH 221851Z 34010KT 10SM FEW032 BKN065 BKN095 19/13 A3020 RMK AO2 SLP222 T01940133

KCMH Airport Info (Airnav.com)

Columbus Approach: 125.950
Columbus Approach (Backup): 118.000
Columbus Approach (Backup): 118.200
Columbus Approach (Backup): 119.650
Columbus Approach (South Satellite): 132.300
Columbus Approach (South): 134.000
Columbus Approach/Departure (North): 125.950
Columbus Tower: 132.700
Columbus Tower: 257.800

KCMI App/Dep
Champaign/Urbana, Illinois, United States

Feed Status: DOWN
Offline since: 2022-05-22 19:35:39 UTC

KCMI 221853Z 01015G20KT 10SM CLR 16/05 A3031 RMK AO2 SLP265 T01610050 $

KCMI Airport Info (Airnav.com)

Champaign Approach/Departure: 121.350

KCMI Tower
Champaign/Urbana, Illinois, United States

Feed Status: DOWN
Offline since: 2022-05-22 19:35:39 UTC

KCMI 221853Z 01015G20KT 10SM CLR 16/05 A3031 RMK AO2 SLP265 T01610050 $

KCMI Airport Info (Airnav.com)

Champaign Tower: 120.400

KCOS Gnd/Twr/App/Dep (Archives)
Colorado Springs, Colorado, United States

Feed Status: UP
Listen in your browser - HTML5 player(in browser, HTML5)
Click here to listen with your own player(launches your MP3 player)

KCOS 221854Z 17010KT 7SM -SN BKN006 BKN010 OVC016 03/01 A3029 RMK AO2 SLP270 P0000 T00330006 $

KCOS Airport Info (Airnav.com)

KCOS Flight Activity (Flightaware)

Listeners: 3 out of 1904 total

Springs Approach/Departure: 120.600
Springs Approach/Departure (East): 124.000
Springs Ground: 121.700
Springs Tower: 119.900
Springs Tower (East): 133.150

KCRP App/Dep (Archives)
Corpus Christi, Texas, United States

Feed Status: UP
Listen in your browser - HTML5 player(in browser, HTML5)
Click here to listen with your own player(launches your MP3 player)

KCRP 221851Z 11014KT 10SM FEW015 FEW160 BKN200 OVC250 26/21 A3007 RMK AO2 PK WND 06026/1811 SLP183 T02560206

KCRP Airport Info (Airnav.com)

KCRP Flight Activity (Flightaware)

Listeners: 0 out of 1904 total

Corpus Christi Approach: 120.900
Corpus Christi Approach: 124.800
Emergency/Guard: 121.500

KCRP Del/Gnd/Twr (Archives)
Corpus Christi, Texas, United States

Feed Status: UP
Listen in your browser - HTML5 player(in browser, HTML5)
Click here to listen with your own player(launches your MP3 player)

KCRP 221851Z 11014KT 10SM FEW015 FEW160 BKN200 OVC250 26/21 A3007 RMK AO2 PK WND 06026/1811 SLP183 T02560206

KCRP Airport Info (Airnav.com)

KCRP Flight Activity (Flightaware)

Listeners: 0 out of 1904 total

Corpus Christi Clearance Delivery: 118.550
Corpus Christi Ground: 121.900
Corpus Christi Tower: 119.400

KCRW Tower/Approach (Archives)
Charleston, West Virginia, United States

Feed Status: UP
Listen in your browser - HTML5 player(in browser, HTML5)
Click here to listen with your own player(launches your MP3 player)

KCRW 221854Z VRB05G16KT 10SM BKN027 BKN036 BKN085 26/18 A3014 RMK AO2 SLP198 T02610183

KCRW Airport Info (Airnav.com)

KCRW Flight Activity (Flightaware)

Listeners: 1 out of 1904 total

Charleston Approach/Departure: 128.500
Charleston Approach/Departure (North): 124.100
Charleston Approach/Departure (South): 119.200
Charleston Clearance Delivery: 118.550
Charleston Ground: 121.800
Charleston Tower: 125.700
Emergency/Guard: 121.500

KDAB App/Dep (Archives)
Daytona Beach, Florida, United States

Feed Status: UP
Listen in your browser - HTML5 player(in browser, HTML5)
Click here to listen with your own player(launches your MP3 player)

KDAB 221853Z 17012KT 10SM FEW025 SCT033 BKN043 32/23 A3019 RMK AO2 SLP223 T03170228

KDAB Airport Info (Airnav.com)

KDAB Flight Activity (Flightaware)

Listeners: 0 out of 1904 total

Daytona Approach (East/Low): 123.900
Daytona Approach (North/High): 118.850
Daytona Approach (South/High): 127.075
Daytona Approach (West 8000-10000'): 125.725
Daytona Approach (West SFC-3500): 126.550
Daytona Approach/Departure (South): 125.350

KDAB App/Dep (All) (Archives)
Daytona Beach, Florida, United States

Feed Status: UP
Listen in your browser - HTML5 player(in browser, HTML5)
Click here to listen with your own player(launches your MP3 player)

KDAB 221853Z 17012KT 10SM FEW025 SCT033 BKN043 32/23 A3019 RMK AO2 SLP223 T03170228

KDAB Airport Info (Airnav.com)

KDAB Flight Activity (Flightaware)

Listeners: 0 out of 1904 total

Daytona Approach (East/Low): 123.900
Daytona Approach (North/High): 118.850
Daytona Approach (North/Low): 125.800
Daytona Approach (South/High): 127.075
Daytona Approach (West 8000-10000'): 125.725
Daytona Approach (West SFC-3500): 126.550
Daytona Approach/Departure (South): 125.350

KDAB Approach (North/Low) (Archives)
Daytona Beach, Florida, United States

Feed Status: UP
Listen in your browser - HTML5 player(in browser, HTML5)
Click here to listen with your own player(launches your MP3 player)

KDAB 221853Z 17012KT 10SM FEW025 SCT033 BKN043 32/23 A3019 RMK AO2 SLP223 T03170228

KDAB Airport Info (Airnav.com)

KDAB Flight Activity (Flightaware)

Listeners: 0 out of 1904 total

Daytona Approach (North/Low): 125.800

KDAB ATIS (Archives)
Daytona Beach, Florida, United States

Feed Status: UP
Listen in your browser - HTML5 player(in browser, HTML5)
Click here to listen with your own player(launches your MP3 player)

KDAB 221853Z 17012KT 10SM FEW025 SCT033 BKN043 32/23 A3019 RMK AO2 SLP223 T03170228

KDAB Airport Info (Airnav.com)

KDAB Flight Activity (Flightaware)

Listeners: 0 out of 1904 total

Daytona Beach ATIS: 132.875

KDAB Clearance/Ground (Archives)
Daytona Beach, Florida, United States

Feed Status: UP
Listen in your browser - HTML5 player(in browser, HTML5)
Click here to listen with your own player(launches your MP3 player)

KDAB 221853Z 17012KT 10SM FEW025 SCT033 BKN043 32/23 A3019 RMK AO2 SLP223 T03170228

KDAB Airport Info (Airnav.com)

KDAB Flight Activity (Flightaware)

Listeners: 0 out of 1904 total

Daytona Clearance: 119.300
Daytona Ground: 121.900

KDAB Ground/Tower (Archives)
Daytona Beach, Florida, United States

Feed Status: UP
Listen in your browser - HTML5 player(in browser, HTML5)
Click here to listen with your own player(launches your MP3 player)

KDAB 221853Z 17012KT 10SM FEW025 SCT033 BKN043 32/23 A3019 RMK AO2 SLP223 T03170228

KDAB Airport Info (Airnav.com)

KDAB Flight Activity (Flightaware)

Listeners: 1 out of 1904 total

Daytona Ground: 121.900
Daytona Tower (Primary 7L/25R): 120.700
Daytona Tower (Secondary 7R/25L): 118.100

KDAB Tower (120.7) (Archives)
Daytona Beach, Florida, United States

Feed Status: UP
Listen in your browser - HTML5 player(in browser, HTML5)
Click here to listen with your own player(launches your MP3 player)

KDAB 221853Z 17012KT 10SM FEW025 SCT033 BKN043 32/23 A3019 RMK AO2 SLP223 T03170228

KDAB Airport Info (Airnav.com)

KDAB Flight Activity (Flightaware)

Listeners: 0 out of 1904 total

Daytona Tower (Primary 7L/25R): 120.700

KDAB Tower (Both) (Archives)
Daytona Beach, Florida, United States

Feed Status: UP
Listen in your browser - HTML5 player(in browser, HTML5)
Click here to listen with your own player(launches your MP3 player)

KDAB 221853Z 17012KT 10SM FEW025 SCT033 BKN043 32/23 A3019 RMK AO2 SLP223 T03170228

KDAB Airport Info (Airnav.com)

KDAB Flight Activity (Flightaware)

Listeners: 0 out of 1904 total

Daytona Tower (Primary 7L/25R): 120.700
Daytona Tower (Secondary 7R/25L): 118.100

KDAY Del/Gnd/Twr/App (Archives)
Dayton, Ohio, United States

Feed Status: UP
Listen in your browser - HTML5 player(in browser, HTML5)
Click here to listen with your own player(launches your MP3 player)

KDAY 221856Z 35010KT 10SM FEW030 BKN040 OVC080 19/11 A3024 RMK AO2 SLP235 T01890111

KDAY Airport Info (Airnav.com)

KDAY Flight Activity (Flightaware)

Listeners: 1 out of 1904 total

Aero Enroute Dayton: 129.200
Aero Enroute Dayton: 129.150
Aero Enroute Dayton: 131.025
Air-To-Air: 123.450
Air-to-Air: 122.750
Columbus Approach/Departure (Backup): 118.000
Columbus Approach/Departure (Backup): 370.875
Columbus Approach/Departure (Backup): 269.225
Columbus Approach/Departure (Backup): 127.225
Columbus Approach/Departure (Backup): 353.700
Columbus Approach/Departure (Northeast): 323.150
Columbus Approach/Departure (Northeast): 118.425
Columbus Approach/Departure (South Satellite): 327.125
Columbus Approach/Departure (South Satellite): 126.500
Columbus Approach/Departure (Southeast): 118.850
Columbus Approach/Departure (Southeast): 269.275
Columbus Approach/Departure (West): 305.200
Columbus Approach/Departure (West): 134.450
Dayton Clearance Delivery: 121.750
Dayton Ground: 121.900
Dayton Heli-to-Heli: 123.025
Dayton Tower: 257.700
Dayton Tower: 119.900
Emergency/Guard: 243.000
Emergency/Guard: 121.500
UNICOM: 122.950

KDMA/KTUS Twr/Ops/ZAB (Archives)
Tucson, Arizona, United States

Feed Status: UP
Listen in your browser - HTML5 player(in browser, HTML5)
Click here to listen with your own player(launches your MP3 player)

KTUS 221853Z VRB06KT 10SM CLR 32/M01 A2999 RMK AO2 SLP106 T03221011

KTUS Airport Info (Airnav.com)

KTUS Flight Activity (Flightaware)

Listeners: 7 out of 1904 total

357FS Ops: 139.725
358FS Ops: 138.500
Albuquerque Center (Sector 47 Silver City/Low/UHF): 327.150
Albuquerque Center (Sector 90 San Simon/High/UHF): 281.500
AWACS: 364.200
BigFoot: 234.800
BigFoot: 271.000
Davis-Monthan AFB: 253.500
Tucson 162FW SOS IOPS: 392.200
Tucson Tower (UHF): 257.800

KTUS Del/Gnd/Twr/App/KDMA (Archives)
Tucson, Arizona, United States

Feed Status: UP
Listen in your browser - HTML5 player(in browser, HTML5)
Click here to listen with your own player(launches your MP3 player)

KTUS 221853Z VRB06KT 10SM CLR 32/M01 A2999 RMK AO2 SLP106 T03221011

KTUS Airport Info (Airnav.com)

KTUS Flight Activity (Flightaware)

Listeners: 3 out of 1904 total

KDMA Tower: 118.850
Tucson Approach (alt): 128.500
Tucson Approach (East/South): 125.100
Tucson Approach (North): 119.400
Tucson Approach (Practice Areas): 125.900
Tucson Clearance Delivery: 126.650
Tucson Ground: 124.400
Tucson Tower: 118.300
Tucson Tower (alt): 119.000

KDSM Twr/App (Archives)
Des Moines, Iowa, United States

Feed Status: UP
Listen in your browser - HTML5 player(in browser, HTML5)
Click here to listen with your own player(launches your MP3 player)

KDSM 221854Z 34013G24KT 10SM SCT070 17/M01 A3036 RMK AO2 SLP283 T01671006

KDSM Airport Info (Airnav.com)

KDSM Flight Activity (Flightaware)

Listeners: 2 out of 1904 total

Des Moines Approach/Departure: 118.600
Des Moines Approach/Departure: 123.900
Des Moines Approach/Departure: 135.200
Des Moines Tower: 118.300

KELP App/Dep (North) (Archives)
El Paso, Texas, United States

Feed Status: UP
Listen in your browser - HTML5 player(in browser, HTML5)
Click here to listen with your own player(launches your MP3 player)

KELP 221851Z VRB05G21KT 10SM BKN250 23/02 A3019 RMK AO2 PK WND 09026/1804 SLP159 T02280022 $

KELP Airport Info (Airnav.com)

KELP Flight Activity (Flightaware)

Listeners: 0 out of 1904 total

El Paso Approach/Departure (North): 124.250

KELP Approach (Archives)
El Paso, Texas, United States

Feed Status: UP
Listen in your browser - HTML5 player(in browser, HTML5)
Click here to listen with your own player(launches your MP3 player)

KELP 221851Z VRB05G21KT 10SM BKN250 23/02 A3019 RMK AO2 PK WND 09026/1804 SLP159 T02280022 $

KELP Airport Info (Airnav.com)

KELP Flight Activity (Flightaware)

Listeners: 0 out of 1904 total

El Paso Approach/Departure: 119.150

KELP Gnd/Twr/App/Dep (Archives)
El Paso, Texas, United States

Feed Status: UP
Listen in your browser - HTML5 player(in browser, HTML5)
Click here to listen with your own player(launches your MP3 player)

KELP 221851Z VRB05G21KT 10SM BKN250 23/02 A3019 RMK AO2 PK WND 09026/1804 SLP159 T02280022 $

KELP Airport Info (Airnav.com)

KELP Flight Activity (Flightaware)

Listeners: 3 out of 1904 total

El Paso Approach/Departure: 119.150
El Paso Approach/Departure: 124.250
El Paso Ground: 121.900
El Paso Tower: 118.300
El Paso Tower: 126.050

KELP Ground (Archives)
El Paso, Texas, United States

Feed Status: UP
Listen in your browser - HTML5 player(in browser, HTML5)
Click here to listen with your own player(launches your MP3 player)

KELP 221851Z VRB05G21KT 10SM BKN250 23/02 A3019 RMK AO2 PK WND 09026/1804 SLP159 T02280022 $

KELP Airport Info (Airnav.com)

KELP Flight Activity (Flightaware)

Listeners: 0 out of 1904 total

El Paso Ground: 121.900

KELP Tower (Archives)
El Paso, Texas, United States

Feed Status: UP
Listen in your browser - HTML5 player(in browser, HTML5)
Click here to listen with your own player(launches your MP3 player)

KELP 221851Z VRB05G21KT 10SM BKN250 23/02 A3019 RMK AO2 PK WND 09026/1804 SLP159 T02280022 $

KELP Airport Info (Airnav.com)

KELP Flight Activity (Flightaware)

Listeners: 0 out of 1904 total

El Paso Tower: 118.300

KFAT App/Dep (Archives)
Fresno, California, United States

Feed Status: UP
Listen in your browser - HTML5 player(in browser, HTML5)
Click here to listen with your own player(launches your MP3 player)

KFAT 221853Z VRB06KT 10SM SCT250 28/02 A2998 RMK AO2 SLP148 T02830017

KFAT Airport Info (Airnav.com)

KFAT Flight Activity (Flightaware)

Listeners: 0 out of 1904 total

Fresno Approach/Departure: 118.500
Fresno Approach/Departure: 132.350
Fresno Approach/Departure (IFR pickup KFCH): 119.000
Fresno Approach/Departure (North): 119.600

KFAT ATIS (Archives)
Fresno, California, United States

Feed Status: UP
Listen in your browser - HTML5 player(in browser, HTML5)
Click here to listen with your own player(launches your MP3 player)

KFAT 221853Z VRB06KT 10SM SCT250 28/02 A2998 RMK AO2 SLP148 T02830017

KFAT Airport Info (Airnav.com)

KFAT Flight Activity (Flightaware)

Listeners: 0 out of 1904 total

Fresno ATIS: 121.350

KFAT Del/Gnd/Twr (Archives)
Fresno, California, United States

Feed Status: UP
Listen in your browser - HTML5 player(in browser, HTML5)
Click here to listen with your own player(launches your MP3 player)

KFAT 221853Z VRB06KT 10SM SCT250 28/02 A2998 RMK AO2 SLP148 T02830017

KFAT Airport Info (Airnav.com)

KFAT Flight Activity (Flightaware)

Listeners: 1 out of 1904 total

Fresno Clearance Delivery: 124.350
Fresno Ground: 121.700
Fresno Ground (UHF): 348.600
Fresno Tower: 118.200
Fresno Tower (backup): 128.100
Fresno Tower (UHF): 251.100

KFAT Del/Gnd/Twr/App (Archives)
Fresno, California, United States

Feed Status: UP
Listen in your browser - HTML5 player(in browser, HTML5)
Click here to listen with your own player(launches your MP3 player)

KFAT 221853Z VRB06KT 10SM SCT250 28/02 A2998 RMK AO2 SLP148 T02830017

KFAT Airport Info (Airnav.com)

KFAT Flight Activity (Flightaware)

Listeners: 1 out of 1904 total

Fresno Approach/Departure: 132.350
Fresno Approach/Departure: 118.500
Fresno Approach/Departure (IFR pickup KFCH): 119.000
Fresno Approach/Departure (North): 119.600
Fresno Clearance Delivery: 124.350
Fresno Ground: 121.700
Fresno Ground (UHF): 348.600
Fresno Tower: 118.200
Fresno Tower (backup): 128.100
Fresno Tower (UHF): 251.100

KFAY App/Dep (Archives)
Fayetteville, North Carolina, United States

Feed Status: UP
Listen in your browser - HTML5 player(in browser, HTML5)
Click here to listen with your own player(launches your MP3 player)

KFAY 221853Z 21011KT 10SM FEW120 32/19 A3014 RMK AO2 SLP201 T03220189 $

KFAY Airport Info (Airnav.com)

KFAY Flight Activity (Flightaware)

Listeners: 0 out of 1904 total

Fayetteville Approach/Departure (North): 125.175
Fayetteville Approach/Departure (South): 133.000
Fayetteville Approach/Departure (Spare): 127.800

KFAY ATIS (Archives)
Fayetteville, North Carolina, United States

Feed Status: UP
Listen in your browser - HTML5 player(in browser, HTML5)
Click here to listen with your own player(launches your MP3 player)

KFAY 221853Z 21011KT 10SM FEW120 32/19 A3014 RMK AO2 SLP201 T03220189 $

KFAY Airport Info (Airnav.com)

KFAY Flight Activity (Flightaware)

Listeners: 0 out of 1904 total

Fayetteville ATIS: 121.250

KFAY Emergency/Guard (Archives)
Fayetteville, North Carolina, United States

Feed Status: UP
Listen in your browser - HTML5 player(in browser, HTML5)
Click here to listen with your own player(launches your MP3 player)

KFAY 221853Z 21011KT 10SM FEW120 32/19 A3014 RMK AO2 SLP201 T03220189 $

KFAY Airport Info (Airnav.com)

KFAY Flight Activity (Flightaware)

Listeners: 0 out of 1904 total

Emergency/Guard: 121.500

KFAY Ground (Archives)
Fayetteville, North Carolina, United States

Feed Status: UP
Listen in your browser - HTML5 player(in browser, HTML5)
Click here to listen with your own player(launches your MP3 player)

KFAY 221853Z 21011KT 10SM FEW120 32/19 A3014 RMK AO2 SLP201 T03220189 $

KFAY Airport Info (Airnav.com)

KFAY Flight Activity (Flightaware)

Listeners: 0 out of 1904 total

Fayetteville Ground: 121.700

KFAY Tower (Archives)
Fayetteville, North Carolina, United States

Feed Status: UP
Listen in your browser - HTML5 player(in browser, HTML5)
Click here to listen with your own player(launches your MP3 player)

KFAY 221853Z 21011KT 10SM FEW120 32/19 A3014 RMK AO2 SLP201 T03220189 $

KFAY Airport Info (Airnav.com)

KFAY Flight Activity (Flightaware)

Listeners: 0 out of 1904 total

Fayetteville Tower: 118.300

KFLL App (Final) (Archives)
Fort Lauderdale, Florida, United States

Feed Status: UP
Listen in your browser - HTML5 player(in browser, HTML5)
Click here to listen with your own player(launches your MP3 player)

KFLL 221853Z 12015KT 10SM SCT024 SCT220 30/24 A3017 RMK AO2 SLP217 T03000239

KFLL Airport Info (Airnav.com)

KFLL Flight Activity (Flightaware)

Listeners: 0 out of 1904 total

Miami Approach (KFLL Final): 133.725

KFLL ATIS (Archives)
Fort Lauderdale, Florida, United States

Feed Status: UP
Listen in your browser - HTML5 player(in browser, HTML5)
Click here to listen with your own player(launches your MP3 player)

KFLL 221853Z 12015KT 10SM SCT024 SCT220 30/24 A3017 RMK AO2 SLP217 T03000239

KFLL Airport Info (Airnav.com)

KFLL Flight Activity (Flightaware)

Listeners: 0 out of 1904 total

KFLL ATIS: 135.000

KFLL Clearance Delivery (Archives)
Fort Lauderdale, Florida, United States

Feed Status: UP
Listen in your browser - HTML5 player(in browser, HTML5)
Click here to listen with your own player(launches your MP3 player)

KFLL 221853Z 12015KT 10SM SCT024 SCT220 30/24 A3017 RMK AO2 SLP217 T03000239

KFLL Airport Info (Airnav.com)

KFLL Flight Activity (Flightaware)

Listeners: 0 out of 1904 total

KFLL Clearance Delivery: 128.400

KFLL Departure (Archives)
Fort Lauderdale, Florida, United States

Feed Status: UP
Listen in your browser - HTML5 player(in browser, HTML5)
Click here to listen with your own player(launches your MP3 player)

KMIA 221853Z 12014G21KT 10SM BKN032 BKN043 BKN250 31/23 A3018 RMK AO2 SLP219 T03110233 $

KMIA Airport Info (Airnav.com)

KMIA Flight Activity (Flightaware)

Listeners: 0 out of 1904 total

Miami Departure (FLL): 126.050

KFLL Ground (Archives)
Fort Lauderdale, Florida, United States

Feed Status: UP
Listen in your browser - HTML5 player(in browser, HTML5)
Click here to listen with your own player(launches your MP3 player)

KFLL 221853Z 12015KT 10SM SCT024 SCT220 30/24 A3017 RMK AO2 SLP217 T03000239

KFLL Airport Info (Airnav.com)

KFLL Flight Activity (Flightaware)

Listeners: 0 out of 1904 total

KFLL Ground: 121.700
KFLL Ground: 121.400

KFLL Ground (Main) (Archives)
Fort Lauderdale, Florida, United States

Feed Status: UP
Listen in your browser - HTML5 player(in browser, HTML5)
Click here to listen with your own player(launches your MP3 player)

KFLL 221853Z 12015KT 10SM SCT024 SCT220 30/24 A3017 RMK AO2 SLP217 T03000239

KFLL Airport Info (Airnav.com)

KFLL Flight Activity (Flightaware)

Listeners: 0 out of 1904 total

KFLL Ground: 121.400

KFLL Ground (Secondary) (Archives)
Fort Lauderdale, Florida, United States

Feed Status: UP
Listen in your browser - HTML5 player(in browser, HTML5)
Click here to listen with your own player(launches your MP3 player)

KFLL 221853Z 12015KT 10SM SCT024 SCT220 30/24 A3017 RMK AO2 SLP217 T03000239

KFLL Airport Info (Airnav.com)

KFLL Flight Activity (Flightaware)

Listeners: 0 out of 1904 total

KFLL Ground: 121.700

KFLL Ramp (Archives)
Fort Lauderdale, Florida, United States

Feed Status: UP
Listen in your browser - HTML5 player(in browser, HTML5)
Click here to listen with your own player(launches your MP3 player)

KFLL 221853Z 12015KT 10SM SCT024 SCT220 30/24 A3017 RMK AO2 SLP217 T03000239

KFLL Airport Info (Airnav.com)

KFLL Flight Activity (Flightaware)

Listeners: 1 out of 1904 total

Fort Lauderdale Ramp (North): 118.175
Fort Lauderdale Ramp (South): 129.875

KFLL Tower (Archives)
Fort Lauderdale, Florida, United States

Feed Status: UP
Listen in your browser - HTML5 player(in browser, HTML5)
Click here to listen with your own player(launches your MP3 player)

KFLL 221853Z 12015KT 10SM SCT024 SCT220 30/24 A3017 RMK AO2 SLP217 T03000239

KFLL Airport Info (Airnav.com)

KFLL Flight Activity (Flightaware)

Listeners: 4 out of 1904 total

KFLL Tower (Rwy 10LR/28RL): 119.300
KFLL Tower (Secondary): 120.200

KFLL Tower (Main) (Archives)
Fort Lauderdale, Florida, United States

Feed Status: UP
Listen in your browser - HTML5 player(in browser, HTML5)
Click here to listen with your own player(launches your MP3 player)

KFLL 221853Z 12015KT 10SM SCT024 SCT220 30/24 A3017 RMK AO2 SLP217 T03000239

KFLL Airport Info (Airnav.com)

KFLL Flight Activity (Flightaware)

Listeners: 0 out of 1904 total

KFLL Tower (Rwy 10LR/28RL): 119.300

KFLL Tower (Secondary) (Archives)
Fort Lauderdale, Florida, United States

Feed Status: UP
Listen in your browser - HTML5 player(in browser, HTML5)
Click here to listen with your own player(launches your MP3 player)

KFLL 221853Z 12015KT 10SM SCT024 SCT220 30/24 A3017 RMK AO2 SLP217 T03000239

KFLL Airport Info (Airnav.com)

KFLL Flight Activity (Flightaware)

Listeners: 0 out of 1904 total

KFLL Tower (Secondary): 120.200

KFNT App/Dep (Archives)
Flint, Michigan, United States

Feed Status: UP
Listen in your browser - HTML5 player(in browser, HTML5)
Click here to listen with your own player(launches your MP3 player)

KFNT 221853Z 33010KT 10SM FEW030 FEW047 SCT070 16/11 A3018 RMK AO2 SLP221 T01610106

KFNT Airport Info (Airnav.com)

KFNT Flight Activity (Flightaware)

Listeners: 1 out of 1904 total

Great Lakes Approach: 118.800

KFNT Tower (Archives)
Flint, Michigan, United States

Feed Status: UP
Listen in your browser - HTML5 player(in browser, HTML5)
Click here to listen with your own player(launches your MP3 player)

KFNT 221853Z 33010KT 10SM FEW030 FEW047 SCT070 16/11 A3018 RMK AO2 SLP221 T01610106

KFNT Airport Info (Airnav.com)

KFNT Flight Activity (Flightaware)

Listeners: 0 out of 1904 total

Flint Tower: 126.300

KFWA App/Dep (Archives)
Fort Wayne, Indiana, United States

Feed Status: UP
Listen in your browser - HTML5 player(in browser, HTML5)
Click here to listen with your own player(launches your MP3 player)

KFWA 221854Z 29012G17KT 10SM FEW040 BKN150 17/07 A3025 RMK AO2 SLP243 T01670067

KFWA Airport Info (Airnav.com)

KFWA Flight Activity (Flightaware)

Listeners: 0 out of 1904 total

Fort Wayne Approach/Departure: 127.200
Fort Wayne Approach/Departure: 132.150
Fort Wayne Approach/Departure: 135.325

KFWA ATIS (Archives)
Fort Wayne, Indiana, United States

Feed Status: UP
Listen in your browser - HTML5 player(in browser, HTML5)
Click here to listen with your own player(launches your MP3 player)

KFWA 221854Z 29012G17KT 10SM FEW040 BKN150 17/07 A3025 RMK AO2 SLP243 T01670067

KFWA Airport Info (Airnav.com)

KFWA Flight Activity (Flightaware)

Listeners: 0 out of 1904 total

Fort Wayne ATIS: 121.250

KFWA Del/Ground (Archives)
Fort Wayne, Indiana, United States

Feed Status: UP
Listen in your browser - HTML5 player(in browser, HTML5)
Click here to listen with your own player(launches your MP3 player)

KFWA 221854Z 29012G17KT 10SM FEW040 BKN150 17/07 A3025 RMK AO2 SLP243 T01670067

KFWA Airport Info (Airnav.com)

KFWA Flight Activity (Flightaware)

Listeners: 0 out of 1904 total

Fort Wayne Clearance Delivery: 124.750
Fort Wayne Ground: 121.900

KFWA Emergency/Guard (Archives)
Fort Wayne, Indiana, United States

Feed Status: UP
Listen in your browser - HTML5 player(in browser, HTML5)
Click here to listen with your own player(launches your MP3 player)

KFWA 221854Z 29012G17KT 10SM FEW040 BKN150 17/07 A3025 RMK AO2 SLP243 T01670067

KFWA Airport Info (Airnav.com)

KFWA Flight Activity (Flightaware)

Listeners: 0 out of 1904 total

Emergency/Guard: 121.500

KFWA Tower (Archives)
Fort Wayne, Indiana, United States

Feed Status: UP
Listen in your browser - HTML5 player(in browser, HTML5)
Click here to listen with your own player(launches your MP3 player)

KFWA 221854Z 29012G17KT 10SM FEW040 BKN150 17/07 A3025 RMK AO2 SLP243 T01670067

KFWA Airport Info (Airnav.com)

KFWA Flight Activity (Flightaware)

Listeners: 1 out of 1904 total

Fort Wayne Tower: 119.100

KGEG Del/Gnd/Twr/App (Archives)
Spokane, Washington, United States

Feed Status: UP
Listen in your browser - HTML5 player(in browser, HTML5)
Click here to listen with your own player(launches your MP3 player)

KGEG 221853Z 26004KT 10SM FEW035 FEW060 16/00 A3022 RMK AO2 SLP234 SHRA DSNT NW T01560000 $

KGEG Airport Info (Airnav.com)

KGEG Flight Activity (Flightaware)

Listeners: 0 out of 1904 total

Air to Air: 123.950
Emergency/Guard: 121.500
Seattle Handoff: 126.100
Spokane Approach/Departure: 123.750
Spokane Approach/Departure: 133.350
Spokane Clearance Delivery: 127.550
Spokane Ground: 121.900
Spokane Tower: 118.300

KGRR App/Dep (Archives)
Grand Rapids, Michigan, United States

Feed Status: UP
Listen in your browser - HTML5 player(in browser, HTML5)
Click here to listen with your own player(launches your MP3 player)

KGRR 221853Z 28014G24KT 10SM SCT050 BKN230 15/02 A3024 RMK AO2 PK WND 26028/1843 SLP242 T01500017 $

KGRR Airport Info (Airnav.com)

KGRR Flight Activity (Flightaware)

Listeners: 1 out of 1904 total

Grand Rapids Approach (North): 124.600
Grand Rapids Approach (South): 128.400

KGRR App/Dep (North) (Archives)
Grand Rapids, Michigan, United States

Feed Status: UP
Listen in your browser - HTML5 player(in browser, HTML5)
Click here to listen with your own player(launches your MP3 player)

KGRR 221853Z 28014G24KT 10SM SCT050 BKN230 15/02 A3024 RMK AO2 PK WND 26028/1843 SLP242 T01500017 $

KGRR Airport Info (Airnav.com)

KGRR Flight Activity (Flightaware)

Listeners: 0 out of 1904 total

Grand Rapids Approach (North): 124.600

KGRR App/Dep (South) (Archives)
Grand Rapids, Michigan, United States

Feed Status: UP
Listen in your browser - HTML5 player(in browser, HTML5)
Click here to listen with your own player(launches your MP3 player)

KGRR 221853Z 28014G24KT 10SM SCT050 BKN230 15/02 A3024 RMK AO2 PK WND 26028/1843 SLP242 T01500017 $

KGRR Airport Info (Airnav.com)

KGRR Flight Activity (Flightaware)

Listeners: 0 out of 1904 total

Grand Rapids Approach (South): 128.400

KGRR Clearance Delivery (Archives)
Grand Rapids, Michigan, United States

Feed Status: UP
Listen in your browser - HTML5 player(in browser, HTML5)
Click here to listen with your own player(launches your MP3 player)

KGRR 221853Z 28014G24KT 10SM SCT050 BKN230 15/02 A3024 RMK AO2 PK WND 26028/1843 SLP242 T01500017 $

KGRR Airport Info (Airnav.com)

KGRR Flight Activity (Flightaware)

Listeners: 0 out of 1904 total

Grand Rapids Clearance Delivery: 119.300

KGRR Del/Gnd/Twr (Archives)
Grand Rapids, Michigan, United States

Feed Status: UP
Listen in your browser - HTML5 player(in browser, HTML5)
Click here to listen with your own player(launches your MP3 player)

KGRR 221853Z 28014G24KT 10SM SCT050 BKN230 15/02 A3024 RMK AO2 PK WND 26028/1843 SLP242 T01500017 $

KGRR Airport Info (Airnav.com)

KGRR Flight Activity (Flightaware)

Listeners: 0 out of 1904 total

Grand Rapids Clearance Delivery: 119.300
Grand Rapids Ground: 121.800
Grand Rapids Tower: 135.650

KGRR Del/Gnd/Twr/App (Archives)
Grand Rapids, Michigan, United States

Feed Status: UP
Listen in your browser - HTML5 player(in browser, HTML5)
Click here to listen with your own player(launches your MP3 player)

KGRR 221853Z 28014G24KT 10SM SCT050 BKN230 15/02 A3024 RMK AO2 PK WND 26028/1843 SLP242 T01500017 $

KGRR Airport Info (Airnav.com)

KGRR Flight Activity (Flightaware)

Listeners: 0 out of 1904 total

Grand Rapids Approach (North): 124.600
Grand Rapids Approach (South): 128.400
Grand Rapids Clearance Delivery: 119.300
Grand Rapids Ground: 121.800
Grand Rapids Tower: 135.650

KGRR Emergency/Guard (Archives)
Grand Rapids, Michigan, United States

Feed Status: UP
Listen in your browser - HTML5 player(in browser, HTML5)
Click here to listen with your own player(launches your MP3 player)

KGRR 221853Z 28014G24KT 10SM SCT050 BKN230 15/02 A3024 RMK AO2 PK WND 26028/1843 SLP242 T01500017 $

KGRR Airport Info (Airnav.com)

KGRR Flight Activity (Flightaware)

Listeners: 0 out of 1904 total

Emergency/Guard: 121.500

KGRR Gnd/Twr/App (Archives)
Grand Rapids, Michigan, United States

Feed Status: UP
Listen in your browser - HTML5 player(in browser, HTML5)
Click here to listen with your own player(launches your MP3 player)

KGRR 221853Z 28014G24KT 10SM SCT050 BKN230 15/02 A3024 RMK AO2 PK WND 26028/1843 SLP242 T01500017 $

KGRR Airport Info (Airnav.com)

KGRR Flight Activity (Flightaware)

Listeners: 0 out of 1904 total

Grand Rapids Approach (North): 124.600
Grand Rapids Approach (South): 128.400
Grand Rapids Ground: 121.800
Grand Rapids Tower: 135.650

KGRR Ground (Archives)
Grand Rapids, Michigan, United States

Feed Status: UP
Listen in your browser - HTML5 player(in browser, HTML5)
Click here to listen with your own player(launches your MP3 player)

KGRR 221853Z 28014G24KT 10SM SCT050 BKN230 15/02 A3024 RMK AO2 PK WND 26028/1843 SLP242 T01500017 $

KGRR Airport Info (Airnav.com)

KGRR Flight Activity (Flightaware)

Listeners: 0 out of 1904 total

Grand Rapids Ground: 121.800

KGRR Tower (Archives)
Grand Rapids, Michigan, United States

Feed Status: UP
Listen in your browser - HTML5 player(in browser, HTML5)
Click here to listen with your own player(launches your MP3 player)

KGRR 221853Z 28014G24KT 10SM SCT050 BKN230 15/02 A3024 RMK AO2 PK WND 26028/1843 SLP242 T01500017 $

KGRR Airport Info (Airnav.com)

KGRR Flight Activity (Flightaware)

Listeners: 0 out of 1904 total

Grand Rapids Tower: 135.650

KGSO Approach/Departure (Archives)
Greensboro, North Carolina, United States

Feed Status: UP
Listen in your browser - HTML5 player(in browser, HTML5)
Click here to listen with your own player(launches your MP3 player)

KGSO 221854Z 24013KT 10SM BKN050 BKN250 30/18 A3012 RMK AO2 SLP190 T03000178

KGSO Airport Info (Airnav.com)

KGSO Flight Activity (Flightaware)

Listeners: 2 out of 1904 total

Greensboro Approach/Departure (South): 126.600
Greensboro Approach/Departure (West): 124.350

KGSO Approach/Departure (South) (Archives)
Greensboro, North Carolina, United States

Feed Status: UP
Listen in your browser - HTML5 player(in browser, HTML5)
Click here to listen with your own player(launches your MP3 player)

KGSO 221854Z 24013KT 10SM BKN050 BKN250 30/18 A3012 RMK AO2 SLP190 T03000178

KGSO Airport Info (Airnav.com)

KGSO Flight Activity (Flightaware)

Listeners: 0 out of 1904 total

Greensboro Approach/Departure (South): 126.600

KGSO Approach/Departure (West) (Archives)
Greensboro, North Carolina, United States

Feed Status: UP
Listen in your browser - HTML5 player(in browser, HTML5)
Click here to listen with your own player(launches your MP3 player)

KGSO 221854Z 24013KT 10SM BKN050 BKN250 30/18 A3012 RMK AO2 SLP190 T03000178

KGSO Airport Info (Airnav.com)

KGSO Flight Activity (Flightaware)

Listeners: 0 out of 1904 total

Greensboro Approach/Departure (West): 124.350

KGSO ATIS (Archives)
Greensboro, North Carolina, United States

Feed Status: UP
Listen in your browser - HTML5 player(in browser, HTML5)
Click here to listen with your own player(launches your MP3 player)

KGSO 221854Z 24013KT 10SM BKN050 BKN250 30/18 A3012 RMK AO2 SLP190 T03000178

KGSO Airport Info (Airnav.com)

KGSO Flight Activity (Flightaware)

Listeners: 0 out of 1904 total

Greensboro ATIS: 128.550

KGSO Del/Gnd (Archives)
Greensboro, North Carolina, United States

Feed Status: UP
Listen in your browser - HTML5 player(in browser, HTML5)
Click here to listen with your own player(launches your MP3 player)

KGSO 221854Z 24013KT 10SM BKN050 BKN250 30/18 A3012 RMK AO2 SLP190 T03000178

KGSO Airport Info (Airnav.com)

KGSO Flight Activity (Flightaware)

Listeners: 0 out of 1904 total

Greensboro Clearance Delivery: 121.750
Greensboro Ground: 121.900

KGSO Tower (Archives)
Greensboro, North Carolina, United States

Feed Status: UP
Listen in your browser - HTML5 player(in browser, HTML5)
Click here to listen with your own player(launches your MP3 player)

KGSO 221854Z 24013KT 10SM BKN050 BKN250 30/18 A3012 RMK AO2 SLP190 T03000178

KGSO Airport Info (Airnav.com)

KGSO Flight Activity (Flightaware)

Listeners: 1 out of 1904 total

Greensboro Tower: 119.100

KGSP App/Dep (East) (Archives)
Greer, South Carolina, United States

Feed Status: UP
Listen in your browser - HTML5 player(in browser, HTML5)
Click here to listen with your own player(launches your MP3 player)

KGMU 221853Z 22011G16KT 10SM FEW046 31/17 A3017 RMK AO2 SLP205 T03060172

KGMU Airport Info (Airnav.com)

KGMU Flight Activity (Flightaware)

Listeners: 0 out of 1904 total

Greer Approach (East): 119.400

KGSP App/Dep (West) (Archives)
Greer, South Carolina, United States

Feed Status: UP
Listen in your browser - HTML5 player(in browser, HTML5)
Click here to listen with your own player(launches your MP3 player)

KGMU 221853Z 22011G16KT 10SM FEW046 31/17 A3017 RMK AO2 SLP205 T03060172

KGMU Airport Info (Airnav.com)

KGMU Flight Activity (Flightaware)

Listeners: 0 out of 1904 total

Greer Approach (West): 118.800

KGSP ATIS (Archives)
Greer, South Carolina, United States

Feed Status: UP
Listen in your browser - HTML5 player(in browser, HTML5)
Click here to listen with your own player(launches your MP3 player)

KGMU 221853Z 22011G16KT 10SM FEW046 31/17 A3017 RMK AO2 SLP205 T03060172

KGMU Airport Info (Airnav.com)

KGMU Flight Activity (Flightaware)

Listeners: 0 out of 1904 total

Greer ATIS: 134.250

KGSP Tower (Archives)
Greer, South Carolina, United States

Feed Status: UP
Listen in your browser - HTML5 player(in browser, HTML5)
Click here to listen with your own player(launches your MP3 player)

KGMU 221853Z 22011G16KT 10SM FEW046 31/17 A3017 RMK AO2 SLP205 T03060172

KGMU Airport Info (Airnav.com)

KGMU Flight Activity (Flightaware)

Listeners: 0 out of 1904 total

Greer Tower: 120.100

KHSV App/Dep (Archives)
Huntsville, Alabama, United States

Feed Status: UP
Listen in your browser - HTML5 player(in browser, HTML5)
Click here to listen with your own player(launches your MP3 player)

KHSV 221853Z 01006KT 10SM BKN040 BKN100 31/20 A3013 RMK AO2 SLP194 T03060200

KHSV Airport Info (Airnav.com)

KHSV Flight Activity (Flightaware)

Listeners: 0 out of 1904 total

Huntsville Approach (180-359): 118.050
Huntsville Approach (360-179): 125.600
Huntsville Approach (ASR): 118.750

KHSV ATIS (Archives)
Huntsville, Alabama, United States

Feed Status: UP
Listen in your browser - HTML5 player(in browser, HTML5)
Click here to listen with your own player(launches your MP3 player)

KHSV 221853Z 01006KT 10SM BKN040 BKN100 31/20 A3013 RMK AO2 SLP194 T03060200

KHSV Airport Info (Airnav.com)

KHSV Flight Activity (Flightaware)

Listeners: 0 out of 1904 total

Huntsville ATIS: 121.250

KHSV Del/Gnd (Archives)
Huntsville, Alabama, United States

Feed Status: UP
Listen in your browser - HTML5 player(in browser, HTML5)
Click here to listen with your own player(launches your MP3 player)

KHSV 221853Z 01006KT 10SM BKN040 BKN100 31/20 A3013 RMK AO2 SLP194 T03060200

KHSV Airport Info (Airnav.com)

KHSV Flight Activity (Flightaware)

Listeners: 0 out of 1904 total

Huntsville Clearance: 120.350
Huntsville Ground: 121.900

KHSV Gnd/Twr (Archives)
Huntsville, Alabama, United States

Feed Status: UP
Listen in your browser - HTML5 player(in browser, HTML5)
Click here to listen with your own player(launches your MP3 player)

KHSV 221853Z 01006KT 10SM BKN040 BKN100 31/20 A3013 RMK AO2 SLP194 T03060200

KHSV Airport Info (Airnav.com)

KHSV Flight Activity (Flightaware)

Listeners: 0 out of 1904 total

Huntsville Ground: 121.900
Huntsville Tower: 127.600

KHSV Gnd/Twr/App/Dep (Archives)
Huntsville, Alabama, United States

Feed Status: UP
Listen in your browser - HTML5 player(in browser, HTML5)
Click here to listen with your own player(launches your MP3 player)

KHSV 221853Z 01006KT 10SM BKN040 BKN100 31/20 A3013 RMK AO2 SLP194 T03060200

KHSV Airport Info (Airnav.com)

KHSV Flight Activity (Flightaware)

Listeners: 0 out of 1904 total

Huntsville Approach (180-359): 118.050
Huntsville Approach (360-179): 125.600
Huntsville Approach (ASR): 118.750
Huntsville Ground: 121.900
Huntsville Tower: 127.600

KHTO CTAF/Tower (Archives)
East Hampton, New York, United States

Feed Status: UP
Listen in your browser - HTML5 player(in browser, HTML5)
Click here to listen with your own player(launches your MP3 player)



KHTO Airport Info (Airnav.com)

KHTO Flight Activity (Flightaware)

Listeners: 0 out of 1904 total

East Hampton CTAF/Tower: 125.225

KBTR/KHZR/L38 Del/Gnd/Twr/App/CTAF (Archives)
New Roads, Louisiana, United States

Feed Status: UP
Listen in your browser - HTML5 player(in browser, HTML5)
Click here to listen with your own player(launches your MP3 player)

KBTR 221853Z 32007KT 10SM FEW030 BKN035 OVC048 28/22 A3005 RMK AO2 SLP176 T02830222

KBTR Airport Info (Airnav.com)

KBTR Flight Activity (Flightaware)

Listeners: 0 out of 1904 total

Baton Rouge Approach/Departure (East): 126.500
Baton Rouge Approach/Departure (Military): 278.300
Baton Rouge Approach/Departure (West): 120.300
Baton Rouge Clearance Delivery: 119.400
Baton Rouge Ground: 121.900
Baton Rouge Tower (Military): 257.800
Baton Rouge Tower/CTAF: 118.450
Baton Rouge UNICOM: 122.950
Houston Center (App/Dep when Approach closed): 338.250
Houston Center (App/Dep when Approach closed): 126.350
Louisiana Regional L38 CTAF: 123.000
United Airlines: 129.925

KICT App/Dep (All) (Archives)
Wichita, Kansas, United States

Feed Status: UP
Listen in your browser - HTML5 player(in browser, HTML5)
Click here to listen with your own player(launches your MP3 player)

KICT 221853Z 08007KT 030V110 10SM CLR 19/02 A3034 RMK AO2 SLP272 T01940017

KICT Airport Info (Airnav.com)

KICT Flight Activity (Flightaware)

Listeners: 0 out of 1904 total

Wichita Approach: 125.500
Wichita Approach (East): 134.850
Wichita Approach (West): 126.700

KICT Approach (East) (Archives)
Wichita, Kansas, United States

Feed Status: UP
Listen in your browser - HTML5 player(in browser, HTML5)
Click here to listen with your own player(launches your MP3 player)

KICT 221853Z 08007KT 030V110 10SM CLR 19/02 A3034 RMK AO2 SLP272 T01940017

KICT Airport Info (Airnav.com)

KICT Flight Activity (Flightaware)

Listeners: 0 out of 1904 total

Wichita Approach (East): 134.850

KICT Approach (West) (Archives)
Wichita, Kansas, United States

Feed Status: UP
Listen in your browser - HTML5 player(in browser, HTML5)
Click here to listen with your own player(launches your MP3 player)

KICT 221853Z 08007KT 030V110 10SM CLR 19/02 A3034 RMK AO2 SLP272 T01940017

KICT Airport Info (Airnav.com)

KICT Flight Activity (Flightaware)

Listeners: 0 out of 1904 total

Wichita Approach (West): 126.700

KICT Approach 125.5 (Archives)
Wichita, Kansas, United States

Feed Status: UP
Listen in your browser - HTML5 player(in browser, HTML5)
Click here to listen with your own player(launches your MP3 player)

KICT 221853Z 08007KT 030V110 10SM CLR 19/02 A3034 RMK AO2 SLP272 T01940017

KICT Airport Info (Airnav.com)

KICT Flight Activity (Flightaware)

Listeners: 0 out of 1904 total

Wichita Approach: 125.500

KICT ATIS (Archives)
Wichita, Kansas, United States

Feed Status: UP
Listen in your browser - HTML5 player(in browser, HTML5)
Click here to listen with your own player(launches your MP3 player)

KICT 221853Z 08007KT 030V110 10SM CLR 19/02 A3034 RMK AO2 SLP272 T01940017

KICT Airport Info (Airnav.com)

KICT Flight Activity (Flightaware)

Listeners: 0 out of 1904 total

Wichita ATIS: 125.150

KICT Ground/Tower (Archives)
Wichita, Kansas, United States

Feed Status: UP
Listen in your browser - HTML5 player(in browser, HTML5)
Click here to listen with your own player(launches your MP3 player)

KICT 221853Z 08007KT 030V110 10SM CLR 19/02 A3034 RMK AO2 SLP272 T01940017

KICT Airport Info (Airnav.com)

KICT Flight Activity (Flightaware)

Listeners: 0 out of 1904 total

Wichita Ground: 121.900
Wichita Tower: 118.200

KIND App/Dep (Archives)
Indianapolis, Indiana, United States

Feed Status: UP
Listen in your browser - HTML5 player(in browser, HTML5)
Click here to listen with your own player(launches your MP3 player)

KIND 221854Z 35010G17KT 320V020 10SM FEW042 BKN075 BKN200 18/06 A3027 RMK AO2 SLP248 T01830061

KIND Airport Info (Airnav.com)

KIND Flight Activity (Flightaware)

Listeners: 0 out of 1904 total

Indy Approach: 121.100
Indy Approach (East): 127.150
Indy Approach (IC): 128.175
Indy Approach (West): 124.650
Indy Departure (East): 124.950
Indy Departure (West): 119.050

KIND ATIS (Archives)
Indianapolis, Indiana, United States

Feed Status: UP
Listen in your browser - HTML5 player(in browser, HTML5)
Click here to listen with your own player(launches your MP3 player)

KIND 221854Z 35010G17KT 320V020 10SM FEW042 BKN075 BKN200 18/06 A3027 RMK AO2 SLP248 T01830061

KIND Airport Info (Airnav.com)

KIND Flight Activity (Flightaware)

Listeners: 0 out of 1904 total

Indianapolis ATIS: 134.250

KIND Ground (Archives)
Indianapolis, Indiana, United States

Feed Status: UP
Listen in your browser - HTML5 player(in browser, HTML5)
Click here to listen with your own player(launches your MP3 player)

KIND 221854Z 35010G17KT 320V020 10SM FEW042 BKN075 BKN200 18/06 A3027 RMK AO2 SLP248 T01830061

KIND Airport Info (Airnav.com)

KIND Flight Activity (Flightaware)

Listeners: 0 out of 1904 total

Indianapolis Ground: 121.900

KIND Tower (Archives)
Indianapolis, Indiana, United States

Feed Status: UP
Listen in your browser - HTML5 player(in browser, HTML5)
Click here to listen with your own player(launches your MP3 player)

KIND 221854Z 35010G17KT 320V020 10SM FEW042 BKN075 BKN200 18/06 A3027 RMK AO2 SLP248 T01830061

KIND Airport Info (Airnav.com)

KIND Flight Activity (Flightaware)

Listeners: 1 out of 1904 total

Indianapolis Tower (Primary): 120.900

KCID Gnd/Twr/App/KIOW (Archives)
Iowa City, Iowa, United States

Feed Status: UP
Listen in your browser - HTML5 player(in browser, HTML5)
Click here to listen with your own player(launches your MP3 player)

KCID 221852Z 34015G28KT 10SM FEW070 17/00 A3032 RMK AO2 PK WND 31028/1848 SLP269 T01720000

KCID Airport Info (Airnav.com)

KCID Flight Activity (Flightaware)

Listeners: 0 out of 1904 total

Cedar Rapids Approach (091-269): 119.700
Cedar Rapids Approach (270-090): 134.050
Cedar Rapids Clearance Delivery: 125.450
Cedar Rapids Ground (0500-2330): 121.600
Cedar Rapids Tower (0500-2330): 118.700
UNICOM C17 (Marion) and surrounding area: 122.700
UNICOM IA24 Green Castle: 122.900
UNICOM KIOW (Iowa City) and surrounding area: 122.800

KISP (NY Approach) (Archives)
Islip, New York, United States

Feed Status: UP
Listen in your browser - HTML5 player(in browser, HTML5)
Click here to listen with your own player(launches your MP3 player)

KISP 221856Z 18010KT 10SM FEW210 28/21 A2997 RMK AO2 SLP148 T02780206

KISP Airport Info (Airnav.com)

KISP Flight Activity (Flightaware)

Listeners: 1 out of 1904 total

New York Approach/Departure (Islip): 120.050

KISP Tower (Archives)
Islip, New York, United States

Feed Status: UP
Listen in your browser - HTML5 player(in browser, HTML5)
Click here to listen with your own player(launches your MP3 player)

KISP 221856Z 18010KT 10SM FEW210 28/21 A2997 RMK AO2 SLP148 T02780206

KISP Airport Info (Airnav.com)

KISP Flight Activity (Flightaware)

Listeners: 5 out of 1904 total

Islip Tower: 119.300

KJAN Gnd/Twr/App/Dep (Archives)
Jackson, Mississippi, United States

Feed Status: UP
Listen in your browser - HTML5 player(in browser, HTML5)
Click here to listen with your own player(launches your MP3 player)

KJAN 221854Z 17009KT 10SM SCT034 BKN120 30/21 A3007 RMK AO2 SLP177 T03000211

KJAN Airport Info (Airnav.com)

KJAN Flight Activity (Flightaware)

Listeners: 1 out of 1904 total

Jackson Approach/Departure: 123.900
Jackson Approach/Departure: 125.250
Jackson Ground: 121.700
Jackson Tower: 120.900

KJAX Approach/Departure (Archives)
Jacksonville, Florida, United States

Feed Status: UP
Listen in your browser - HTML5 player(in browser, HTML5)
Click here to listen with your own player(launches your MP3 player)

KJAX 221856Z 19007KT 10SM SCT036 BKN190 BKN250 31/23 A3017 RMK AO2 SLP217 T03060233

KJAX Airport Info (Airnav.com)

KJAX Flight Activity (Flightaware)

Listeners: 0 out of 1904 total

Jacksonville Approach/Departure: 127.000
Jacksonville Approach/Departure: 124.900
Jacksonville Approach/Departure: 123.800
Jacksonville Approach/Departure: 120.750
Jacksonville Approach/Departure: 118.000
Jacksonville Approach/Departure: 119.000
Jacksonville Approach/Departure: 127.775
Jacksonville Approach/Departure: 132.775

KJAX ATIS (Archives)
Jacksonville, Florida, United States

Feed Status: UP
Listen in your browser - HTML5 player(in browser, HTML5)
Click here to listen with your own player(launches your MP3 player)

KJAX 221856Z 19007KT 10SM SCT036 BKN190 BKN250 31/23 A3017 RMK AO2 SLP217 T03060233

KJAX Airport Info (Airnav.com)

KJAX Flight Activity (Flightaware)

Listeners: 0 out of 1904 total

Jacksonville D-ATIS: 125.850

KJAX Gnd/Twr (Archives)
Jacksonville, Florida, United States

Feed Status: UP
Listen in your browser - HTML5 player(in browser, HTML5)
Click here to listen with your own player(launches your MP3 player)

KJAX 221856Z 19007KT 10SM SCT036 BKN190 BKN250 31/23 A3017 RMK AO2 SLP217 T03060233

KJAX Airport Info (Airnav.com)

KJAX Flight Activity (Flightaware)

Listeners: 0 out of 1904 total

Jacksonville Ground: 121.900
Jacksonville Tower: 118.300

KLAN Del/Gnd/Twr/App (Archives)
Lansing, Michigan, United States

Feed Status: UP
Listen in your browser - HTML5 player(in browser, HTML5)
Click here to listen with your own player(launches your MP3 player)

KLAN 221853Z 27015G22KT 10SM FEW043 BKN055 18/07 A3020 RMK AO2 SLP227 T01830067

KLAN Airport Info (Airnav.com)

KLAN Flight Activity (Flightaware)

Listeners: 0 out of 1904 total

CTAF/UNICOM (K60G): 122.900
CTAF/UNICOM (KTEW/4D0): 122.700
Emergency/Guard: 121.500
Great Lakes Approach: 127.300
Great Lakes Approach/Departure (North): 133.475
Great Lakes Approach/Departure (South): 118.650
Lansing Clearance Delivery: 123.675
Lansing Ground: 121.900
Lansing Tower: 119.900
Lansing UNICOM: 122.950

KLBB Gnd/Twr/App (Archives)
Lubbock, Texas, United States

Feed Status: UP
Listen in your browser - HTML5 player(in browser, HTML5)
Click here to listen with your own player(launches your MP3 player)

KLBB 221853Z 11007KT 10SM BKN070 BKN260 19/M01 A3030 RMK AO2 SLP232 T01941006

KLBB Airport Info (Airnav.com)

KLBB Flight Activity (Flightaware)

Listeners: 3 out of 1904 total

Emergency/Guard: 121.500
Hub City Aviation: 123.500
Lubbock Approach/Departure: 119.200
Lubbock Ground: 121.900
Lubbock Tower: 120.500

KCMH App/Dep (134.0) (Archives)
Columbus, Ohio, United States

Feed Status: UP
Listen in your browser - HTML5 player(in browser, HTML5)
Click here to listen with your own player(launches your MP3 player)

KCMH 221851Z 34010KT 10SM FEW032 BKN065 BKN095 19/13 A3020 RMK AO2 SLP222 T01940133

KCMH Airport Info (Airnav.com)

KCMH Flight Activity (Flightaware)

Listeners: 0 out of 1904 total

Columbus Approach (South): 134.000

KCMH App/Dep (South/UHF) (Archives)
Columbus, Ohio, United States

Feed Status: UP
Listen in your browser - HTML5 player(in browser, HTML5)
Click here to listen with your own player(launches your MP3 player)

KCMH 221851Z 34010KT 10SM FEW032 BKN065 BKN095 19/13 A3020 RMK AO2 SLP222 T01940133

KCMH Airport Info (Airnav.com)

KCMH Flight Activity (Flightaware)

Listeners: 0 out of 1904 total

Columbus Approach/Departure (South/Mil): 279.600

KLNK Approach (Archives)
Lincoln, Nebraska, United States

Feed Status: UP
Listen in your browser - HTML5 player(in browser, HTML5)
Click here to listen with your own player(launches your MP3 player)

KLNK 221854Z 31006G18KT 10SM CLR 19/01 A3036 RMK AO2 SLP283 T01940011

KLNK Airport Info (Airnav.com)

KLNK Flight Activity (Flightaware)

Listeners: 0 out of 1904 total

Lincoln Approach: 124.000

KLNK ATIS (Archives)
Lincoln, Nebraska, United States

Feed Status: UP
Listen in your browser - HTML5 player(in browser, HTML5)
Click here to listen with your own player(launches your MP3 player)

KLNK 221854Z 31006G18KT 10SM CLR 19/01 A3036 RMK AO2 SLP283 T01940011

KLNK Airport Info (Airnav.com)

KLNK Flight Activity (Flightaware)

Listeners: 0 out of 1904 total

Lincoln ATIS: 118.050

KLNK Ground (Archives)
Lincoln, Nebraska, United States

Feed Status: UP
Listen in your browser - HTML5 player(in browser, HTML5)
Click here to listen with your own player(launches your MP3 player)

KLNK 221854Z 31006G18KT 10SM CLR 19/01 A3036 RMK AO2 SLP283 T01940011

KLNK Airport Info (Airnav.com)

KLNK Flight Activity (Flightaware)

Listeners: 0 out of 1904 total

Lincoln Ground: 121.900

KLNK Tower (Archives)
Lincoln, Nebraska, United States

Feed Status: UP
Listen in your browser - HTML5 player(in browser, HTML5)
Click here to listen with your own player(launches your MP3 player)

KLNK 221854Z 31006G18KT 10SM CLR 19/01 A3036 RMK AO2 SLP283 T01940011

KLNK Airport Info (Airnav.com)

KLNK Flight Activity (Flightaware)

Listeners: 0 out of 1904 total

Lincoln Tower: 118.500

KLNK Twr/App (Archives)
Lincoln, Nebraska, United States

Feed Status: UP
Listen in your browser - HTML5 player(in browser, HTML5)
Click here to listen with your own player(launches your MP3 player)

KLNK 221854Z 31006G18KT 10SM CLR 19/01 A3036 RMK AO2 SLP283 T01940011

KLNK Airport Info (Airnav.com)

KLNK Flight Activity (Flightaware)

Listeners: 0 out of 1904 total

Lincoln Approach: 124.000
Lincoln Tower: 118.500

Emergency/Guard (Archives)
Midland, Texas, United States

Feed Status: UP
Listen in your browser - HTML5 player(in browser, HTML5)
Click here to listen with your own player(launches your MP3 player)

KMAF 221853Z 04009KT 10SM BKN040 OVC065 17/01 A3028 RMK AO2 SLP223 T01720011

KMAF Airport Info (Airnav.com)

KMAF Flight Activity (Flightaware)

Listeners: 0 out of 1904 total

Emergency/Guard: 121.500

KMAF App/Dep (North) (Archives)
Midland, Texas, United States

Feed Status: UP
Listen in your browser - HTML5 player(in browser, HTML5)
Click here to listen with your own player(launches your MP3 player)

KMAF 221853Z 04009KT 10SM BKN040 OVC065 17/01 A3028 RMK AO2 SLP223 T01720011

KMAF Airport Info (Airnav.com)

KMAF Flight Activity (Flightaware)

Listeners: 0 out of 1904 total

Midland Approach/Departure: 124.600

KMAF App/Dep (North/South) (Archives)
Midland, Texas, United States

Feed Status: UP
Listen in your browser - HTML5 player(in browser, HTML5)
Click here to listen with your own player(launches your MP3 player)

KMAF 221853Z 04009KT 10SM BKN040 OVC065 17/01 A3028 RMK AO2 SLP223 T01720011

KMAF Airport Info (Airnav.com)

KMAF Flight Activity (Flightaware)

Listeners: 0 out of 1904 total

Midland Approach/Departure: 121.100
Midland Approach/Departure: 124.600

KMAF App/Dep (South) (Archives)
Midland, Texas, United States

Feed Status: UP
Listen in your browser - HTML5 player(in browser, HTML5)
Click here to listen with your own player(launches your MP3 player)

KMAF 221853Z 04009KT 10SM BKN040 OVC065 17/01 A3028 RMK AO2 SLP223 T01720011

KMAF Airport Info (Airnav.com)

KMAF Flight Activity (Flightaware)

Listeners: 0 out of 1904 total

Midland Approach/Departure: 121.100

KMAF ATIS (Archives)
Midland, Texas, United States

Feed Status: UP
Listen in your browser - HTML5 player(in browser, HTML5)
Click here to listen with your own player(launches your MP3 player)

KMAF 221853Z 04009KT 10SM BKN040 OVC065 17/01 A3028 RMK AO2 SLP223 T01720011

KMAF Airport Info (Airnav.com)

KMAF Flight Activity (Flightaware)

Listeners: 0 out of 1904 total

Midland ATIS: 126.800

KMAF Clearance Delivery (Archives)
Midland, Texas, United States

Feed Status: UP
Listen in your browser - HTML5 player(in browser, HTML5)
Click here to listen with your own player(launches your MP3 player)

KMAF 221853Z 04009KT 10SM BKN040 OVC065 17/01 A3028 RMK AO2 SLP223 T01720011

KMAF Airport Info (Airnav.com)

KMAF Flight Activity (Flightaware)

Listeners: 0 out of 1904 total

Midland Clearance Delivery: 118.050

KMAF Del/Gnd (Archives)
Midland, Texas, United States

Feed Status: UP
Listen in your browser - HTML5 player(in browser, HTML5)
Click here to listen with your own player(launches your MP3 player)

KMAF 221853Z 04009KT 10SM BKN040 OVC065 17/01 A3028 RMK AO2 SLP223 T01720011

KMAF Airport Info (Airnav.com)

KMAF Flight Activity (Flightaware)

Listeners: 0 out of 1904 total

Midland Clearance Delivery: 118.050
Midland Ground: 121.900

KMAF Ground (Archives)
Midland, Texas, United States

Feed Status: UP
Listen in your browser - HTML5 player(in browser, HTML5)
Click here to listen with your own player(launches your MP3 player)

KMAF 221853Z 04009KT 10SM BKN040 OVC065 17/01 A3028 RMK AO2 SLP223 T01720011

KMAF Airport Info (Airnav.com)

KMAF Flight Activity (Flightaware)

Listeners: 0 out of 1904 total

Midland Ground: 121.900

KMAF Tower (Archives)
Midland, Texas, United States

Feed Status: UP
Listen in your browser - HTML5 player(in browser, HTML5)
Click here to listen with your own player(launches your MP3 player)

KMAF 221853Z 04009KT 10SM BKN040 OVC065 17/01 A3028 RMK AO2 SLP223 T01720011

KMAF Airport Info (Airnav.com)

KMAF Flight Activity (Flightaware)

Listeners: 0 out of 1904 total

Midland Tower: 118.700

KMDW App/Dep (Archives)
Chicago, Illinois, United States

Feed Status: UP
Listen in your browser - HTML5 player(in browser, HTML5)
Click here to listen with your own player(launches your MP3 player)

KORD 221851Z 30014G22KT 10SM SCT060 BKN250 17/01 A3028 RMK AO2 SLP255 T01670011

KORD Airport Info (Airnav.com)

KORD Flight Activity (Flightaware)

Listeners: 1 out of 1904 total

Chicago Approach/Departure (South Satellite Sector 1): 128.200
Chicago Approach/Departure (South Satellite Sector 2): 119.350

KMDW ATIS (Archives)
Chicago, Illinois, United States

Feed Status: UP
Listen in your browser - HTML5 player(in browser, HTML5)
Click here to listen with your own player(launches your MP3 player)

KMDW 221853Z 33009G19KT 10SM BKN060 BKN250 17/02 A3029 RMK AO2 SLP255 T01720022 $

KMDW Airport Info (Airnav.com)

KMDW Flight Activity (Flightaware)

Listeners: 0 out of 1904 total

Midway ATIS: 132.750

KMDW Clearance/Metering (Archives)
Chicago, Illinois, United States

Feed Status: UP
Listen in your browser - HTML5 player(in browser, HTML5)
Click here to listen with your own player(launches your MP3 player)

KMDW 221853Z 33009G19KT 10SM BKN060 BKN250 17/02 A3029 RMK AO2 SLP255 T01720022 $

KMDW Airport Info (Airnav.com)

KMDW Flight Activity (Flightaware)

Listeners: 0 out of 1904 total

Midway Clearance Delivery/Metering: 124.625

KMDW Ground (Archives)
Chicago, Illinois, United States

Feed Status: UP
Listen in your browser - HTML5 player(in browser, HTML5)
Click here to listen with your own player(launches your MP3 player)

KMDW 221853Z 33009G19KT 10SM BKN060 BKN250 17/02 A3029 RMK AO2 SLP255 T01720022 $

KMDW Airport Info (Airnav.com)

KMDW Flight Activity (Flightaware)

Listeners: 2 out of 1904 total

Midway Ground: 121.650

KMDW Tower (Archives)
Chicago, Illinois, United States

Feed Status: UP
Listen in your browser - HTML5 player(in browser, HTML5)
Click here to listen with your own player(launches your MP3 player)

KMDW 221853Z 33009G19KT 10SM BKN060 BKN250 17/02 A3029 RMK AO2 SLP255 T01720022 $

KMDW Airport Info (Airnav.com)

KMDW Flight Activity (Flightaware)

Listeners: 13 out of 1904 total

Midway Tower: 135.200

KMGY App/Dep (Archives)
Dayton, Ohio, United States

Feed Status: UP
Listen in your browser - HTML5 player(in browser, HTML5)
Click here to listen with your own player(launches your MP3 player)

KMGY 221853Z AUTO 32010KT 10SM SCT035 BKN044 BKN060 20/11 A3022 RMK AO2 SLP229 T02000106

KMGY Airport Info (Airnav.com)

KMGY Flight Activity (Flightaware)

Listeners: 0 out of 1904 total

Dayton Approach/Departure: 118.850

NORCAL App (EXPO/127.4) (Archives)
Sacramento, California, United States

Feed Status: UP
Listen in your browser - HTML5 player(in browser, HTML5)
Click here to listen with your own player(launches your MP3 player)

KMHR 221915Z AUTO VRB05KT 10SM CLR 27/02 A2997 RMK A01

KMHR Airport Info (Airnav.com)

KMHR Flight Activity (Flightaware)

Listeners: 2 out of 1904 total

NORCAL Approach (EXPO Sector): 127.400

KMHT App/Dep (Fitzy Sector) (Archives)
Manchester, New Hampshire, United States

Feed Status: UP
Listen in your browser - HTML5 player(in browser, HTML5)
Click here to listen with your own player(launches your MP3 player)

KMHT 221853Z 19012KT 10SM FEW060 BKN150 34/17 A2986 RMK AO2 SLP118 T03440172

KMHT Airport Info (Airnav.com)

KMHT Flight Activity (Flightaware)

Listeners: 0 out of 1904 total

Boston Approach (Fitzy Sector): 124.900

KMHT ATIS #1 (Archives)
Manchester, New Hampshire, United States

Feed Status: UP
Listen in your browser - HTML5 player(in browser, HTML5)
Click here to listen with your own player(launches your MP3 player)

KMHT 221853Z 19012KT 10SM FEW060 BKN150 34/17 A2986 RMK AO2 SLP118 T03440172

KMHT Airport Info (Airnav.com)

KMHT Flight Activity (Flightaware)

Listeners: 0 out of 1904 total

Manchester ATIS: 119.550

KMHT ATIS #2
Manchester, New Hampshire, United States

Feed Status: DOWN
Offline since: 2022-05-18 10:25:22 UTC

KMHT 221853Z 19012KT 10SM FEW060 BKN150 34/17 A2986 RMK AO2 SLP118 T03440172

KMHT Airport Info (Airnav.com)

Manchester ATIS: 119.550

KMHT Boston App/Dep #1
Manchester, New Hampshire, United States

Feed Status: DOWN
Offline since: 2022-05-18 10:24:39 UTC

KMHT 221853Z 19012KT 10SM FEW060 BKN150 34/17 A2986 RMK AO2 SLP118 T03440172

KMHT Airport Info (Airnav.com)

Boston Approach (backup): 125.825
Boston Approach (Fitzy Sector): 124.900
Boston Approach (MHT/West Sector): 134.750
Boston Approach (Tommy Sector): 127.350

KMHT Boston App/Dep #2 (Archives)
Manchester, New Hampshire, United States

Feed Status: UP
Listen in your browser - HTML5 player(in browser, HTML5)
Click here to listen with your own player(launches your MP3 player)

KMHT 221853Z 19012KT 10SM FEW060 BKN150 34/17 A2986 RMK AO2 SLP118 T03440172

KMHT Airport Info (Airnav.com)

KMHT Flight Activity (Flightaware)

Listeners: 0 out of 1904 total

Boston Approach (Fitzy Sector): 124.900
Boston Approach (MHT/West Sector): 134.750
Boston Approach (Tommy Sector): 127.350

KMHT Boston App/Dep #3 (Archives)
Manchester, New Hampshire, United States

Feed Status: UP
Listen in your browser - HTML5 player(in browser, HTML5)
Click here to listen with your own player(launches your MP3 player)

KASH 221856Z VRB06G14KT 10SM SCT030 33/18 A2988 RMK AO2 SLP121 T03330178

KASH Airport Info (Airnav.com)

KASH Flight Activity (Flightaware)

Listeners: 0 out of 1904 total

Boston Approach (Fitzy Sector): 124.900

KMHT Del/Gnd/Twr
Manchester, New Hampshire, United States

Feed Status: DOWN
Offline since: 2022-05-18 10:24:39 UTC

KMHT 221853Z 19012KT 10SM FEW060 BKN150 34/17 A2986 RMK AO2 SLP118 T03440172

KMHT Airport Info (Airnav.com)

Airport Response 01: 158.730
Airport Response 02: 158.340
Airport Response 03: 159.720
Manchester Clearance Delivery: 135.900
Manchester Ground: 121.900
Manchester Tower: 121.300

KMHT Del/Gnd/Twr #2 (Archives)
Manchester, New Hampshire, United States

Feed Status: UP
Listen in your browser - HTML5 player(in browser, HTML5)
Click here to listen with your own player(launches your MP3 player)

KMHT 221853Z 19012KT 10SM FEW060 BKN150 34/17 A2986 RMK AO2 SLP118 T03440172

KMHT Airport Info (Airnav.com)

KMHT Flight Activity (Flightaware)

Listeners: 0 out of 1904 total

Manchester Clearance Delivery: 135.900
Manchester Ground: 121.900
Manchester Tower: 121.300

KMHT Del/Gnd/Twr/App
Manchester, New Hampshire, United States

Feed Status: DOWN
Offline since: 2022-05-18 10:25:22 UTC

KMHT 221853Z 19012KT 10SM FEW060 BKN150 34/17 A2986 RMK AO2 SLP118 T03440172

KMHT Airport Info (Airnav.com)

Airport Response 01: 158.730
Airport Response 02: 158.340
Airport Response 03: 159.720
Boston Approach (backup): 125.825
Boston Approach (Fitzy Sector): 124.900
Boston Approach (MHT/West Sector): 134.750
Emergency/Guard: 121.500
Manchester Clearance Delivery: 135.900
Manchester Ground: 121.900
Manchester Tower: 121.300

KMHT Ground
Manchester, New Hampshire, United States

Feed Status: DOWN
Offline since: 2022-05-18 10:25:22 UTC

KMHT 221853Z 19012KT 10SM FEW060 BKN150 34/17 A2986 RMK AO2 SLP118 T03440172

KMHT Airport Info (Airnav.com)

Manchester Ground: 121.900

KMHT Tower #1
Manchester, New Hampshire, United States

Feed Status: DOWN
Offline since: 2022-05-18 10:25:22 UTC

KMHT 221853Z 19012KT 10SM FEW060 BKN150 34/17 A2986 RMK AO2 SLP118 T03440172

KMHT Airport Info (Airnav.com)

Manchester Tower: 121.300

KMHT Tower #2 (Archives)
Manchester, New Hampshire, United States

Feed Status: UP
Listen in your browser - HTML5 player(in browser, HTML5)
Click here to listen with your own player(launches your MP3 player)

KMHT 221853Z 19012KT 10SM FEW060 BKN150 34/17 A2986 RMK AO2 SLP118 T03440172

KMHT Airport Info (Airnav.com)

KMHT Flight Activity (Flightaware)

Listeners: 0 out of 1904 total

Manchester Tower: 121.300

KMHT Tower #3 (Archives)
Manchester, New Hampshire, United States

Feed Status: UP
Listen in your browser - HTML5 player(in browser, HTML5)
Click here to listen with your own player(launches your MP3 player)

KMHT 221853Z 19012KT 10SM FEW060 BKN150 34/17 A2986 RMK AO2 SLP118 T03440172

KMHT Airport Info (Airnav.com)

KMHT Flight Activity (Flightaware)

Listeners: 0 out of 1904 total

Manchester Tower: 121.300

KMKE Approach/Departure (Archives)
Milwaukee, Wisconsin, United States

Feed Status: UP
Listen in your browser - HTML5 player(in browser, HTML5)
Click here to listen with your own player(launches your MP3 player)

KMKE 221852Z 33013G22KT 10SM SCT065 BKN250 17/00 A3027 RMK AO2 SLP253 T01670000

KMKE Airport Info (Airnav.com)

KMKE Flight Activity (Flightaware)

Listeners: 0 out of 1904 total

Milwaukee Approach: 118.000
Milwaukee Approach: 125.350
Milwaukee Approach: 126.500

KMKE Ground (Archives)
Milwaukee, Wisconsin, United States

Feed Status: UP
Listen in your browser - HTML5 player(in browser, HTML5)
Click here to listen with your own player(launches your MP3 player)

KMKE 221852Z 33013G22KT 10SM SCT065 BKN250 17/00 A3027 RMK AO2 SLP253 T01670000

KMKE Airport Info (Airnav.com)

KMKE Flight Activity (Flightaware)

Listeners: 0 out of 1904 total

Milwaukee Ground: 121.800
Muskegon Ground: 121.600
Timmerman Ground: 121.700

KMKE Tower (Archives)
Milwaukee, Wisconsin, United States

Feed Status: UP
Listen in your browser - HTML5 player(in browser, HTML5)
Click here to listen with your own player(launches your MP3 player)

KMKE 221852Z 33013G22KT 10SM SCT065 BKN250 17/00 A3027 RMK AO2 SLP253 T01670000

KMKE Airport Info (Airnav.com)

KMKE Flight Activity (Flightaware)

Listeners: 1 out of 1904 total

Milwaukee Tower: 124.575

KMLI Del/Gnd/Twr/App (Archives)
Moline, Illinois, United States

Feed Status: UP
Listen in your browser - HTML5 player(in browser, HTML5)
Click here to listen with your own player(launches your MP3 player)

KMLI 221852Z 32007G22KT 10SM CLR 19/03 A3030 RMK AO2 SLP262 T01890028

KMLI Airport Info (Airnav.com)

KMLI Flight Activity (Flightaware)

Listeners: 0 out of 1904 total

Quad City Approach (N/NE): 125.950
Quad City Approach (S/SE): 133.275
Quad City Clearance: 124.050
Quad City Ground: 121.900
Quad City Tower: 119.400

KMOB Gnd/Twr/App
Mobile, Alabama, United States

Feed Status: DOWN
Offline since: 2021-10-23 13:55:05 UTC

KMOB 221856Z 08009KT 7SM FEW018 BKN100 OVC120 27/21 A3009 RMK AO2 SLP187 T02670211 $

KMOB Airport Info (Airnav.com)

Mobile Approach/Departure East (320-139): 118.500
Mobile Approach/Departure West (140-319): 121.000
Mobile Clearance Delivery: 119.850
Mobile Ground: 121.900
Mobile Tower: 118.300

KMRY App/Dep (Archives)
Monterey, California, United States

Feed Status: UP
Listen in your browser - HTML5 player(in browser, HTML5)
Click here to listen with your own player(launches your MP3 player)

KMRY 221854Z 30009KT 8SM FEW009 16/08 A3008 RMK AO2 SLP196 T01560083

KMRY Airport Info (Airnav.com)

KMRY Flight Activity (Flightaware)

Listeners: 0 out of 1904 total

NORCAL Approach (Fremont Sector/Monterey West): 133.000
NORCAL Approach (Seca Sector/Monterey East): 127.150

KMRY ATIS (Archives)
Monterey, California, United States

Feed Status: UP
Listen in your browser - HTML5 player(in browser, HTML5)
Click here to listen with your own player(launches your MP3 player)

KMRY 221854Z 30009KT 8SM FEW009 16/08 A3008 RMK AO2 SLP196 T01560083

KMRY Airport Info (Airnav.com)

KMRY Flight Activity (Flightaware)

Listeners: 0 out of 1904 total

Monterey ATIS: 119.250

KMRY Del/Gnd/Twr (Archives)
Monterey, California, United States

Feed Status: UP
Listen in your browser - HTML5 player(in browser, HTML5)
Click here to listen with your own player(launches your MP3 player)

KMRY 221854Z 30009KT 8SM FEW009 16/08 A3008 RMK AO2 SLP196 T01560083

KMRY Airport Info (Airnav.com)

KMRY Flight Activity (Flightaware)

Listeners: 4 out of 1904 total

Monterey Clearance Delivery: 135.450
Monterey Ground: 120.875
Monterey Tower: 118.400

KMSN Approach/Departure (Archives)
Madison, Wisconsin, United States

Feed Status: UP
Listen in your browser - HTML5 player(in browser, HTML5)
Click here to listen with your own player(launches your MP3 player)

KMSN 221853Z 31011G19KT 10SM BKN070 BKN250 15/M01 A3029 RMK AO2 SLP259 T01501011

KMSN Airport Info (Airnav.com)

KMSN Flight Activity (Flightaware)

Listeners: 0 out of 1904 total

Madison Approach/Departure: 120.100
Madison Approach/Departure: 135.450

KMSN ATIS (Archives)
Madison, Wisconsin, United States

Feed Status: UP
Listen in your browser - HTML5 player(in browser, HTML5)
Click here to listen with your own player(launches your MP3 player)

KMSN 221853Z 31011G19KT 10SM BKN070 BKN250 15/M01 A3029 RMK AO2 SLP259 T01501011

KMSN Airport Info (Airnav.com)

KMSN Flight Activity (Flightaware)

Listeners: 0 out of 1904 total

Madison ATIS: 124.650

KMSN Clearance Delivery (Archives)
Madison, Wisconsin, United States

Feed Status: UP
Listen in your browser - HTML5 player(in browser, HTML5)
Click here to listen with your own player(launches your MP3 player)

KMSN 221853Z 31011G19KT 10SM BKN070 BKN250 15/M01 A3029 RMK AO2 SLP259 T01501011

KMSN Airport Info (Airnav.com)

KMSN Flight Activity (Flightaware)

Listeners: 0 out of 1904 total

Madison Clearance Delivery: 121.625

KMSN Emergency/Guard (Archives)
Madison, Wisconsin, United States

Feed Status: UP
Listen in your browser - HTML5 player(in browser, HTML5)
Click here to listen with your own player(launches your MP3 player)

KMSN 221853Z 31011G19KT 10SM BKN070 BKN250 15/M01 A3029 RMK AO2 SLP259 T01501011

KMSN Airport Info (Airnav.com)

KMSN Flight Activity (Flightaware)

Listeners: 0 out of 1904 total

Emergency/Guard: 121.500

KMSN Ground (Archives)
Madison, Wisconsin, United States

Feed Status: UP
Listen in your browser - HTML5 player(in browser, HTML5)
Click here to listen with your own player(launches your MP3 player)

KMSN 221853Z 31011G19KT 10SM BKN070 BKN250 15/M01 A3029 RMK AO2 SLP259 T01501011

KMSN Airport Info (Airnav.com)

KMSN Flight Activity (Flightaware)

Listeners: 0 out of 1904 total

Madison Ground: 121.900

KMSN Tower (Archives)
Madison, Wisconsin, United States

Feed Status: UP
Listen in your browser - HTML5 player(in browser, HTML5)
Click here to listen with your own player(launches your MP3 player)

KMSN 221853Z 31011G19KT 10SM BKN070 BKN250 15/M01 A3029 RMK AO2 SLP259 T01501011

KMSN Airport Info (Airnav.com)

KMSN Flight Activity (Flightaware)

Listeners: 0 out of 1904 total

Madison Tower: 119.300

KMSN Twr/App (Archives)
Madison, Wisconsin, United States

Feed Status: UP
Listen in your browser - HTML5 player(in browser, HTML5)
Click here to listen with your own player(launches your MP3 player)

KMSN 221853Z 31011G19KT 10SM BKN070 BKN250 15/M01 A3029 RMK AO2 SLP259 T01501011

KMSN Airport Info (Airnav.com)

KMSN Flight Activity (Flightaware)

Listeners: 0 out of 1904 total

Emergency / GUARD: 121.500
Madison Approach (East): 120.100
Madison Approach (West): 135.450
Madison Tower: 119.300

KMYR Gnd/Twr/App (Archives)
Myrtle Beach, South Carolina, United States

Feed Status: UP
Listen in your browser - HTML5 player(in browser, HTML5)
Click here to listen with your own player(launches your MP3 player)

KMYR 221911Z 24007KT 9SM VCTS -RA FEW017 BKN065 OVC090 22/21 A3024 RMK AO2 WSHFT 1846 LTG DSNT E-S P0004

KMYR Airport Info (Airnav.com)

KMYR Flight Activity (Flightaware)

Listeners: 3 out of 1904 total

Myrtle Beach Approach/Departure: 119.200
Myrtle Beach Approach/Departure: 127.400
Myrtle Beach ATIS (top of hour): 123.925
Myrtle Beach Ground: 120.300
Myrtle Beach Tower: 128.450

KMYR Gnd/Twr/App (UHF) (Archives)
Myrtle Beach, South Carolina, United States

Feed Status: UP
Listen in your browser - HTML5 player(in browser, HTML5)
Click here to listen with your own player(launches your MP3 player)

KMYR 221911Z 24007KT 9SM VCTS -RA FEW017 BKN065 OVC090 22/21 A3024 RMK AO2 WSHFT 1846 LTG DSNT E-S P0004

KMYR Airport Info (Airnav.com)

KMYR Flight Activity (Flightaware)

Listeners: 0 out of 1904 total

Emergency/Guard: 243.000
Myrtle Beach Approach/Departure (171-321 degrees) : 257.950
Myrtle Beach Approach/Departure (322-170 degrees): 350.300
Myrtle Beach Ground: 275.800
Myrtle Beach Tower: 259.300
PMSV (Pilot-to-Meteorological Service): 239.800

KNDZ/KNSE Twr/App (Archives)
Milton, Florida, United States

Feed Status: UP
Listen in your browser - HTML5 player(in browser, HTML5)
Click here to listen with your own player(launches your MP3 player)

KPNS 221853Z 10004KT 10SM -RA BKN065 BKN090 A3011 RMK AO2 RAB53 SLPNO P0000 $

KPNS Airport Info (Airnav.com)

KPNS Flight Activity (Flightaware)

Listeners: 0 out of 1904 total

Pensacola Approach: 235.750
Pensacola Approach: 124.850
Pensacola Approach: 127.350
Pensacola Approach: 125.350
Pensacola Approach: 298.900
Pensacola Approach: 278.800
Radar: 290.100
Radar: 278.100
Radar: 362.200
Sherman Tower: 340.200
Whiting North Tower: 306.925
Whiting South Tower: 348.675

KNDZ/KNSE Twr/App (Archives)
Pensacola, Florida, United States

Feed Status: UP
Listen in your browser - HTML5 player(in browser, HTML5)
Click here to listen with your own player(launches your MP3 player)

KPNS 221853Z 10004KT 10SM -RA BKN065 BKN090 A3011 RMK AO2 RAB53 SLPNO P0000 $

KPNS Airport Info (Airnav.com)

KPNS Flight Activity (Flightaware)

Listeners: 0 out of 1904 total

Pensacola Approach: 235.750
Pensacola Approach: 124.850
Pensacola Approach: 127.350
Pensacola Approach: 125.350
Pensacola Approach: 298.900
Pensacola Approach: 278.800
Radar: 290.100
Radar: 278.100
Radar: 362.200
Sherman Tower: 340.200
Whiting North Tower: 306.925
Whiting South Tower: 348.675

KPNS App/Dep 120.65 (Archives)
Pensacola, Florida, United States

Feed Status: UP
Listen in your browser - HTML5 player(in browser, HTML5)
Click here to listen with your own player(launches your MP3 player)

KPNS 221853Z 10004KT 10SM -RA BKN065 BKN090 A3011 RMK AO2 RAB53 SLPNO P0000 $

KPNS Airport Info (Airnav.com)

KPNS Flight Activity (Flightaware)

Listeners: 0 out of 1904 total

Pensacola Approach/Departure: 120.650

KNDZ/KNSE Twr/App (Archives)
Milton, Florida, United States

Feed Status: UP
Listen in your browser - HTML5 player(in browser, HTML5)
Click here to listen with your own player(launches your MP3 player)

KPNS 221853Z 10004KT 10SM -RA BKN065 BKN090 A3011 RMK AO2 RAB53 SLPNO P0000 $

KPNS Airport Info (Airnav.com)

KPNS Flight Activity (Flightaware)

Listeners: 0 out of 1904 total

Pensacola Approach: 235.750
Pensacola Approach: 124.850
Pensacola Approach: 127.350
Pensacola Approach: 125.350
Pensacola Approach: 298.900
Pensacola Approach: 278.800
Radar: 290.100
Radar: 278.100
Radar: 362.200
Sherman Tower: 340.200
Whiting North Tower: 306.925
Whiting South Tower: 348.675

KOAK Del/Gnd/Twr (Archives)
Oakland, California, United States

Feed Status: UP
Listen in your browser - HTML5 player(in browser, HTML5)
Click here to listen with your own player(launches your MP3 player)

KOAK 221853Z 27010KT 10SM FEW220 19/08 A3005 RMK AO2 SLP177 T01940083

KOAK Airport Info (Airnav.com)

KOAK Flight Activity (Flightaware)

Listeners: 0 out of 1904 total

Oakland Clearance Delivery: 121.100
Oakland Ground: 121.750
Oakland Ground (North): 121.900
Oakland Tower: 127.200
Oakland Tower (Runways 28L/10R, 28R/10L, 33/15): 118.300

NORCAL Approach (KOAK) (Archives)
Oakland, California, United States

Feed Status: UP
Listen in your browser - HTML5 player(in browser, HTML5)
Click here to listen with your own player(launches your MP3 player)

KOAK 221853Z 27010KT 10SM FEW220 19/08 A3005 RMK AO2 SLP177 T01940083

KOAK Airport Info (Airnav.com)

KOAK Flight Activity (Flightaware)

Listeners: 1 out of 1904 total

NORCAL Approach (KOAK Rwy 29/27R Final): 125.350
NORCAL Approach (Mulford Sector): 124.400

NORCAL Departure (KSFO/KOAK) (Archives)
Oakland, California, United States

Feed Status: UP
Listen in your browser - HTML5 player(in browser, HTML5)
Click here to listen with your own player(launches your MP3 player)

KOAK 221853Z 27010KT 10SM FEW220 19/08 A3005 RMK AO2 SLP177 T01940083

KOAK Airport Info (Airnav.com)

KOAK Flight Activity (Flightaware)

Listeners: 3 out of 1904 total

NORCAL Departure (Northeast Departures): 120.900
NORCAL Departure (Northeast Departures): 127.000
NORCAL Departure (Southwest Departures): 127.975
NORCAL Departure (Southwest Departures): 135.100

KOCF Gnd/Twr/App (Archives)
Ocala, Florida, United States

Feed Status: UP
Listen in your browser - HTML5 player(in browser, HTML5)
Click here to listen with your own player(launches your MP3 player)

KOCF 221851Z 13007KT 10SM BKN037 BKN046 32/23 A3019 RMK AO2 SLP221 T03170233 $

KOCF Airport Info (Airnav.com)

KOCF Flight Activity (Flightaware)

Listeners: 0 out of 1904 total

Jacksonville Approach (OCF RCO): 118.600
Ocala Ground: 121.400
Ocala Tower: 119.250
UNICOM: 123.000

KOFF Gnd/Twr/App/ZMP (Archives)
Omaha, Nebraska, United States

Feed Status: UP
Listen in your browser - HTML5 player(in browser, HTML5)
Click here to listen with your own player(launches your MP3 player)

KOFF 221856Z 28008G18KT 10SM FEW065 18/00 A3038 RMK AO2A SLP294 T01840000 CHINO RWY12 $

KOFF Airport Info (Airnav.com)

KOFF Flight Activity (Flightaware)

Listeners: 1 out of 1904 total

Emergency/Guard: 121.500
Minneapolis Center (Sector 27 Low): 119.600
Offutt AFB Ground: 121.700
Offutt AFB Tower: 123.700
Omaha Approach/Departure (East): 124.500
Omaha Approach/Departure (West): 120.100

KOKC App/Dep (NE) (Archives)
Oklahoma City, Oklahoma, United States

Feed Status: UP
Listen in your browser - HTML5 player(in browser, HTML5)
Click here to listen with your own player(launches your MP3 player)

KOKC 221852Z 04012G19KT 10SM FEW070 BKN250 19/03 A3029 RMK AO2 SLP251 T01890033

KOKC Airport Info (Airnav.com)

KOKC Flight Activity (Flightaware)

Listeners: 0 out of 1904 total

Oke City Approach/Departure: 124.200

KOKC App/Dep (SW) (Archives)
Oklahoma City, Oklahoma, United States

Feed Status: UP
Listen in your browser - HTML5 player(in browser, HTML5)
Click here to listen with your own player(launches your MP3 player)

KOKC 221852Z 04012G19KT 10SM FEW070 BKN250 19/03 A3029 RMK AO2 SLP251 T01890033

KOKC Airport Info (Airnav.com)

KOKC Flight Activity (Flightaware)

Listeners: 0 out of 1904 total

Oke City Approach/Departure: 124.600

KOKC ATIS (Archives)
Oklahoma City, Oklahoma, United States

Feed Status: UP
Listen in your browser - HTML5 player(in browser, HTML5)
Click here to listen with your own player(launches your MP3 player)

KOKC 221852Z 04012G19KT 10SM FEW070 BKN250 19/03 A3029 RMK AO2 SLP251 T01890033

KOKC Airport Info (Airnav.com)

KOKC Flight Activity (Flightaware)

Listeners: 0 out of 1904 total

Rogers ATIS: 125.850

KOKC Clearance Delivery (Archives)
Oklahoma City, Oklahoma, United States

Feed Status: UP
Listen in your browser - HTML5 player(in browser, HTML5)
Click here to listen with your own player(launches your MP3 player)

KOKC 221852Z 04012G19KT 10SM FEW070 BKN250 19/03 A3029 RMK AO2 SLP251 T01890033

KOKC Airport Info (Airnav.com)

KOKC Flight Activity (Flightaware)

Listeners: 0 out of 1904 total

Rogers Clearance Delivery: 124.350

KOKC Emergency/Guard (Archives)
Oklahoma City, Oklahoma, United States

Feed Status: UP
Listen in your browser - HTML5 player(in browser, HTML5)
Click here to listen with your own player(launches your MP3 player)

KOKC 221852Z 04012G19KT 10SM FEW070 BKN250 19/03 A3029 RMK AO2 SLP251 T01890033

KOKC Airport Info (Airnav.com)

KOKC Flight Activity (Flightaware)

Listeners: 0 out of 1904 total

Emergency/Guard: 121.500

KOKC Ground (Archives)
Oklahoma City, Oklahoma, United States

Feed Status: UP
Listen in your browser - HTML5 player(in browser, HTML5)
Click here to listen with your own player(launches your MP3 player)

KOKC 221852Z 04012G19KT 10SM FEW070 BKN250 19/03 A3029 RMK AO2 SLP251 T01890033

KOKC Airport Info (Airnav.com)

KOKC Flight Activity (Flightaware)

Listeners: 0 out of 1904 total

Rogers Ground: 121.900

KOKC Tower (Archives)
Oklahoma City, Oklahoma, United States

Feed Status: UP
Listen in your browser - HTML5 player(in browser, HTML5)
Click here to listen with your own player(launches your MP3 player)

KOKC 221852Z 04012G19KT 10SM FEW070 BKN250 19/03 A3029 RMK AO2 SLP251 T01890033

KOKC Airport Info (Airnav.com)

KOKC Flight Activity (Flightaware)

Listeners: 0 out of 1904 total

Rogers Tower: 119.350
Rogers Tower: 120.250
Rogers Tower (UHF): 269.450

KOMA Del/Gnd/Twr (Archives)
Omaha, Nebraska, United States

Feed Status: UP
Listen in your browser - HTML5 player(in browser, HTML5)
Click here to listen with your own player(launches your MP3 player)

KOMA 221852Z 31012G22KT 10SM FEW065 FEW140 19/02 A3036 RMK AO2 SLP281 T01890017

KOMA Airport Info (Airnav.com)

KOMA Flight Activity (Flightaware)

Listeners: 3 out of 1904 total

Omaha Clearance Delivery: 119.900
Omaha Ground: 121.900
Omaha Tower: 132.100

KONT Del/Gnd/Twr/App #1 (Archives)
Ontario, California, United States

Feed Status: UP
Listen in your browser - HTML5 player(in browser, HTML5)
Click here to listen with your own player(launches your MP3 player)

KONT 221853Z 24008KT 10SM CLR 22/11 A3000 RMK AO2 SLP149 T02220111

KONT Airport Info (Airnav.com)

KONT Flight Activity (Flightaware)

Listeners: 0 out of 1904 total

Ontario Clearance Delivery: 118.100
Ontario Ground: 121.900
Ontario Tower: 120.600
SOCAL Approach/Departure (N-NE): 127.000
SOCAL Approach/Departure (NE-S): 134.000
SOCAL Approach/Departure (S-SW): 135.400
SOCAL Approach/Departure (SW-N): 125.500

KONT Delivery (Archives)
Ontario, California, United States

Feed Status: UP
Listen in your browser - HTML5 player(in browser, HTML5)
Click here to listen with your own player(launches your MP3 player)

KONT 221853Z 24008KT 10SM CLR 22/11 A3000 RMK AO2 SLP149 T02220111

KONT Airport Info (Airnav.com)

KONT Flight Activity (Flightaware)

Listeners: 0 out of 1904 total

Ontario Clearance Delivery: 118.100

KONT Ground (Archives)
Ontario, California, United States

Feed Status: UP
Listen in your browser - HTML5 player(in browser, HTML5)
Click here to listen with your own player(launches your MP3 player)

KONT 221853Z 24008KT 10SM CLR 22/11 A3000 RMK AO2 SLP149 T02220111

KONT Airport Info (Airnav.com)

KONT Flight Activity (Flightaware)

Listeners: 0 out of 1904 total

Ontario Ground: 121.900

KONT Tower (Archives)
Ontario, California, United States

Feed Status: UP
Listen in your browser - HTML5 player(in browser, HTML5)
Click here to listen with your own player(launches your MP3 player)

KONT 221853Z 24008KT 10SM CLR 22/11 A3000 RMK AO2 SLP149 T02220111

KONT Airport Info (Airnav.com)

KONT Flight Activity (Flightaware)

Listeners: 0 out of 1904 total

Ontario Tower: 120.600

SOCAL App/Dep (KONT NE) (Archives)
Ontario, California, United States

Feed Status: UP
Listen in your browser - HTML5 player(in browser, HTML5)
Click here to listen with your own player(launches your MP3 player)

KONT 221853Z 24008KT 10SM CLR 22/11 A3000 RMK AO2 SLP149 T02220111

KONT Airport Info (Airnav.com)

KONT Flight Activity (Flightaware)

Listeners: 0 out of 1904 total

SOCAL Approach/Departure (N-NE): 127.000

SOCAL App/Dep (KONT NW) (Archives)
Ontario, California, United States

Feed Status: UP
Listen in your browser - HTML5 player(in browser, HTML5)
Click here to listen with your own player(launches your MP3 player)

KONT 221853Z 24008KT 10SM CLR 22/11 A3000 RMK AO2 SLP149 T02220111

KONT Airport Info (Airnav.com)

KONT Flight Activity (Flightaware)

Listeners: 0 out of 1904 total

SOCAL Approach/Departure (SW-N): 125.500

SOCAL App/Dep (KONT SE) (Archives)
Ontario, California, United States

Feed Status: UP
Listen in your browser - HTML5 player(in browser, HTML5)
Click here to listen with your own player(launches your MP3 player)

KONT 221853Z 24008KT 10SM CLR 22/11 A3000 RMK AO2 SLP149 T02220111

KONT Airport Info (Airnav.com)

KONT Flight Activity (Flightaware)

Listeners: 0 out of 1904 total

SOCAL Approach/Departure (NE-S): 134.000

SOCAL App/Dep (KONT SW) (Archives)
Ontario, California, United States

Feed Status: UP
Listen in your browser - HTML5 player(in browser, HTML5)
Click here to listen with your own player(launches your MP3 player)

KONT 221853Z 24008KT 10SM CLR 22/11 A3000 RMK AO2 SLP149 T02220111

KONT Airport Info (Airnav.com)

KONT Flight Activity (Flightaware)

Listeners: 0 out of 1904 total

SOCAL Approach/Departure (S-SW): 135.400

KORF App/Dep (125.2) (Archives)
Norfolk, Virginia, United States

Feed Status: UP
Listen in your browser - HTML5 player(in browser, HTML5)
Click here to listen with your own player(launches your MP3 player)

KORF 221851Z 22014G19KT 10SM CLR 31/22 A3006 RMK AO2 SLP177 T03110217

KORF Airport Info (Airnav.com)

KORF Flight Activity (Flightaware)

Listeners: 0 out of 1904 total

Norfolk Approach/Departure: 125.200

KORF App/Dep (126.05) (Archives)
Norfolk, Virginia, United States

Feed Status: UP
Listen in your browser - HTML5 player(in browser, HTML5)
Click here to listen with your own player(launches your MP3 player)

KORF 221851Z 22014G19KT 10SM CLR 31/22 A3006 RMK AO2 SLP177 T03110217

KORF Airport Info (Airnav.com)

KORF Flight Activity (Flightaware)

Listeners: 0 out of 1904 total

Norfolk Approach/Departure: 126.050

KORF ATIS (Archives)
Norfolk, Virginia, United States

Feed Status: UP
Listen in your browser - HTML5 player(in browser, HTML5)
Click here to listen with your own player(launches your MP3 player)

KORF 221851Z 22014G19KT 10SM CLR 31/22 A3006 RMK AO2 SLP177 T03110217

KORF Airport Info (Airnav.com)

KORF Flight Activity (Flightaware)

Listeners: 0 out of 1904 total

Norfolk ATIS: 127.150

KORF Gnd/Twr/App/Radar (Archives)
Norfolk, Virginia, United States

Feed Status: UP
Listen in your browser - HTML5 player(in browser, HTML5)
Click here to listen with your own player(launches your MP3 player)

KORF 221851Z 22014G19KT 10SM CLR 31/22 A3006 RMK AO2 SLP177 T03110217

KORF Airport Info (Airnav.com)

KORF Flight Activity (Flightaware)

Listeners: 1 out of 1904 total

Norfolk Approach: 119.450
Norfolk Approach: 335.625
Norfolk Approach: 118.900
Norfolk Approach: 353.700
Norfolk Approach/Departure: 126.050
Norfolk Approach/Departure: 125.200
Norfolk Approach/Departure: 127.900
Norfolk Approach/Departure (Discrete): 128.050
Norfolk Approach/Departure (East): 370.925
Norfolk Approach/Departure (West): 360.600
Norfolk Clearance Delivery: 118.500
Norfolk Departure: 379.100
Norfolk Departure: 363.125
Norfolk Ground: 121.900
Norfolk Ground (alternate): 123.950
Norfolk Radar: 124.825
Norfolk Radar: 119.600
Norfolk Radar: 266.800
Norfolk Radar: 288.300
Norfolk Tower: 120.800
Norfolk Tower: 257.800

KORF Ground (Archives)
Norfolk, Virginia, United States

Feed Status: UP
Listen in your browser - HTML5 player(in browser, HTML5)
Click here to listen with your own player(launches your MP3 player)

KORF 221851Z 22014G19KT 10SM CLR 31/22 A3006 RMK AO2 SLP177 T03110217

KORF Airport Info (Airnav.com)

KORF Flight Activity (Flightaware)

Listeners: 0 out of 1904 total

Norfolk Ground: 121.900

KORF Tower (Archives)
Norfolk, Virginia, United States

Feed Status: UP
Listen in your browser - HTML5 player(in browser, HTML5)
Click here to listen with your own player(launches your MP3 player)

KORF 221851Z 22014G19KT 10SM CLR 31/22 A3006 RMK AO2 SLP177 T03110217

KORF Airport Info (Airnav.com)

KORF Flight Activity (Flightaware)

Listeners: 0 out of 1904 total

Norfolk Tower: 120.800

KCMH App/Dep (125.95) (Archives)
Columbus, Ohio, United States

Feed Status: UP
Listen in your browser - HTML5 player(in browser, HTML5)
Click here to listen with your own player(launches your MP3 player)

KCMH 221851Z 34010KT 10SM FEW032 BKN065 BKN095 19/13 A3020 RMK AO2 SLP222 T01940133

KCMH Airport Info (Airnav.com)

KCMH Flight Activity (Flightaware)

Listeners: 0 out of 1904 total

Columbus Approach/Departure (North): 125.950

KPBI App (Final) (Archives)
West Palm Beach, Florida, United States

Feed Status: UP
Listen in your browser - HTML5 player(in browser, HTML5)
Click here to listen with your own player(launches your MP3 player)

KPBI 221853Z 12014KT 10SM SCT020 BKN230 31/23 A3020 RMK AO2 SLP224 T03060228

KPBI Airport Info (Airnav.com)

KPBI Flight Activity (Flightaware)

Listeners: 0 out of 1904 total

Palm Beach Approach (PBI Final): 125.000

KPBI App (North) (Archives)
West Palm Beach, Florida, United States

Feed Status: UP
Listen in your browser - HTML5 player(in browser, HTML5)
Click here to listen with your own player(launches your MP3 player)

KPBI 221853Z 12014KT 10SM SCT020 BKN230 31/23 A3020 RMK AO2 SLP224 T03060228

KPBI Airport Info (Airnav.com)

KPBI Flight Activity (Flightaware)

Listeners: 0 out of 1904 total

Palm Beach Approach (North): 124.600

KPBI App (North/South) (Archives)
West Palm Beach, Florida, United States

Feed Status: UP
Listen in your browser - HTML5 player(in browser, HTML5)
Click here to listen with your own player(launches your MP3 player)

KPBI 221853Z 12014KT 10SM SCT020 BKN230 31/23 A3020 RMK AO2 SLP224 T03060228

KPBI Airport Info (Airnav.com)

KPBI Flight Activity (Flightaware)

Listeners: 0 out of 1904 total

Palm Beach Approach (North): 124.600
Palm Beach Approach (South): 125.200

KPBI App (South) (Archives)
West Palm Beach, Florida, United States

Feed Status: UP
Listen in your browser - HTML5 player(in browser, HTML5)
Click here to listen with your own player(launches your MP3 player)

KPBI 221853Z 12014KT 10SM SCT020 BKN230 31/23 A3020 RMK AO2 SLP224 T03060228

KPBI Airport Info (Airnav.com)

KPBI Flight Activity (Flightaware)

Listeners: 0 out of 1904 total

Palm Beach Approach (South): 125.200

KPBI ATIS (Archives)
West Palm Beach, Florida, United States

Feed Status: UP
Listen in your browser - HTML5 player(in browser, HTML5)
Click here to listen with your own player(launches your MP3 player)

KPBI 221853Z 12014KT 10SM SCT020 BKN230 31/23 A3020 RMK AO2 SLP224 T03060228

KPBI Airport Info (Airnav.com)

KPBI Flight Activity (Flightaware)

Listeners: 0 out of 1904 total

West Palm Beach ATIS: 123.750

KPBI Clearance Delivery (Archives)
West Palm Beach, Florida, United States

Feed Status: UP
Listen in your browser - HTML5 player(in browser, HTML5)
Click here to listen with your own player(launches your MP3 player)

KPBI 221853Z 12014KT 10SM SCT020 BKN230 31/23 A3020 RMK AO2 SLP224 T03060228

KPBI Airport Info (Airnav.com)

KPBI Flight Activity (Flightaware)

Listeners: 0 out of 1904 total

Palm Beach Clearance Delivery: 121.600

KPBI Dep (North) (Archives)
West Palm Beach, Florida, United States

Feed Status: UP
Listen in your browser - HTML5 player(in browser, HTML5)
Click here to listen with your own player(launches your MP3 player)

KPBI 221853Z 12014KT 10SM SCT020 BKN230 31/23 A3020 RMK AO2 SLP224 T03060228

KPBI Airport Info (Airnav.com)

KPBI Flight Activity (Flightaware)

Listeners: 0 out of 1904 total

Palm Beach Departure (North): 128.300

KPBI Dep (North/South) (Archives)
West Palm Beach, Florida, United States

Feed Status: UP
Listen in your browser - HTML5 player(in browser, HTML5)
Click here to listen with your own player(launches your MP3 player)

KPBI 221853Z 12014KT 10SM SCT020 BKN230 31/23 A3020 RMK AO2 SLP224 T03060228

KPBI Airport Info (Airnav.com)

KPBI Flight Activity (Flightaware)

Listeners: 0 out of 1904 total

Palm Beach Departure (North): 128.300
Palm Beach Departure (South): 127.350

KPBI Dep (South) (Archives)
West Palm Beach, Florida, United States

Feed Status: UP
Listen in your browser - HTML5 player(in browser, HTML5)
Click here to listen with your own player(launches your MP3 player)

KPBI 221853Z 12014KT 10SM SCT020 BKN230 31/23 A3020 RMK AO2 SLP224 T03060228

KPBI Airport Info (Airnav.com)

KPBI Flight Activity (Flightaware)

Listeners: 0 out of 1904 total

Palm Beach Departure (South): 127.350

KPBI Emergency/Guard (Archives)
West Palm Beach, Florida, United States

Feed Status: UP
Listen in your browser - HTML5 player(in browser, HTML5)
Click here to listen with your own player(launches your MP3 player)

KPBI 221853Z 12014KT 10SM SCT020 BKN230 31/23 A3020 RMK AO2 SLP224 T03060228

KPBI Airport Info (Airnav.com)

KPBI Flight Activity (Flightaware)

Listeners: 0 out of 1904 total

Emergency/Guard: 121.500

KPBI GA Gate Hold (Archives)
West Palm Beach, Florida, United States

Feed Status: UP
Listen in your browser - HTML5 player(in browser, HTML5)
Click here to listen with your own player(launches your MP3 player)

KPBI 221853Z 12014KT 10SM SCT020 BKN230 31/23 A3020 RMK AO2 SLP224 T03060228

KPBI Airport Info (Airnav.com)

KPBI Flight Activity (Flightaware)

Listeners: 0 out of 1904 total

KPBI Gate Hold (General Aviation): 118.750

KPBI Gnd/Twr (Archives)
West Palm Beach, Florida, United States

Feed Status: UP
Listen in your browser - HTML5 player(in browser, HTML5)
Click here to listen with your own player(launches your MP3 player)

KPBI 221853Z 12014KT 10SM SCT020 BKN230 31/23 A3020 RMK AO2 SLP224 T03060228

KPBI Airport Info (Airnav.com)

KPBI Flight Activity (Flightaware)

Listeners: 0 out of 1904 total

Palm Beach Ground: 121.900
Palm Beach Tower: 119.100

KPBI Ground (Archives)
West Palm Beach, Florida, United States

Feed Status: UP
Listen in your browser - HTML5 player(in browser, HTML5)
Click here to listen with your own player(launches your MP3 player)

KPBI 221853Z 12014KT 10SM SCT020 BKN230 31/23 A3020 RMK AO2 SLP224 T03060228

KPBI Airport Info (Airnav.com)

KPBI Flight Activity (Flightaware)

Listeners: 0 out of 1904 total

Palm Beach Ground: 121.900

KPBI Tower (Archives)
West Palm Beach, Florida, United States

Feed Status: UP
Listen in your browser - HTML5 player(in browser, HTML5)
Click here to listen with your own player(launches your MP3 player)

KPBI 221853Z 12014KT 10SM SCT020 BKN230 31/23 A3020 RMK AO2 SLP224 T03060228

KPBI Airport Info (Airnav.com)

KPBI Flight Activity (Flightaware)

Listeners: 0 out of 1904 total

Palm Beach Tower: 119.100

KPDX App/Dep
Portland, Oregon, United States

Feed Status: DOWN
Offline since: 2021-12-29 01:30:05 UTC

KPDX 221853Z 28007KT 10SM FEW050 BKN250 18/08 A3024 RMK AO2 SLP238 T01830083

KPDX Airport Info (Airnav.com)

Portland Approach (100-279 deg): 118.100
Portland Approach (280-099 deg): 124.350

KPDX App/Dep (North) (Archives)
Portland, Oregon, United States

Feed Status: UP
Listen in your browser - HTML5 player(in browser, HTML5)
Click here to listen with your own player(launches your MP3 player)

KPDX 221853Z 28007KT 10SM FEW050 BKN250 18/08 A3024 RMK AO2 SLP238 T01830083

KPDX Airport Info (Airnav.com)

KPDX Flight Activity (Flightaware)

Listeners: 1 out of 1904 total

Portland Approach (280-099 deg): 124.350

KPDX Approach (Final) (Archives)
Portland, Oregon, United States

Feed Status: UP
Listen in your browser - HTML5 player(in browser, HTML5)
Click here to listen with your own player(launches your MP3 player)

KPDX 221853Z 28007KT 10SM FEW050 BKN250 18/08 A3024 RMK AO2 SLP238 T01830083

KPDX Airport Info (Airnav.com)

KPDX Flight Activity (Flightaware)

Listeners: 1 out of 1904 total

Portland Approach (Final): 126.900

KPDX ATIS (Archives)
Portland, Oregon, United States

Feed Status: UP
Listen in your browser - HTML5 player(in browser, HTML5)
Click here to listen with your own player(launches your MP3 player)

KPDX 221853Z 28007KT 10SM FEW050 BKN250 18/08 A3024 RMK AO2 SLP238 T01830083

KPDX Airport Info (Airnav.com)

KPDX Flight Activity (Flightaware)

Listeners: 0 out of 1904 total

Portland ATIS: 128.350

KPDX Clearance Delivery (Archives)
Portland, Oregon, United States

Feed Status: UP
Listen in your browser - HTML5 player(in browser, HTML5)
Click here to listen with your own player(launches your MP3 player)

KPDX 221853Z 28007KT 10SM FEW050 BKN250 18/08 A3024 RMK AO2 SLP238 T01830083

KPDX Airport Info (Airnav.com)

KPDX Flight Activity (Flightaware)

Listeners: 1 out of 1904 total

Portland Clearance Delivery: 120.125

KPDX Del/Gnd (Archives)
Portland, Oregon, United States

Feed Status: UP
Listen in your browser - HTML5 player(in browser, HTML5)
Click here to listen with your own player(launches your MP3 player)

KPDX 221853Z 28007KT 10SM FEW050 BKN250 18/08 A3024 RMK AO2 SLP238 T01830083

KPDX Airport Info (Airnav.com)

KPDX Flight Activity (Flightaware)

Listeners: 0 out of 1904 total

Portland Clearance Delivery: 120.125
Portland Ground: 121.900

KPDX Ground (Archives)
Portland, Oregon, United States

Feed Status: UP
Listen in your browser - HTML5 player(in browser, HTML5)
Click here to listen with your own player(launches your MP3 player)

KPDX 221853Z 28007KT 10SM FEW050 BKN250 18/08 A3024 RMK AO2 SLP238 T01830083

KPDX Airport Info (Airnav.com)

KPDX Flight Activity (Flightaware)

Listeners: 1 out of 1904 total

Portland Ground: 121.900

KPDX Tower (Both) (Archives)
Portland, Oregon, United States

Feed Status: UP
Listen in your browser - HTML5 player(in browser, HTML5)
Click here to listen with your own player(launches your MP3 player)

KPDX 221853Z 28007KT 10SM FEW050 BKN250 18/08 A3024 RMK AO2 SLP238 T01830083

KPDX Airport Info (Airnav.com)

KPDX Flight Activity (Flightaware)

Listeners: 3 out of 1904 total

Portland Tower: 118.700
Portland Tower: 123.775

KPDX Tower (Primary) (Archives)
Portland, Oregon, United States

Feed Status: UP
Listen in your browser - HTML5 player(in browser, HTML5)
Click here to listen with your own player(launches your MP3 player)

KPDX 221853Z 28007KT 10SM FEW050 BKN250 18/08 A3024 RMK AO2 SLP238 T01830083

KPDX Airport Info (Airnav.com)

KPDX Flight Activity (Flightaware)

Listeners: 2 out of 1904 total

Portland Tower: 123.775

KPDX Tower (Rwy 10L/28R) (Archives)
Portland, Oregon, United States

Feed Status: UP
Listen in your browser - HTML5 player(in browser, HTML5)
Click here to listen with your own player(launches your MP3 player)

KPDX 221853Z 28007KT 10SM FEW050 BKN250 18/08 A3024 RMK AO2 SLP238 T01830083

KPDX Airport Info (Airnav.com)

KPDX Flight Activity (Flightaware)

Listeners: 0 out of 1904 total

Portland Tower: 118.700

KPIA Approach (North) (Archives)
Peoria, Illinois, United States

Feed Status: UP
Listen in your browser - HTML5 player(in browser, HTML5)
Click here to listen with your own player(launches your MP3 player)

KPIA 221854Z 34008KT 310V010 10SM SCT055 17/03 A3033 RMK AO2 SLP271 T01670033

KPIA Airport Info (Airnav.com)

KPIA Flight Activity (Flightaware)

Listeners: 0 out of 1904 total

Peoria Approach/Departure (North): 125.800

KPIA Approach (South) (Archives)
Peoria, Illinois, United States

Feed Status: UP
Listen in your browser - HTML5 player(in browser, HTML5)
Click here to listen with your own player(launches your MP3 player)

KPIA 221854Z 34008KT 310V010 10SM SCT055 17/03 A3033 RMK AO2 SLP271 T01670033

KPIA Airport Info (Airnav.com)

KPIA Flight Activity (Flightaware)

Listeners: 0 out of 1904 total

Peoria Approach/Departure (South): 124.675

KPIA Approach/Departure (Archives)
Peoria, Illinois, United States

Feed Status: UP
Listen in your browser - HTML5 player(in browser, HTML5)
Click here to listen with your own player(launches your MP3 player)

KPIA 221854Z 34008KT 310V010 10SM SCT055 17/03 A3033 RMK AO2 SLP271 T01670033

KPIA Airport Info (Airnav.com)

KPIA Flight Activity (Flightaware)

Listeners: 0 out of 1904 total

Peoria Approach/Departure (North): 125.800
Peoria Approach/Departure (South): 124.675

KPIA Area Guard (Archives)
Peoria, Illinois, United States

Feed Status: UP
Listen in your browser - HTML5 player(in browser, HTML5)
Click here to listen with your own player(launches your MP3 player)

KPIA 221854Z 34008KT 310V010 10SM SCT055 17/03 A3033 RMK AO2 SLP271 T01670033

KPIA Airport Info (Airnav.com)

KPIA Flight Activity (Flightaware)

Listeners: 0 out of 1904 total

Emergency/Guard: 121.500

KPIA ATIS (Archives)
Peoria, Illinois, United States

Feed Status: UP
Listen in your browser - HTML5 player(in browser, HTML5)
Click here to listen with your own player(launches your MP3 player)

KPIA 221854Z 34008KT 310V010 10SM SCT055 17/03 A3033 RMK AO2 SLP271 T01670033

KPIA Airport Info (Airnav.com)

KPIA Flight Activity (Flightaware)

Listeners: 0 out of 1904 total

Peoria ATIS/AWOS: 126.100

KPIA Ground (Archives)
Peoria, Illinois, United States

Feed Status: UP
Listen in your browser - HTML5 player(in browser, HTML5)
Click here to listen with your own player(launches your MP3 player)

KPIA 221854Z 34008KT 310V010 10SM SCT055 17/03 A3033 RMK AO2 SLP271 T01670033

KPIA Airport Info (Airnav.com)

KPIA Flight Activity (Flightaware)

Listeners: 0 out of 1904 total

Peoria Ground: 121.850

KPIA Ground/Tower (Archives)
Peoria, Illinois, United States

Feed Status: UP
Listen in your browser - HTML5 player(in browser, HTML5)
Click here to listen with your own player(launches your MP3 player)

KPIA 221854Z 34008KT 310V010 10SM SCT055 17/03 A3033 RMK AO2 SLP271 T01670033

KPIA Airport Info (Airnav.com)

KPIA Flight Activity (Flightaware)

Listeners: 0 out of 1904 total

Peoria Ground: 121.850
Peoria Tower: 124.000

KPIA Tower (Archives)
Peoria, Illinois, United States

Feed Status: UP
Listen in your browser - HTML5 player(in browser, HTML5)
Click here to listen with your own player(launches your MP3 player)

KPIA 221854Z 34008KT 310V010 10SM SCT055 17/03 A3033 RMK AO2 SLP271 T01670033

KPIA Airport Info (Airnav.com)

KPIA Flight Activity (Flightaware)

Listeners: 0 out of 1904 total

Peoria Tower: 124.000

KNDZ/KNSE Twr/App (Archives)
Pensacola, Florida, United States

Feed Status: UP
Listen in your browser - HTML5 player(in browser, HTML5)
Click here to listen with your own player(launches your MP3 player)

KPNS 221853Z 10004KT 10SM -RA BKN065 BKN090 A3011 RMK AO2 RAB53 SLPNO P0000 $

KPNS Airport Info (Airnav.com)

KPNS Flight Activity (Flightaware)

Listeners: 0 out of 1904 total

Pensacola Approach: 235.750
Pensacola Approach: 124.850
Pensacola Approach: 127.350
Pensacola Approach: 125.350
Pensacola Approach: 298.900
Pensacola Approach: 278.800
Radar: 290.100
Radar: 278.100
Radar: 362.200
Sherman Tower: 340.200
Whiting North Tower: 306.925
Whiting South Tower: 348.675

KPNS App/Dep 118.6 (Archives)
Pensacola, Florida, United States

Feed Status: UP
Listen in your browser - HTML5 player(in browser, HTML5)
Click here to listen with your own player(launches your MP3 player)

KPNS 221853Z 10004KT 10SM -RA BKN065 BKN090 A3011 RMK AO2 RAB53 SLPNO P0000 $

KPNS Airport Info (Airnav.com)

KPNS Flight Activity (Flightaware)

Listeners: 0 out of 1904 total

Pensacola Approach/Departure: 118.600

KPNS App/Dep 119.0 (Archives)
Pensacola, Florida, United States

Feed Status: UP
Listen in your browser - HTML5 player(in browser, HTML5)
Click here to listen with your own player(launches your MP3 player)

KPNS 221853Z 10004KT 10SM -RA BKN065 BKN090 A3011 RMK AO2 RAB53 SLPNO P0000 $

KPNS Airport Info (Airnav.com)

KPNS Flight Activity (Flightaware)

Listeners: 1 out of 1904 total

Pensacola Approach/Departure: 119.000

KPNS App/Dep 120.65 (Archives)
Pensacola, Florida, United States

Feed Status: UP
Listen in your browser - HTML5 player(in browser, HTML5)
Click here to listen with your own player(launches your MP3 player)

KPNS 221853Z 10004KT 10SM -RA BKN065 BKN090 A3011 RMK AO2 RAB53 SLPNO P0000 $

KPNS Airport Info (Airnav.com)

KPNS Flight Activity (Flightaware)

Listeners: 0 out of 1904 total

Pensacola Approach/Departure: 120.650

KPNS App/Dep 125.35 (Archives)
Pensacola, Florida, United States

Feed Status: UP
Listen in your browser - HTML5 player(in browser, HTML5)
Click here to listen with your own player(launches your MP3 player)

KPNS 221853Z 10004KT 10SM -RA BKN065 BKN090 A3011 RMK AO2 RAB53 SLPNO P0000 $

KPNS Airport Info (Airnav.com)

KPNS Flight Activity (Flightaware)

Listeners: 0 out of 1904 total

Pensacola Approach/Departure: 125.350

KPNS ATIS (Archives)
Pensacola, Florida, United States

Feed Status: UP
Listen in your browser - HTML5 player(in browser, HTML5)
Click here to listen with your own player(launches your MP3 player)

KPNS 221853Z 10004KT 10SM -RA BKN065 BKN090 A3011 RMK AO2 RAB53 SLPNO P0000 $

KPNS Airport Info (Airnav.com)

KPNS Flight Activity (Flightaware)

Listeners: 0 out of 1904 total

Pensacola ATIS: 121.250

KPNS Clearance Delivery (Archives)
Pensacola, Florida, United States

Feed Status: UP
Listen in your browser - HTML5 player(in browser, HTML5)
Click here to listen with your own player(launches your MP3 player)

KPNS 221853Z 10004KT 10SM -RA BKN065 BKN090 A3011 RMK AO2 RAB53 SLPNO P0000 $

KPNS Airport Info (Airnav.com)

KPNS Flight Activity (Flightaware)

Listeners: 0 out of 1904 total

Pensacola Clearance Delivery: 123.725

KPNS Del/Gnd/Twr (Archives)
Pensacola, Florida, United States

Feed Status: UP
Listen in your browser - HTML5 player(in browser, HTML5)
Click here to listen with your own player(launches your MP3 player)

KPNS 221853Z 10004KT 10SM -RA BKN065 BKN090 A3011 RMK AO2 RAB53 SLPNO P0000 $

KPNS Airport Info (Airnav.com)

KPNS Flight Activity (Flightaware)

Listeners: 0 out of 1904 total

Pensacola Clearance Delivery: 123.725
Pensacola Clearance Delivery: 256.875
Pensacola Ground: 121.900
Pensacola Ground: 348.600
Pensacola Tower: 119.900
Pensacola Tower: 257.800

KPNS Ground (Archives)
Pensacola, Florida, United States

Feed Status: UP
Listen in your browser - HTML5 player(in browser, HTML5)
Click here to listen with your own player(launches your MP3 player)

KPNS 221853Z 10004KT 10SM -RA BKN065 BKN090 A3011 RMK AO2 RAB53 SLPNO P0000 $

KPNS Airport Info (Airnav.com)

KPNS Flight Activity (Flightaware)

Listeners: 0 out of 1904 total

Pensacola Ground: 121.900

KPNS Tower #1 (Archives)
Pensacola, Florida, United States

Feed Status: UP
Listen in your browser - HTML5 player(in browser, HTML5)
Click here to listen with your own player(launches your MP3 player)

KPNS 221853Z 10004KT 10SM -RA BKN065 BKN090 A3011 RMK AO2 RAB53 SLPNO P0000 $

KPNS Airport Info (Airnav.com)

KPNS Flight Activity (Flightaware)

Listeners: 0 out of 1904 total

Pensacola Tower: 119.900
Pensacola Tower: 257.800

KPNS Tower #2 (Archives)
Pensacola, Florida, United States

Feed Status: UP
Listen in your browser - HTML5 player(in browser, HTML5)
Click here to listen with your own player(launches your MP3 player)

KPNS 221853Z 10004KT 10SM -RA BKN065 BKN090 A3011 RMK AO2 RAB53 SLPNO P0000 $

KPNS Airport Info (Airnav.com)

KPNS Flight Activity (Flightaware)

Listeners: 0 out of 1904 total

Pensacola Tower: 119.900

KPNS Tower #3 (Archives)
Pensacola, Florida, United States

Feed Status: UP
Listen in your browser - HTML5 player(in browser, HTML5)
Click here to listen with your own player(launches your MP3 player)

KPNS 221853Z 10004KT 10SM -RA BKN065 BKN090 A3011 RMK AO2 RAB53 SLPNO P0000 $

KPNS Airport Info (Airnav.com)

KPNS Flight Activity (Flightaware)

Listeners: 0 out of 1904 total

Pensacola Tower: 119.900

KPWM App/Dep #1 (Archives)
Portland, Maine, United States

Feed Status: UP
Listen in your browser - HTML5 player(in browser, HTML5)
Click here to listen with your own player(launches your MP3 player)

KPWM 221851Z 19009KT 10SM FEW150 FEW250 18/14 A2991 RMK AO2 SLP128 T01830139

KPWM Airport Info (Airnav.com)

KPWM Flight Activity (Flightaware)

Listeners: 0 out of 1904 total

Portland Approach (North): 125.500
Portland Approach (South): 119.750

KPWM App/Dep #2 (Archives)
Portland, Maine, United States

Feed Status: UP
Listen in your browser - HTML5 player(in browser, HTML5)
Click here to listen with your own player(launches your MP3 player)

KPWM 221851Z 19009KT 10SM FEW150 FEW250 18/14 A2991 RMK AO2 SLP128 T01830139

KPWM Airport Info (Airnav.com)

KPWM Flight Activity (Flightaware)

Listeners: 0 out of 1904 total

Portland Approach (South): 119.750

KPWM Gnd/Tower (Archives)
Portland, Maine, United States

Feed Status: UP
Listen in your browser - HTML5 player(in browser, HTML5)
Click here to listen with your own player(launches your MP3 player)

KPWM 221851Z 19009KT 10SM FEW150 FEW250 18/14 A2991 RMK AO2 SLP128 T01830139

KPWM Airport Info (Airnav.com)

KPWM Flight Activity (Flightaware)

Listeners: 3 out of 1904 total

Portland Clearance Delivery: 121.900
Portland Ground: 121.900
Portland Tower: 120.900

KPWM Gnd/Twr/App (Archives)
Portland, Maine, United States

Feed Status: UP
Listen in your browser - HTML5 player(in browser, HTML5)
Click here to listen with your own player(launches your MP3 player)

KPWM 221851Z 19009KT 10SM FEW150 FEW250 18/14 A2991 RMK AO2 SLP128 T01830139

KPWM Airport Info (Airnav.com)

KPWM Flight Activity (Flightaware)

Listeners: 0 out of 1904 total

Portland Approach (North): 125.500
Portland Approach (South): 119.750
Portland Clearance Delivery: 121.900
Portland Ground: 121.900
Portland Tower: 120.900

KPWM Tower (Archives)
Portland, Maine, United States

Feed Status: UP
Listen in your browser - HTML5 player(in browser, HTML5)
Click here to listen with your own player(launches your MP3 player)

KPWM 221851Z 19009KT 10SM FEW150 FEW250 18/14 A2991 RMK AO2 SLP128 T01830139

KPWM Airport Info (Airnav.com)

KPWM Flight Activity (Flightaware)

Listeners: 0 out of 1904 total

Portland Tower: 120.900

KRDU Approach
Raleigh/Durham, North Carolina, United States

Feed Status: DOWN
Offline since: 2022-05-21 23:21:22 UTC

KRDU 221851Z 24010KT 10SM SCT048 SCT250 32/21 A3012 RMK AO2 SLP195 T03170206

KRDU Airport Info (Airnav.com)

Raleigh Approach: 124.950
Raleigh Approach: 128.300

KRDU Approach/Departure
Raleigh/Durham, North Carolina, United States

Feed Status: DOWN
Offline since: 2022-05-21 23:21:22 UTC

KRDU 221851Z 24010KT 10SM SCT048 SCT250 32/21 A3012 RMK AO2 SLP195 T03170206

KRDU Airport Info (Airnav.com)

Raleigh Approach: 124.950
Raleigh Approach: 128.300
Raleigh Departure: 125.300
Raleigh Departure: 132.350

KRDU Departure
Raleigh/Durham, North Carolina, United States

Feed Status: DOWN
Offline since: 2022-05-22 00:05:05 UTC

KRDU 221851Z 24010KT 10SM SCT048 SCT250 32/21 A3012 RMK AO2 SLP195 T03170206

KRDU Airport Info (Airnav.com)

Raleigh Departure: 132.350
Raleigh Departure: 125.300

KRDU Departure 132.35 (Archives)
Raleigh/Durham, North Carolina, United States

Feed Status: UP
Listen in your browser - HTML5 player(in browser, HTML5)
Click here to listen with your own player(launches your MP3 player)

KRDU 221851Z 24010KT 10SM SCT048 SCT250 32/21 A3012 RMK AO2 SLP195 T03170206

KRDU Airport Info (Airnav.com)

KRDU Flight Activity (Flightaware)

Listeners: 1 out of 1904 total

Raleigh Departure: 132.350

KRNO Clearance Delivery (Archives)
Reno, Nevada, United States

Feed Status: UP
Listen in your browser - HTML5 player(in browser, HTML5)
Click here to listen with your own player(launches your MP3 player)

KRNO 221855Z VRB04KT 10SM FEW200 FEW250 22/M04 A3010 RMK AO2 SLP153 T02171044 $

KRNO Airport Info (Airnav.com)

KRNO Flight Activity (Flightaware)

Listeners: 0 out of 1904 total

Reno Clearance Delivery: 124.900

KRNO Del/Gnd/Twr (Archives)
Reno, Nevada, United States

Feed Status: UP
Listen in your browser - HTML5 player(in browser, HTML5)
Click here to listen with your own player(launches your MP3 player)

KRNO 221855Z VRB04KT 10SM FEW200 FEW250 22/M04 A3010 RMK AO2 SLP153 T02171044 $

KRNO Airport Info (Airnav.com)

KRNO Flight Activity (Flightaware)

Listeners: 2 out of 1904 total

Reno Clearance Delivery: 124.900
Reno Ground: 121.900
Reno Tower: 118.700

KRNO Del/Gnd/Twr (Archives)
Reno, Nevada, United States

Feed Status: UP
Listen in your browser - HTML5 player(in browser, HTML5)
Click here to listen with your own player(launches your MP3 player)

KRNO 221855Z VRB04KT 10SM FEW200 FEW250 22/M04 A3010 RMK AO2 SLP153 T02171044 $

KRNO Airport Info (Airnav.com)

KRNO Flight Activity (Flightaware)

Listeners: 2 out of 1904 total

Reno Clearance Delivery: 124.900
Reno Ground: 121.900
Reno Tower: 118.700

KRNO Del/Gnd/Twr/App/ZOA (Archives)
Reno, Nevada, United States

Feed Status: UP
Listen in your browser - HTML5 player(in browser, HTML5)
Click here to listen with your own player(launches your MP3 player)

KRNO 221855Z VRB04KT 10SM FEW200 FEW250 22/M04 A3010 RMK AO2 SLP153 T02171044 $

KRNO Airport Info (Airnav.com)

KRNO Flight Activity (Flightaware)

Listeners: 3 out of 1904 total

Emergency/Guard: 121.500
NORCAL Approach (Reno North): 126.300
NORCAL Approach (Reno South): 119.200
Oakland Center (Zone 45, Lo): 128.800
Reno Clearance Delivery: 124.900
Reno Ground: 121.900
Reno Tower: 118.700

KRNO Emergency/Guard (Archives)
Reno, Nevada, United States

Feed Status: UP
Listen in your browser - HTML5 player(in browser, HTML5)
Click here to listen with your own player(launches your MP3 player)

KRNO 221855Z VRB04KT 10SM FEW200 FEW250 22/M04 A3010 RMK AO2 SLP153 T02171044 $

KRNO Airport Info (Airnav.com)

KRNO Flight Activity (Flightaware)

Listeners: 0 out of 1904 total

Emergency/Guard: 121.500

KRNO Ground (Archives)
Reno, Nevada, United States

Feed Status: UP
Listen in your browser - HTML5 player(in browser, HTML5)
Click here to listen with your own player(launches your MP3 player)

KRNO 221855Z VRB04KT 10SM FEW200 FEW250 22/M04 A3010 RMK AO2 SLP153 T02171044 $

KRNO Airport Info (Airnav.com)

KRNO Flight Activity (Flightaware)

Listeners: 0 out of 1904 total

Reno Ground: 121.900

KRNO NORCAL App/Dep (Archives)
Reno, Nevada, United States

Feed Status: UP
Listen in your browser - HTML5 player(in browser, HTML5)
Click here to listen with your own player(launches your MP3 player)

KRNO 221855Z VRB04KT 10SM FEW200 FEW250 22/M04 A3010 RMK AO2 SLP153 T02171044 $

KRNO Airport Info (Airnav.com)

KRNO Flight Activity (Flightaware)

Listeners: 0 out of 1904 total

NORCAL Approach (Reno North): 126.300
NORCAL Approach (Reno South): 119.200

KRNO NORCAL App/Dep (North) (Archives)
Reno, Nevada, United States

Feed Status: UP
Listen in your browser - HTML5 player(in browser, HTML5)
Click here to listen with your own player(launches your MP3 player)

KRNO 221855Z VRB04KT 10SM FEW200 FEW250 22/M04 A3010 RMK AO2 SLP153 T02171044 $

KRNO Airport Info (Airnav.com)

KRNO Flight Activity (Flightaware)

Listeners: 0 out of 1904 total

NORCAL Approach (Reno North): 126.300

KRNO NORCAL App/Dep (South) (Archives)
Reno, Nevada, United States

Feed Status: UP
Listen in your browser - HTML5 player(in browser, HTML5)
Click here to listen with your own player(launches your MP3 player)

KRNO 221855Z VRB04KT 10SM FEW200 FEW250 22/M04 A3010 RMK AO2 SLP153 T02171044 $

KRNO Airport Info (Airnav.com)

KRNO Flight Activity (Flightaware)

Listeners: 0 out of 1904 total

NORCAL Approach (Reno South): 119.200

KRNO Tower (Archives)
Reno, Nevada, United States

Feed Status: UP
Listen in your browser - HTML5 player(in browser, HTML5)
Click here to listen with your own player(launches your MP3 player)

KRNO 221855Z VRB04KT 10SM FEW200 FEW250 22/M04 A3010 RMK AO2 SLP153 T02171044 $

KRNO Airport Info (Airnav.com)

KRNO Flight Activity (Flightaware)

Listeners: 0 out of 1904 total

Reno Tower: 118.700

KROA App/Dep #1 (Archives)
Roanoke, Virginia, United States

Feed Status: UP
Listen in your browser - HTML5 player(in browser, HTML5)
Click here to listen with your own player(launches your MP3 player)

KROA 221854Z 25009KT 10SM FEW055 SCT090 32/18 A3010 RMK AO2 LTG DSNT NW SLP177 T03170178

KROA Airport Info (Airnav.com)

KROA Flight Activity (Flightaware)

Listeners: 0 out of 1904 total

Roanoke Approach: 118.150
Roanoke Approach: 126.900

KROA App/Dep #2 (Archives)
Roanoke, Virginia, United States

Feed Status: UP
Listen in your browser - HTML5 player(in browser, HTML5)
Click here to listen with your own player(launches your MP3 player)

KROA 221854Z 25009KT 10SM FEW055 SCT090 32/18 A3010 RMK AO2 LTG DSNT NW SLP177 T03170178

KROA Airport Info (Airnav.com)

KROA Flight Activity (Flightaware)

Listeners: 0 out of 1904 total

Roanoke Approach: 118.150
Roanoke Approach: 126.900
Roanoke Approach: 135.000

KROA ATIS (Archives)
Roanoke, Virginia, United States

Feed Status: UP
Listen in your browser - HTML5 player(in browser, HTML5)
Click here to listen with your own player(launches your MP3 player)

KROA 221854Z 25009KT 10SM FEW055 SCT090 32/18 A3010 RMK AO2 LTG DSNT NW SLP177 T03170178

KROA Airport Info (Airnav.com)

KROA Flight Activity (Flightaware)

Listeners: 0 out of 1904 total

Roanoke ATIS: 132.375

KROA Clearance Delivery (Archives)
Roanoke, Virginia, United States

Feed Status: UP
Listen in your browser - HTML5 player(in browser, HTML5)
Click here to listen with your own player(launches your MP3 player)

KROA 221854Z 25009KT 10SM FEW055 SCT090 32/18 A3010 RMK AO2 LTG DSNT NW SLP177 T03170178

KROA Airport Info (Airnav.com)

KROA Flight Activity (Flightaware)

Listeners: 0 out of 1904 total

Roanoke Clearance Delivery: 119.700

KROA Del/Gnd (Archives)
Roanoke, Virginia, United States

Feed Status: UP
Listen in your browser - HTML5 player(in browser, HTML5)
Click here to listen with your own player(launches your MP3 player)

KROA 221854Z 25009KT 10SM FEW055 SCT090 32/18 A3010 RMK AO2 LTG DSNT NW SLP177 T03170178

KROA Airport Info (Airnav.com)

KROA Flight Activity (Flightaware)

Listeners: 0 out of 1904 total

Roanoke Clearance Delivery: 119.700
Roanoke Ground: 121.900

KROA Gnd/Twr (Archives)
Roanoke, Virginia, United States

Feed Status: UP
Listen in your browser - HTML5 player(in browser, HTML5)
Click here to listen with your own player(launches your MP3 player)

KROA 221854Z 25009KT 10SM FEW055 SCT090 32/18 A3010 RMK AO2 LTG DSNT NW SLP177 T03170178

KROA Airport Info (Airnav.com)

KROA Flight Activity (Flightaware)

Listeners: 0 out of 1904 total

Roanoke Ground: 121.900
Roanoke Tower: 118.300

KROA Gnd/Twr/App (Archives)
Roanoke, Virginia, United States

Feed Status: UP
Listen in your browser - HTML5 player(in browser, HTML5)
Click here to listen with your own player(launches your MP3 player)

KROA 221854Z 25009KT 10SM FEW055 SCT090 32/18 A3010 RMK AO2 LTG DSNT NW SLP177 T03170178

KROA Airport Info (Airnav.com)

KROA Flight Activity (Flightaware)

Listeners: 5 out of 1904 total

Roanoke Approach: 126.900
Roanoke Approach: 118.150
Roanoke Ground: 121.900
Roanoke Tower: 118.300

KROA Ground (Archives)
Roanoke, Virginia, United States

Feed Status: UP
Listen in your browser - HTML5 player(in browser, HTML5)
Click here to listen with your own player(launches your MP3 player)

KROA 221854Z 25009KT 10SM FEW055 SCT090 32/18 A3010 RMK AO2 LTG DSNT NW SLP177 T03170178

KROA Airport Info (Airnav.com)

KROA Flight Activity (Flightaware)

Listeners: 0 out of 1904 total

Roanoke Ground: 121.900

KROA Tower (Archives)
Roanoke, Virginia, United States

Feed Status: UP
Listen in your browser - HTML5 player(in browser, HTML5)
Click here to listen with your own player(launches your MP3 player)

KROA 221854Z 25009KT 10SM FEW055 SCT090 32/18 A3010 RMK AO2 LTG DSNT NW SLP177 T03170178

KROA Airport Info (Airnav.com)

KROA Flight Activity (Flightaware)

Listeners: 0 out of 1904 total

Roanoke Tower: 118.300

KROC Approach (Archives)
Rochester, New York, United States

Feed Status: UP
Listen in your browser - HTML5 player(in browser, HTML5)
Click here to listen with your own player(launches your MP3 player)

KROC 221921Z 32008KT 10SM OVC010 13/11 A3009 RMK AO2 CIG 008V014 T01330111 $

KROC Airport Info (Airnav.com)

KROC Flight Activity (Flightaware)

Listeners: 1 out of 1904 total

Rochester Approach: 119.550
Rochester Approach: 123.700

KROC Del/Gnd/Twr (Archives)
Rochester, New York, United States

Feed Status: UP
Listen in your browser - HTML5 player(in browser, HTML5)
Click here to listen with your own player(launches your MP3 player)

KROC 221921Z 32008KT 10SM OVC010 13/11 A3009 RMK AO2 CIG 008V014 T01330111 $

KROC Airport Info (Airnav.com)

KROC Flight Activity (Flightaware)

Listeners: 1 out of 1904 total

Rochester Clearance Delivery: 118.800
Rochester Ground: 121.700
Rochester Tower: 118.300

KROC Delivery/Ground (Archives)
Rochester, New York, United States

Feed Status: UP
Listen in your browser - HTML5 player(in browser, HTML5)
Click here to listen with your own player(launches your MP3 player)

KROC 221921Z 32008KT 10SM OVC010 13/11 A3009 RMK AO2 CIG 008V014 T01330111 $

KROC Airport Info (Airnav.com)

KROC Flight Activity (Flightaware)

Listeners: 0 out of 1904 total

Rochester Clearance Delivery: 118.800
Rochester Ground: 121.700

KROC Tower (Archives)
Rochester, New York, United States

Feed Status: UP
Listen in your browser - HTML5 player(in browser, HTML5)
Click here to listen with your own player(launches your MP3 player)

KROC 221921Z 32008KT 10SM OVC010 13/11 A3009 RMK AO2 CIG 008V014 T01330111 $

KROC Airport Info (Airnav.com)

KROC Flight Activity (Flightaware)

Listeners: 1 out of 1904 total

Rochester Tower: 118.300

KROG/KXNA/KVBT/Misc (Archives)
Rogers, Arkansas, United States

Feed Status: UP
Listen in your browser - HTML5 player(in browser, HTML5)
Click here to listen with your own player(launches your MP3 player)

KROG 221858Z 04011KT 10SM OVC050 14/06 A3032 RMK AO2 SLP264 T01390061 $

KROG Airport Info (Airnav.com)

KROG Flight Activity (Flightaware)

Listeners: 0 out of 1904 total

Bentonville CTAF: 122.975
Northwest Regional Tower: 127.100
Razorback Approach/Departure (East): 126.600
Rogers Tower: 119.375

KRSW Gnd/Twr/App/Dep (Archives)
Fort Myers, Florida, United States

Feed Status: UP
Listen in your browser - HTML5 player(in browser, HTML5)
Click here to listen with your own player(launches your MP3 player)

KRSW 221853Z 14009KT 10SM FEW050 33/22 A3014 RMK AO2 SLP205 T03330222

KRSW Airport Info (Airnav.com)

KRSW Flight Activity (Flightaware)

Listeners: 2 out of 1904 total

Ft. Myers Approach/Departure (060-240): 119.750
Ft. Myers Approach/Departure (241-330): 125.150
Ft. Myers Approach/Departure (331-059): 126.800
Ft. Myers Ground: 121.900
Ft. Myers Tower: 128.750

KSAT Approach (Archives)
San Antonio, Texas, United States

Feed Status: UP
Listen in your browser - HTML5 player(in browser, HTML5)
Click here to listen with your own player(launches your MP3 player)

KSAT 221851Z 06009KT 10SM FEW045 BKN250 28/16 A3015 RMK AO2 SLP190 T02780156 $

KSAT Airport Info (Airnav.com)

KSAT Flight Activity (Flightaware)

Listeners: 0 out of 1904 total

San Antonio Approach/Departure: 127.100
San Antonio Approach/Departure: 125.700
San Antonio Approach/Departure (091-140): 128.050
San Antonio Approach/Departure (141-270): 118.050
San Antonio Approach/Departure (271-359): 125.100
San Antonio Approach/Departure (360-090): 124.450

KSAT Ground (Archives)
San Antonio, Texas, United States

Feed Status: UP
Listen in your browser - HTML5 player(in browser, HTML5)
Click here to listen with your own player(launches your MP3 player)

KSAT 221851Z 06009KT 10SM FEW045 BKN250 28/16 A3015 RMK AO2 SLP190 T02780156 $

KSAT Airport Info (Airnav.com)

KSAT Flight Activity (Flightaware)

Listeners: 0 out of 1904 total

San Antonio Ground: 121.900

KSAT Tower (Archives)
San Antonio, Texas, United States

Feed Status: UP
Listen in your browser - HTML5 player(in browser, HTML5)
Click here to listen with your own player(launches your MP3 player)

KSAT 221851Z 06009KT 10SM FEW045 BKN250 28/16 A3015 RMK AO2 SLP190 T02780156 $

KSAT Airport Info (Airnav.com)

KSAT Flight Activity (Flightaware)

Listeners: 0 out of 1904 total

San Antonio Tower: 119.800

KSAV App/Dep (Archives)
Savannah, Georgia, United States

Feed Status: UP
Listen in your browser - HTML5 player(in browser, HTML5)
Click here to listen with your own player(launches your MP3 player)

KSAV 221853Z 08011KT 10SM TS SCT023CB BKN033 BKN090 BKN200 29/21 A3021 RMK AO2 LTG DSNT E RAB04E14 TSB25 SLP229 OCNL LTGIC SE TS SE MOV E CB DSNT NE P0000 T02890211 $

KSAV Airport Info (Airnav.com)

KSAV Flight Activity (Flightaware)

Listeners: 0 out of 1904 total

Savannah Approach (011-109): 125.300
Savannah Approach (011-109): 353.775
Savannah Approach (110-269): 120.400
Savannah Approach (110-269): 354.000
Savannah Approach (270-010): 118.400
Savannah Approach (270-010): 371.875

KSAV Del/Gnd (Archives)
Savannah, Georgia, United States

Feed Status: UP
Listen in your browser - HTML5 player(in browser, HTML5)
Click here to listen with your own player(launches your MP3 player)

KSAV 221853Z 08011KT 10SM TS SCT023CB BKN033 BKN090 BKN200 29/21 A3021 RMK AO2 LTG DSNT E RAB04E14 TSB25 SLP229 OCNL LTGIC SE TS SE MOV E CB DSNT NE P0000 T02890211 $

KSAV Airport Info (Airnav.com)

KSAV Flight Activity (Flightaware)

Listeners: 0 out of 1904 total

Savannah Clearance: 291.775
Savannah Clearance Delivery: 119.550
Savannah Ground: 121.900
Savannah Ground: 348.600

KSAV Tower (Archives)
Savannah, Georgia, United States

Feed Status: UP
Listen in your browser - HTML5 player(in browser, HTML5)
Click here to listen with your own player(launches your MP3 player)

KSAV 221853Z 08011KT 10SM TS SCT023CB BKN033 BKN090 BKN200 29/21 A3021 RMK AO2 LTG DSNT E RAB04E14 TSB25 SLP229 OCNL LTGIC SE TS SE MOV E CB DSNT NE P0000 T02890211 $

KSAV Airport Info (Airnav.com)

KSAV Flight Activity (Flightaware)

Listeners: 0 out of 1904 total

Savannah Tower: 119.100
Savannah Tower: 257.800

KSBA App/Dep (Archives)
Santa Barbara, California, United States

Feed Status: UP
Listen in your browser - HTML5 player(in browser, HTML5)
Click here to listen with your own player(launches your MP3 player)

KSBA 221853Z 22006KT 10SM FEW002 17/11 A3002 RMK AO2 SLP166 FG BNK ALNG SHRLNE E-W T01670106 $

KSBA Airport Info (Airnav.com)

KSBA Flight Activity (Flightaware)

Listeners: 3 out of 1904 total

Santa Barbara Approach/Departure: 125.400
Santa Barbara Approach/Departure: 124.150
Santa Barbara Approach/Departure: 120.550

KSBA Del/Ground (Archives)
Santa Barbara, California, United States

Feed Status: UP
Listen in your browser - HTML5 player(in browser, HTML5)
Click here to listen with your own player(launches your MP3 player)

KSBA 221853Z 22006KT 10SM FEW002 17/11 A3002 RMK AO2 SLP166 FG BNK ALNG SHRLNE E-W T01670106 $

KSBA Airport Info (Airnav.com)

KSBA Flight Activity (Flightaware)

Listeners: 0 out of 1904 total

Santa Barbara Clearance Delivery: 132.900
Santa Barbara Ground: 121.700

KSBA Tower (Archives)
Santa Barbara, California, United States

Feed Status: UP
Listen in your browser - HTML5 player(in browser, HTML5)
Click here to listen with your own player(launches your MP3 player)

KSBA 221853Z 22006KT 10SM FEW002 17/11 A3002 RMK AO2 SLP166 FG BNK ALNG SHRLNE E-W T01670106 $

KSBA Airport Info (Airnav.com)

KSBA Flight Activity (Flightaware)

Listeners: 0 out of 1904 total

Santa Barbara Tower: 119.700

KSDF App/Dep #1 (Archives)
Louisville, Kentucky, United States

Feed Status: UP
Listen in your browser - HTML5 player(in browser, HTML5)
Click here to listen with your own player(launches your MP3 player)

KSDF 221856Z 34010KT 10SM BKN029 OVC042 19/13 A3024 RMK AO2 SLP237 T01940133

KSDF Airport Info (Airnav.com)

KSDF Flight Activity (Flightaware)

Listeners: 1 out of 1904 total

Louisville Approach/Departure: 132.075

KSDF App/Dep #2 (Archives)
Louisville, Kentucky, United States

Feed Status: UP
Listen in your browser - HTML5 player(in browser, HTML5)
Click here to listen with your own player(launches your MP3 player)

KSDF 221856Z 34010KT 10SM BKN029 OVC042 19/13 A3024 RMK AO2 SLP237 T01940133

KSDF Airport Info (Airnav.com)

KSDF Flight Activity (Flightaware)

Listeners: 0 out of 1904 total

Louisville Approach/Departure: 134.150

KSDF ATIS (Archives)
Louisville, Kentucky, United States

Feed Status: UP
Listen in your browser - HTML5 player(in browser, HTML5)
Click here to listen with your own player(launches your MP3 player)

KSDF 221856Z 34010KT 10SM BKN029 OVC042 19/13 A3024 RMK AO2 SLP237 T01940133

KSDF Airport Info (Airnav.com)

KSDF Flight Activity (Flightaware)

Listeners: 0 out of 1904 total

Louisville ATIS: 118.725

KSDF Ground/Tower #1 (Archives)
Louisville, Kentucky, United States

Feed Status: UP
Listen in your browser - HTML5 player(in browser, HTML5)
Click here to listen with your own player(launches your MP3 player)

KSDF 221856Z 34010KT 10SM BKN029 OVC042 19/13 A3024 RMK AO2 SLP237 T01940133

KSDF Airport Info (Airnav.com)

KSDF Flight Activity (Flightaware)

Listeners: 1 out of 1904 total

Louisville Ground: 121.700
Louisville Tower: 124.200

KSDF Thunder Over Louisville Air Show #2 (Archives)
Louisville, Kentucky, United States

Feed Status: UP
Listen in your browser - HTML5 player(in browser, HTML5)
Click here to listen with your own player(launches your MP3 player)

KSDF 221856Z 34010KT 10SM BKN029 OVC042 19/13 A3024 RMK AO2 SLP237 T01940133

KSDF Airport Info (Airnav.com)

KSDF Flight Activity (Flightaware)

Listeners: 0 out of 1904 total

Air Boss (VHF): 120.300
Air to Air: 126.850

KSFB ATIS (Archives)
Orlando, Florida, United States

Feed Status: UP
Listen in your browser - HTML5 player(in browser, HTML5)
Click here to listen with your own player(launches your MP3 player)

KSFB 221853Z 14013KT 10SM CLR 33/23 A3018 RMK AO2 SLPNO T03280228

KSFB Airport Info (Airnav.com)

KSFB Flight Activity (Flightaware)

Listeners: 0 out of 1904 total

Sanford ATIS: 125.975

KSFB Clearance Delivery (Archives)
Orlando, Florida, United States

Feed Status: UP
Listen in your browser - HTML5 player(in browser, HTML5)
Click here to listen with your own player(launches your MP3 player)

KSFB 221853Z 14013KT 10SM CLR 33/23 A3018 RMK AO2 SLPNO T03280228

KSFB Airport Info (Airnav.com)

KSFB Flight Activity (Flightaware)

Listeners: 0 out of 1904 total

Sanford Clearance Delivery: 123.975

KSFB Del/Gnd (Archives)
Orlando, Florida, United States

Feed Status: UP
Listen in your browser - HTML5 player(in browser, HTML5)
Click here to listen with your own player(launches your MP3 player)

KSFB 221853Z 14013KT 10SM CLR 33/23 A3018 RMK AO2 SLPNO T03280228

KSFB Airport Info (Airnav.com)

KSFB Flight Activity (Flightaware)

Listeners: 0 out of 1904 total

Sanford Clearance Delivery: 123.975
Sanford Ground: 121.350

KSFB Ground (Archives)
Orlando, Florida, United States

Feed Status: UP
Listen in your browser - HTML5 player(in browser, HTML5)
Click here to listen with your own player(launches your MP3 player)

KSFB 221853Z 14013KT 10SM CLR 33/23 A3018 RMK AO2 SLPNO T03280228

KSFB Airport Info (Airnav.com)

KSFB Flight Activity (Flightaware)

Listeners: 1 out of 1904 total

Sanford Ground: 121.350

KSFB Tower (Both) (Archives)
Orlando, Florida, United States

Feed Status: UP
Listen in your browser - HTML5 player(in browser, HTML5)
Click here to listen with your own player(launches your MP3 player)

KSFB 221853Z 14013KT 10SM CLR 33/23 A3018 RMK AO2 SLPNO T03280228

KSFB Airport Info (Airnav.com)

KSFB Flight Activity (Flightaware)

Listeners: 2 out of 1904 total

Sanford Tower (Runways 9L/27R, 18/36): 120.300
Sanford Tower (Runways 9R/27L, 9C/27C): 135.250

KSFB Tower (Main) (Archives)
Orlando, Florida, United States

Feed Status: UP
Listen in your browser - HTML5 player(in browser, HTML5)
Click here to listen with your own player(launches your MP3 player)

KSFB 221853Z 14013KT 10SM CLR 33/23 A3018 RMK AO2 SLPNO T03280228

KSFB Airport Info (Airnav.com)

KSFB Flight Activity (Flightaware)

Listeners: 0 out of 1904 total

Sanford Tower (Runways 9L/27R, 18/36): 120.300

KSFB Tower (South) (Archives)
Orlando, Florida, United States

Feed Status: UP
Listen in your browser - HTML5 player(in browser, HTML5)
Click here to listen with your own player(launches your MP3 player)

KSFB 221853Z 14013KT 10SM CLR 33/23 A3018 RMK AO2 SLPNO T03280228

KSFB Airport Info (Airnav.com)

KSFB Flight Activity (Flightaware)

Listeners: 0 out of 1904 total

Sanford Tower (Runways 9R/27L, 9C/27C): 135.250

NORCAL Departure (KSFO/KOAK) (Archives)
San Francisco, California, United States

Feed Status: UP
Listen in your browser - HTML5 player(in browser, HTML5)
Click here to listen with your own player(launches your MP3 player)

KOAK 221853Z 27010KT 10SM FEW220 19/08 A3005 RMK AO2 SLP177 T01940083

KOAK Airport Info (Airnav.com)

KOAK Flight Activity (Flightaware)

Listeners: 3 out of 1904 total

NORCAL Departure (Northeast Departures): 120.900
NORCAL Departure (Northeast Departures): 127.000
NORCAL Departure (Southwest Departures): 127.975
NORCAL Departure (Southwest Departures): 135.100

KSGF Approach/Departure (Archives)
Springfield, Missouri, United States

Feed Status: UP
Listen in your browser - HTML5 player(in browser, HTML5)
Click here to listen with your own player(launches your MP3 player)

KSGF 221852Z 02009KT 10SM BKN085 15/07 A3033 RMK AO2 SLP269 T01500067 $

KSGF Airport Info (Airnav.com)

KSGF Flight Activity (Flightaware)

Listeners: 0 out of 1904 total

Springfield Approach: 124.950
Springfield Approach: 121.100

KSGF ATIS (Archives)
Springfield, Missouri, United States

Feed Status: UP
Listen in your browser - HTML5 player(in browser, HTML5)
Click here to listen with your own player(launches your MP3 player)

KSGF 221852Z 02009KT 10SM BKN085 15/07 A3033 RMK AO2 SLP269 T01500067 $

KSGF Airport Info (Airnav.com)

KSGF Flight Activity (Flightaware)

Listeners: 0 out of 1904 total

Springfield ATIS: 135.125

KSGF Clearance Delivery (Archives)
Springfield, Missouri, United States

Feed Status: UP
Listen in your browser - HTML5 player(in browser, HTML5)
Click here to listen with your own player(launches your MP3 player)

KSGF 221852Z 02009KT 10SM BKN085 15/07 A3033 RMK AO2 SLP269 T01500067 $

KSGF Airport Info (Airnav.com)

KSGF Flight Activity (Flightaware)

Listeners: 0 out of 1904 total

Springfield Clearance Delivery: 123.675

KSGF Ground (Archives)
Springfield, Missouri, United States

Feed Status: UP
Listen in your browser - HTML5 player(in browser, HTML5)
Click here to listen with your own player(launches your MP3 player)

KSGF 221852Z 02009KT 10SM BKN085 15/07 A3033 RMK AO2 SLP269 T01500067 $

KSGF Airport Info (Airnav.com)

KSGF Flight Activity (Flightaware)

Listeners: 0 out of 1904 total

Springfield Ground: 121.900

KSGF Ground/Tower (Archives)
Springfield, Missouri, United States

Feed Status: UP
Listen in your browser - HTML5 player(in browser, HTML5)
Click here to listen with your own player(launches your MP3 player)

KSGF 221852Z 02009KT 10SM BKN085 15/07 A3033 RMK AO2 SLP269 T01500067 $

KSGF Airport Info (Airnav.com)

KSGF Flight Activity (Flightaware)

Listeners: 0 out of 1904 total

Springfield Ground: 121.900
Springfield Tower: 119.900

KSGF Tower (Archives)
Springfield, Missouri, United States

Feed Status: UP
Listen in your browser - HTML5 player(in browser, HTML5)
Click here to listen with your own player(launches your MP3 player)

KSGF 221852Z 02009KT 10SM BKN085 15/07 A3033 RMK AO2 SLP269 T01500067 $

KSGF Airport Info (Airnav.com)

KSGF Flight Activity (Flightaware)

Listeners: 0 out of 1904 total

Springfield Tower: 119.900

KSJC D-ATIS (Archives)
San Jose, California, United States

Feed Status: UP
Listen in your browser - HTML5 player(in browser, HTML5)
Click here to listen with your own player(launches your MP3 player)

KSJC 221853Z 32008KT 10SM FEW120 FEW200 22/07 A3004 RMK AO2 SLP170 T02170067

KSJC Airport Info (Airnav.com)

KSJC Flight Activity (Flightaware)

Listeners: 0 out of 1904 total

San Jose D-ATIS: 126.950

KSJC Del/Gnd/Misc (Archives)
San Jose, California, United States

Feed Status: UP
Listen in your browser - HTML5 player(in browser, HTML5)
Click here to listen with your own player(launches your MP3 player)

KSJC 221853Z 32008KT 10SM FEW120 FEW200 22/07 A3004 RMK AO2 SLP170 T02170067

KSJC Airport Info (Airnav.com)

KSJC Flight Activity (Flightaware)

Listeners: 0 out of 1904 total

Alaska Airlines Ops: 131.200
American Airlines Ops: 129.200
Atlantic Aviation (San Jose Jet Center): 129.800
Emergency/Guard: 121.500
Horizon Air Ops: 132.000
San Jose Clearance Delivery: 118.000
San Jose Ground: 121.700
Signature Flight Support: 129.050
Southwest Airlines Ops: 464.625
Southwest Airlines Ops: 131.700

KSJC Ground (Archives)
San Jose, California, United States

Feed Status: UP
Listen in your browser - HTML5 player(in browser, HTML5)
Click here to listen with your own player(launches your MP3 player)

KSJC 221853Z 32008KT 10SM FEW120 FEW200 22/07 A3004 RMK AO2 SLP170 T02170067

KSJC Airport Info (Airnav.com)

KSJC Flight Activity (Flightaware)

Listeners: 0 out of 1904 total

San Jose Ground: 121.700

KSJC NORCAL Approach #1 (Archives)
San Jose, California, United States

Feed Status: UP
Listen in your browser - HTML5 player(in browser, HTML5)
Click here to listen with your own player(launches your MP3 player)

KSJC 221853Z 32008KT 10SM FEW120 FEW200 22/07 A3004 RMK AO2 SLP170 T02170067

KSJC Airport Info (Airnav.com)

KSJC Flight Activity (Flightaware)

Listeners: 0 out of 1904 total

Emergency/Guard: 121.500
NORCAL Approach: 135.200
NORCAL Approach "LICKE" SJC Final: 120.100

KSJC NORCAL Approach #2 (Archives)
San Jose, California, United States

Feed Status: UP
Listen in your browser - HTML5 player(in browser, HTML5)
Click here to listen with your own player(launches your MP3 player)

KSJC 221853Z 32008KT 10SM FEW120 FEW200 22/07 A3004 RMK AO2 SLP170 T02170067

KSJC Airport Info (Airnav.com)

KSJC Flight Activity (Flightaware)

Listeners: 0 out of 1904 total

NORCAL Approach "LICKE" SJC Final: 120.100
NORCAL Approach "TOGA": 121.300

KSJC NORCAL Departure (Archives)
San Jose, California, United States

Feed Status: UP
Listen in your browser - HTML5 player(in browser, HTML5)
Click here to listen with your own player(launches your MP3 player)

KSJC 221853Z 32008KT 10SM FEW120 FEW200 22/07 A3004 RMK AO2 SLP170 T02170067

KSJC Airport Info (Airnav.com)

KSJC Flight Activity (Flightaware)

Listeners: 0 out of 1904 total

NORCAL Departure: 121.300

KSJC Tower #1 (Archives)
San Jose, California, United States

Feed Status: UP
Listen in your browser - HTML5 player(in browser, HTML5)
Click here to listen with your own player(launches your MP3 player)

KSJC 221853Z 32008KT 10SM FEW120 FEW200 22/07 A3004 RMK AO2 SLP170 T02170067

KSJC Airport Info (Airnav.com)

KSJC Flight Activity (Flightaware)

Listeners: 2 out of 1904 total

San Jose Tower: 124.000

KSJC Tower #2 (Archives)
San Jose, California, United States

Feed Status: UP
Listen in your browser - HTML5 player(in browser, HTML5)
Click here to listen with your own player(launches your MP3 player)

KSJC 221853Z 32008KT 10SM FEW120 FEW200 22/07 A3004 RMK AO2 SLP170 T02170067

KSJC Airport Info (Airnav.com)

KSJC Flight Activity (Flightaware)

Listeners: 0 out of 1904 total

San Jose Tower: 124.000
San Jose Tower: 120.700

KSNA Del/Gnd (Archives)
Santa Ana, California, United States

Feed Status: UP
Listen in your browser - HTML5 player(in browser, HTML5)
Click here to listen with your own player(launches your MP3 player)

KSNA 221853Z 22010KT 10SM FEW035 22/12 A3001 RMK AO2 SLP161 T02220117

KSNA Airport Info (Airnav.com)

KSNA Flight Activity (Flightaware)

Listeners: 0 out of 1904 total

John Wayne Clearance (IFR): 118.000
John Wayne Clearance (VFR): 121.850
John Wayne Ground (East): 120.800
John Wayne Ground (West): 132.250

KSNA Del/Gnd/Twr/App (Archives)
Santa Ana, California, United States

Feed Status: UP
Listen in your browser - HTML5 player(in browser, HTML5)
Click here to listen with your own player(launches your MP3 player)

KSNA 221853Z 22010KT 10SM FEW035 22/12 A3001 RMK AO2 SLP161 T02220117

KSNA Airport Info (Airnav.com)

KSNA Flight Activity (Flightaware)

Listeners: 0 out of 1904 total

John Wayne Clearance Delivery: 121.850
John Wayne Ground: 120.800
John Wayne Tower: 119.900
John Wayne Tower: 126.800
SoCal Approach (NE/SW): 128.100
SoCal Approach (NW/NE): 121.300
SoCal Approach (SE): 124.100

KSNA Tower
Santa Ana, California, United States

Feed Status: DOWN
Offline since: 2022-04-20 19:15:22 UTC

KSNA 221853Z 22010KT 10SM FEW035 22/12 A3001 RMK AO2 SLP161 T02220117

KSNA Airport Info (Airnav.com)

John Wayne Tower: 119.900
John Wayne Tower: 126.800

KSRQ App/Dep (Archives)
Sarasota/Bradenton, Florida, United States

Feed Status: UP
Listen in your browser - HTML5 player(in browser, HTML5)
Click here to listen with your own player(launches your MP3 player)

KSRQ 221853Z 21012G16KT 10SM BKN050 33/23 A3012 RMK AO2 SLP199 T03280228

KSRQ Airport Info (Airnav.com)

KSRQ Flight Activity (Flightaware)

Listeners: 1 out of 1904 total

Tampa Approach/Departure: 119.650
Tampa Approach/Departure: 124.950

KSRQ Del/Gnd (Archives)
Sarasota/Bradenton, Florida, United States

Feed Status: UP
Listen in your browser - HTML5 player(in browser, HTML5)
Click here to listen with your own player(launches your MP3 player)

KSRQ 221853Z 21012G16KT 10SM BKN050 33/23 A3012 RMK AO2 SLP199 T03280228

KSRQ Airport Info (Airnav.com)

KSRQ Flight Activity (Flightaware)

Listeners: 0 out of 1904 total

Sarasota Clearance Delivery: 118.250
Sarasota Ground: 121.900

KSRQ Tower (Archives)
Sarasota/Bradenton, Florida, United States

Feed Status: UP
Listen in your browser - HTML5 player(in browser, HTML5)
Click here to listen with your own player(launches your MP3 player)

KSRQ 221853Z 21012G16KT 10SM BKN050 33/23 A3012 RMK AO2 SLP199 T03280228

KSRQ Airport Info (Airnav.com)

KSRQ Flight Activity (Flightaware)

Listeners: 2 out of 1904 total

Sarasota Tower: 120.100
Sarasota Tower: 256.800

KSYR ATIS (Archives)
Syracuse, New York, United States

Feed Status: UP
Listen in your browser - HTML5 player(in browser, HTML5)
Click here to listen with your own player(launches your MP3 player)

KSYR 221925Z 28012KT 3SM R28/4000VP6000FT -RA BR SCT009 BKN016 OVC040 18/17 A3001 RMK AO2 WSHFT 1848 LTG DSNT E CB DSNT SE P0021 T01830167 $

KSYR Airport Info (Airnav.com)

KSYR Flight Activity (Flightaware)

Listeners: 0 out of 1904 total

Syracuse ATIS: 124.225

KSYR Del/Gnd (Archives)
Syracuse, New York, United States

Feed Status: UP
Listen in your browser - HTML5 player(in browser, HTML5)
Click here to listen with your own player(launches your MP3 player)

KSYR 221925Z 28012KT 3SM R28/4000VP6000FT -RA BR SCT009 BKN016 OVC040 18/17 A3001 RMK AO2 WSHFT 1848 LTG DSNT E CB DSNT SE P0021 T01830167 $

KSYR Airport Info (Airnav.com)

KSYR Flight Activity (Flightaware)

Listeners: 0 out of 1904 total

Syracuse Clearance Delivery: 125.050
Syracuse Ground: 121.700

KSYR Tower/Approach (Archives)
Syracuse, New York, United States

Feed Status: UP
Listen in your browser - HTML5 player(in browser, HTML5)
Click here to listen with your own player(launches your MP3 player)

KSYR 221925Z 28012KT 3SM R28/4000VP6000FT -RA BR SCT009 BKN016 OVC040 18/17 A3001 RMK AO2 WSHFT 1848 LTG DSNT E CB DSNT SE P0021 T01830167 $

KSYR Airport Info (Airnav.com)

KSYR Flight Activity (Flightaware)

Listeners: 8 out of 1904 total

Syracuse Approach: 134.275
Syracuse Approach: 126.125
Syracuse Tower: 120.300

KTLH Del/Gnd/Twr/App (Archives)
Tallahassee, Florida, United States

Feed Status: UP
Listen in your browser - HTML5 player(in browser, HTML5)
Click here to listen with your own player(launches your MP3 player)

KTLH 221853Z COR 15005KT 10SM SCT025TCU OVC055 29/23 A3016 RMK AO2 SLP211 SCT025 V BKN TCU OHD-SE T02890233

KTLH Airport Info (Airnav.com)

KTLH Flight Activity (Flightaware)

Listeners: 1 out of 1904 total

Tallahassee Approach/Departure: 135.800
Tallahassee Approach/Departure: 128.700
Tallahassee Approach/Departure: 133.850
Tallahassee Clearance Delivery: 126.650
Tallahassee Ground: 121.900
Tallahassee Tower: 118.700

KTOL Del/Gnd/Twr/App (Archives)
Toledo, Ohio, United States

Feed Status: UP
Listen in your browser - HTML5 player(in browser, HTML5)
Click here to listen with your own player(launches your MP3 player)

KTOL 221852Z 28009KT 10SM FEW035 SCT044 19/09 A3019 RMK AO2 SLP221 T01890089

KTOL Airport Info (Airnav.com)

KTOL Flight Activity (Flightaware)

Listeners: 0 out of 1904 total

Toledo Approach (East): 126.100
Toledo Approach (West): 134.350
Toledo Clearance Delivery: 121.750
Toledo Ground: 121.900
Toledo Tower: 118.100

KTUL Del/Gnd/Twr/App (Archives)
Tulsa, Oklahoma, United States

Feed Status: UP
Listen in your browser - HTML5 player(in browser, HTML5)
Click here to listen with your own player(launches your MP3 player)

KTUL 221853Z 04014G20KT 10SM SCT070 BKN085 BKN180 18/06 A3031 RMK AO2 SLP261 T01830056

KTUL Airport Info (Airnav.com)

KTUL Flight Activity (Flightaware)

Listeners: 4 out of 1904 total

Emergency/Guard: 121.500
Tulsa Approach (175-354deg): 124.000
Tulsa Approach (355-174deg): 119.100
Tulsa Approach (Final): 132.100
Tulsa Approach/Departure (KRVS): 134.700
Tulsa Clearance: 134.050
Tulsa Ground: 121.900
Tulsa Tower (Rwy 18R/36L): 118.700
Tulsa Tower (Rwys 18L/36R, 08/26): 121.200

KDMA/KTUS Twr/Ops/ZAB (Archives)
Tucson, Arizona, United States

Feed Status: UP
Listen in your browser - HTML5 player(in browser, HTML5)
Click here to listen with your own player(launches your MP3 player)

KTUS 221853Z VRB06KT 10SM CLR 32/M01 A2999 RMK AO2 SLP106 T03221011

KTUS Airport Info (Airnav.com)

KTUS Flight Activity (Flightaware)

Listeners: 7 out of 1904 total

357FS Ops: 139.725
358FS Ops: 138.500
Albuquerque Center (Sector 47 Silver City/Low/UHF): 327.150
Albuquerque Center (Sector 90 San Simon/High/UHF): 281.500
AWACS: 364.200
BigFoot: 234.800
BigFoot: 271.000
Davis-Monthan AFB: 253.500
Tucson 162FW SOS IOPS: 392.200
Tucson Tower (UHF): 257.800

KTUS Del/Gnd/Twr/App/KDMA (Archives)
Tucson, Arizona, United States

Feed Status: UP
Listen in your browser - HTML5 player(in browser, HTML5)
Click here to listen with your own player(launches your MP3 player)

KTUS 221853Z VRB06KT 10SM CLR 32/M01 A2999 RMK AO2 SLP106 T03221011

KTUS Airport Info (Airnav.com)

KTUS Flight Activity (Flightaware)

Listeners: 3 out of 1904 total

KDMA Tower: 118.850
Tucson Approach (alt): 128.500
Tucson Approach (East/South): 125.100
Tucson Approach (North): 119.400
Tucson Approach (Practice Areas): 125.900
Tucson Clearance Delivery: 126.650
Tucson Ground: 124.400
Tucson Tower: 118.300
Tucson Tower (alt): 119.000

KTYS Del/Gnd/Twr/App (Archives)
Knoxville, Tennessee, United States

Feed Status: UP
Listen in your browser - HTML5 player(in browser, HTML5)
Click here to listen with your own player(launches your MP3 player)

KTYS 221853Z 27011KT 10SM SCT038 BKN100 29/17 A3016 RMK AO2 LTG DSNT SE SLP202 T02890172

KTYS Airport Info (Airnav.com)

KTYS Flight Activity (Flightaware)

Listeners: 4 out of 1904 total

Knoxville Approach/Departure: 123.900
Knoxville Approach/Departure: 120.650
Knoxville Approach/Departure: 360.800
Knoxville Approach/Departure: 353.600
Knoxville Approach/Departure: 118.000
Knoxville Clearance Delivery: 121.650
Knoxville Ground: 348.600
Knoxville Ground: 121.900
Knoxville Tower: 257.800
Knoxville Tower: 121.200

KROG/KXNA/KVBT/Misc (Archives)
Bentonville, Arkansas, United States

Feed Status: UP
Listen in your browser - HTML5 player(in browser, HTML5)
Click here to listen with your own player(launches your MP3 player)

KROG 221858Z 04011KT 10SM OVC050 14/06 A3032 RMK AO2 SLP264 T01390061 $

KROG Airport Info (Airnav.com)

KROG Flight Activity (Flightaware)

Listeners: 0 out of 1904 total

Bentonville CTAF: 122.975
Northwest Regional Tower: 127.100
Razorback Approach/Departure (East): 126.600
Rogers Tower: 119.375

KROG/KXNA/KVBT/Misc (Archives)
Fayetteville/Springdale/Rogers, Arkansas, United States

Feed Status: UP
Listen in your browser - HTML5 player(in browser, HTML5)
Click here to listen with your own player(launches your MP3 player)

KROG 221858Z 04011KT 10SM OVC050 14/06 A3032 RMK AO2 SLP264 T01390061 $

KROG Airport Info (Airnav.com)

KROG Flight Activity (Flightaware)

Listeners: 0 out of 1904 total

Bentonville CTAF: 122.975
Northwest Regional Tower: 127.100
Razorback Approach/Departure (East): 126.600
Rogers Tower: 119.375

KBTR/KHZR/L38 Del/Gnd/Twr/App/CTAF (Archives)
Gonzales, Louisiana, United States

Feed Status: UP
Listen in your browser - HTML5 player(in browser, HTML5)
Click here to listen with your own player(launches your MP3 player)

KBTR 221853Z 32007KT 10SM FEW030 BKN035 OVC048 28/22 A3005 RMK AO2 SLP176 T02830222

KBTR Airport Info (Airnav.com)

KBTR Flight Activity (Flightaware)

Listeners: 0 out of 1904 total

Baton Rouge Approach/Departure (East): 126.500
Baton Rouge Approach/Departure (Military): 278.300
Baton Rouge Approach/Departure (West): 120.300
Baton Rouge Clearance Delivery: 119.400
Baton Rouge Ground: 121.900
Baton Rouge Tower (Military): 257.800
Baton Rouge Tower/CTAF: 118.450
Baton Rouge UNICOM: 122.950
Houston Center (App/Dep when Approach closed): 338.250
Houston Center (App/Dep when Approach closed): 126.350
Louisiana Regional L38 CTAF: 123.000
United Airlines: 129.925

PANC Del/Gnd/App (Archives)
Anchorage, Alaska, United States

Feed Status: UP
Listen in your browser - HTML5 player(in browser, HTML5)
Click here to listen with your own player(launches your MP3 player)

PANC 221853Z 00000KT 10SM SCT100 BKN200 16/01 A2996 RMK AO2 SLP147 T01610006

PANC Airport Info (Airnav.com)

PANC Flight Activity (Flightaware)

Listeners: 0 out of 1904 total

Anchorage Approach/Dep (046-205 deg): 126.400
Anchorage Approach/Dep (206-249 deg): 123.800
Anchorage Approach/Dep (250-330 deg <=1500'): 119.100
Anchorage Approach/Dep (250-330 deg >1500'): 118.600
Anchorage Approach/Dep (331-045 deg <=2500'): 119.100
Anchorage Clearance: 119.400
Anchorage Ground: 121.900

PANC Del/Gnd/Twr/App (Archives)
Anchorage, Alaska, United States

Feed Status: UP
Listen in your browser - HTML5 player(in browser, HTML5)
Click here to listen with your own player(launches your MP3 player)

PANC 221853Z 00000KT 10SM SCT100 BKN200 16/01 A2996 RMK AO2 SLP147 T01610006

PANC Airport Info (Airnav.com)

PANC Flight Activity (Flightaware)

Listeners: 0 out of 1904 total

Anchorage Approach/Dep (046-205 deg): 126.400
Anchorage Approach/Dep (206-249 deg): 123.800
Anchorage Approach/Dep (250-330 deg <=1500'): 119.100
Anchorage Approach/Dep (250-330 deg >1500'): 118.600
Anchorage Approach/Dep (331-045 deg <=2500'): 119.100
Anchorage Clearance: 119.400
Anchorage Ground: 121.900
Anchorage Tower: 118.300

PANC Tower (Archives)
Anchorage, Alaska, United States

Feed Status: UP
Listen in your browser - HTML5 player(in browser, HTML5)
Click here to listen with your own player(launches your MP3 player)

PANC 221853Z 00000KT 10SM SCT100 BKN200 16/01 A2996 RMK AO2 SLP147 T01610006

PANC Airport Info (Airnav.com)

PANC Flight Activity (Flightaware)

Listeners: 1 out of 1904 total

Anchorage Tower: 118.300

PHOG ATIS (Archives)
Kahului, Hawaii, United States

Feed Status: UP
Listen in your browser - HTML5 player(in browser, HTML5)
Click here to listen with your own player(launches your MP3 player)

PHOG 221854Z VRB04KT 10SM SCT040 28/17 A3012 RMK AO2 SLP205 T02830172

PHOG Airport Info (Airnav.com)

PHOG Flight Activity (Flightaware)

Listeners: 2 out of 1904 total

Maui ATIS: 128.600

PHOG Clearance Delivery (Archives)
Kahului, Hawaii, United States

Feed Status: UP
Listen in your browser - HTML5 player(in browser, HTML5)
Click here to listen with your own player(launches your MP3 player)

PHOG 221854Z VRB04KT 10SM SCT040 28/17 A3012 RMK AO2 SLP205 T02830172

PHOG Airport Info (Airnav.com)

PHOG Flight Activity (Flightaware)

Listeners: 2 out of 1904 total

Maui Clearance Delivery: 120.600

PHOG Del/Gnd/Twr/App (Archives)
Kahului, Hawaii, United States

Feed Status: UP
Listen in your browser - HTML5 player(in browser, HTML5)
Click here to listen with your own player(launches your MP3 player)

PHOG 221854Z VRB04KT 10SM SCT040 28/17 A3012 RMK AO2 SLP205 T02830172

PHOG Airport Info (Airnav.com)

PHOG Flight Activity (Flightaware)

Listeners: 3 out of 1904 total

HCF Approach (Maui/North): 120.200
HCF Approach (Maui/South): 119.500
Maui Clearance Delivery: 120.600
Maui Ground: 121.900
Maui Tower: 118.700

PHOG Ground (Archives)
Kahului, Hawaii, United States

Feed Status: UP
Listen in your browser - HTML5 player(in browser, HTML5)
Click here to listen with your own player(launches your MP3 player)

PHOG 221854Z VRB04KT 10SM SCT040 28/17 A3012 RMK AO2 SLP205 T02830172

PHOG Airport Info (Airnav.com)

PHOG Flight Activity (Flightaware)

Listeners: 0 out of 1904 total

Maui Ground: 121.900

PHOG HCF App (N/S) (Archives)
Kahului, Hawaii, United States

Feed Status: UP
Listen in your browser - HTML5 player(in browser, HTML5)
Click here to listen with your own player(launches your MP3 player)

PHOG 221854Z VRB04KT 10SM SCT040 28/17 A3012 RMK AO2 SLP205 T02830172

PHOG Airport Info (Airnav.com)

PHOG Flight Activity (Flightaware)

Listeners: 0 out of 1904 total

HCF Approach (Maui/North): 120.200
HCF Approach (Maui/South): 119.500

PHOG HCF App (North) (Archives)
Kahului, Hawaii, United States

Feed Status: UP
Listen in your browser - HTML5 player(in browser, HTML5)
Click here to listen with your own player(launches your MP3 player)

PHOG 221854Z VRB04KT 10SM SCT040 28/17 A3012 RMK AO2 SLP205 T02830172

PHOG Airport Info (Airnav.com)

PHOG Flight Activity (Flightaware)

Listeners: 2 out of 1904 total

HCF Approach (Maui/North): 120.200

PHOG HCF App (South) (Archives)
Kahului, Hawaii, United States

Feed Status: UP
Listen in your browser - HTML5 player(in browser, HTML5)
Click here to listen with your own player(launches your MP3 player)

PHOG 221854Z VRB04KT 10SM SCT040 28/17 A3012 RMK AO2 SLP205 T02830172

PHOG Airport Info (Airnav.com)

PHOG Flight Activity (Flightaware)

Listeners: 2 out of 1904 total

HCF Approach (Maui/South): 119.500

PHOG Tower (Archives)
Kahului, Hawaii, United States

Feed Status: UP
Listen in your browser - HTML5 player(in browser, HTML5)
Click here to listen with your own player(launches your MP3 player)

PHOG 221854Z VRB04KT 10SM SCT040 28/17 A3012 RMK AO2 SLP205 T02830172

PHOG Airport Info (Airnav.com)

PHOG Flight Activity (Flightaware)

Listeners: 2 out of 1904 total

Maui Tower: 118.700

TJSJ Approach/Departure (Archives)
San Juan, Puerto Rico, United States

Feed Status: UP
Listen in your browser - HTML5 player(in browser, HTML5)
Click here to listen with your own player(launches your MP3 player)

TJSJ 221856Z 06018KT 10SM FEW033 30/23 A3010 RMK AO2 SLP193 T03000233 $

TJSJ Flight Activity (Flightaware)

Listeners: 0 out of 1904 total

San Juan App/Dep (North/East): 120.900
San Juan Approach: 128.650
San Juan Approach/Departure (West/Southwest): 119.400

TJSJ Del/Gnd/Twr (Archives)
San Juan, Puerto Rico, United States

Feed Status: UP
Listen in your browser - HTML5 player(in browser, HTML5)
Click here to listen with your own player(launches your MP3 player)

TJSJ 221856Z 06018KT 10SM FEW033 30/23 A3010 RMK AO2 SLP193 T03000233 $

TJSJ Flight Activity (Flightaware)

Listeners: 1 out of 1904 total

San Juan Clearance Delivery: 126.400
San Juan Ground: 121.900
San Juan Tower: 132.050

TJSJ Gnd/Twr/App/Center (Archives)
San Juan, Puerto Rico, United States

Feed Status: UP
Listen in your browser - HTML5 player(in browser, HTML5)
Click here to listen with your own player(launches your MP3 player)

TJSJ 221856Z 06018KT 10SM FEW033 30/23 A3010 RMK AO2 SLP193 T03000233 $

TJSJ Flight Activity (Flightaware)

Listeners: 0 out of 1904 total

Emergency/Guard: 121.500
San Juan App/Dep (North/East): 120.900
San Juan Approach/Departure (West/Southwest): 119.400
San Juan Center: 118.150
San Juan Center: 134.300
San Juan Ground: 121.900
San Juan Tower: 132.050